[[{"header":{"parameterUnit":"m.s-1","parameterCategory":1,"la1":30.6,"la2":29.2853,"lo1":-89.7004,"lo2":-87.6739,"dx":0.0162,"dy":0.0183,"nx":112,"ny":82,"refTime":"2023-02-07T06:00:00:Z","depth":0,"parameterNumber":2,"parameterNumberName":"U-component_of_WINDS"},"data":[0.0,0.0,0.0,0.0,0.0,0.0,0.0,0.0,0.0,0.0,0.0,0.0,0.0,0.0,0.0,0.0,0.0,0.0,0.0,0.0,0.0,0.0,0.0,0.0,0.0,0.0,0.0,0.0,0.0,0.0,0.0,0.0,0.0,0.0,0.0,0.0,0.0,0.0,0.0,0.0,0.0,0.0,0.0,0.0,0.0,0.0,0.0,0.0,0.0,0.0,0.0,0.0,0.0,0.0,0.0,0.0,0.0,0.0,0.0,0.0,0.0,0.0,0.0,0.0,0.0,0.0,0.0,0.0,0.0,0.0,0.0,0.0,0.0,0.0,0.0,0.0,0.0,0.0,0.0,0.0,0.0,0.0,0.0,0.0,0.0,0.0,0.0,0.0,0.0,0.0,-0.4964,-0.7547,-0.9927,-1.0592,-0.8668,-0.9016,-0.8543,-0.6706,0.0,0.0,0.0,0.0,0.0,0.0,0.0,0.0,0.0,0.0,0.0,0.0,0.0,0.0,0.0,0.0,0.0,0.0,0.0,0.0,0.0,0.0,0.0,0.0,0.0,0.0,0.0,0.0,0.0,0.0,0.0,0.0,0.0,0.0,0.0,0.0,0.0,0.0,0.0,0.0,0.0,0.0,0.0,0.0,0.0,0.0,0.0,0.0,0.0,0.0,0.0,0.0,0.0,0.0,0.0,0.0,0.0,0.0,0.0,0.0,0.0,0.0,0.0,0.0,0.0,0.0,0.0,0.0,0.0,0.0,0.0,0.0,0.0,0.0,0.0,0.0,0.0,0.0,0.0,0.0,0.0,0.0,0.0,0.0,0.0,0.0,0.0,0.0,0.0,0.0,0.0,0.0,0.0,0.0,0.0,0.0,0.0,0.0,0.0,0.0,0.0,0.0,0.0,0.0,-0.6125,-0.9717,-1.2414,-1.3798,-1.3448,-1.1552,-0.9814,-0.8494,0.0,0.0,0.0,0.0,0.0,0.0,0.0,0.0,0.0,0.0,0.0,0.0,0.0,0.0,0.0,0.0,0.0,0.0,0.0,0.0,0.0,0.0,0.0,0.0,0.0,0.0,0.0,0.0,0.0,0.0,0.0,0.0,0.0,0.0,0.0,0.0,0.0,0.0,0.0,0.0,0.0,0.0,0.0,0.0,0.0,0.0,0.0,0.0,0.0,0.0,0.0,0.0,0.0,0.0,0.0,0.0,0.0,0.0,0.0,0.0,0.0,0.0,0.0,0.0,0.0,0.0,0.0,0.0,0.0,0.0,0.0,0.0,0.0,0.0,0.0,0.0,0.0,0.0,0.0,0.0,0.0,0.0,0.0,0.0,0.0,0.0,0.0,0.0,0.0,0.0,0.0,0.0,0.0,0.0,0.0,0.0,0.0,0.0,0.0,0.0,0.0,0.0,0.0,-0.6812,-0.8559,-1.0275,-1.2766,-1.3754,-1.2478,-1.1664,-1.0434,-0.8687,-0.7136,0.0,0.0,0.0,0.0,0.0,0.0,0.0,0.0,0.0,0.0,0.0,0.0,0.0,0.0,0.0,0.0,0.0,0.0,0.0,0.0,0.0,0.0,0.0,0.0,0.0,0.0,0.0,0.0,0.0,0.0,0.0,0.0,0.0,0.0,0.0,0.0,0.0,0.0,0.0,0.0,0.0,0.0,0.0,0.0,0.0,0.0,0.0,0.0,0.0,0.0,0.0,0.0,0.0,0.0,0.0,0.0,0.0,0.0,0.0,0.0,0.0,0.0,0.0,0.0,0.0,0.0,0.0,0.0,0.0,0.0,0.0,0.0,0.0,0.0,0.0,0.0,0.0,0.0,0.0,0.0,0.0,0.0,0.0,0.0,0.0,0.0,0.0,0.0,0.0,0.0,0.0,0.0,0.0,0.0,0.0,0.0,0.0,0.0,0.0,0.0,0.0,0.0,-0.9126,-1.0603,-1.0824,-1.2789,-1.3392,-1.1563,-1.1318,-1.0499,-0.8646,-0.6953,0.0,0.0,0.0,0.0,0.0,0.0,0.0,0.0,0.0,0.0,0.0,0.0,0.0,0.0,0.0,0.0,0.0,0.0,0.0,0.0,0.0,0.0,0.0,0.0,0.0,0.0,0.0,0.0,0.0,0.0,0.0,0.0,0.0,0.0,0.0,0.0,0.0,0.0,0.0,0.0,0.0,0.0,0.0,0.0,0.0,0.0,0.0,0.0,0.0,0.0,0.0,0.0,0.0,0.0,0.0,0.0,0.0,0.0,0.0,0.0,0.0,0.0,0.0,0.0,0.0,0.0,0.0,0.0,0.0,0.0,0.0,0.0,0.0,0.0,0.0,0.0,0.0,0.0,0.0,0.0,0.0,0.0,0.0,0.0,0.0,0.0,0.0,0.0,0.0,0.0,0.0,0.0,0.0,0.0,0.0,0.0,0.0,0.0,0.0,0.0,0.0,0.0,-0.9446,-1.1263,-1.2097,-1.3324,-1.4039,-1.387,-1.1488,-0.9708,-0.9008,-0.6351,0.0,0.0,0.0,0.0,0.0,0.0,0.0,0.0,0.0,0.0,0.0,0.0,0.0,0.0,0.0,0.0,0.0,0.0,0.0,0.0,0.0,0.0,0.0,0.0,0.0,0.0,0.0,0.0,0.0,0.0,0.0,0.0,0.0,0.0,0.0,0.0,0.0,0.0,0.0,0.0,0.0,0.0,0.0,0.0,0.0,0.0,0.0,0.0,0.0,0.0,0.0,0.0,0.0,0.0,0.0,0.0,0.0,0.0,0.0,0.0,0.0,0.0,0.0,0.0,0.0,0.0,0.0,0.0,0.0,0.0,0.0,0.0,0.0,0.0,0.0,0.0,0.0,0.0,0.0,0.0,0.0,0.0,0.0,0.0,0.0,0.0,0.0,0.0,0.0,0.0,0.0,0.0,0.0,0.0,0.0,0.0,0.0,0.0,0.0,0.0,0.0,0.0,-1.0669,-1.2209,-1.3306,-1.3828,-1.4015,-1.3828,-1.2492,-1.1078,-0.9645,0.0,0.0,0.0,0.0,0.0,0.0,0.0,0.0,0.0,0.0,0.0,0.0,0.0,0.0,0.0,0.0,0.0,0.0,0.0,0.0,0.0,0.0,0.0,0.0,0.0,0.0,0.0,0.0,0.0,0.0,0.0,0.0,0.0,0.0,0.0,0.0,0.0,0.0,0.0,0.0,0.0,0.0,0.0,0.0,0.0,0.0,0.0,0.0,0.0,0.0,0.0,0.0,0.0,0.0,0.0,0.0,0.0,0.0,0.0,0.0,0.0,0.0,0.0,0.0,0.0,0.0,0.0,0.0,0.0,0.0,0.0,0.0,0.0,0.0,0.0,0.0,0.0,0.0,0.0,0.0,0.0,0.0,0.0,0.0,0.0,0.0,0.0,0.0,0.0,0.0,0.0,0.0,0.0,0.0,0.0,0.0,0.0,0.0,0.0,0.0,0.0,0.0,-1.012,-1.1585,-1.2866,-1.3975,-1.4082,-1.3961,-1.3626,-1.2665,-1.1391,-0.9645,0.0,0.0,0.0,0.0,0.0,0.0,0.0,0.0,0.0,0.0,0.0,0.0,0.0,0.0,0.0,0.0,0.0,0.0,0.0,0.0,0.0,0.0,0.0,0.0,0.0,0.0,0.0,0.0,0.0,0.0,0.0,0.0,0.0,0.0,0.0,0.0,0.0,0.0,0.0,0.0,0.0,0.0,0.0,0.0,0.0,0.0,0.0,0.0,0.0,0.0,0.0,0.0,0.0,0.0,0.0,0.0,0.0,0.0,0.0,0.0,0.0,0.0,0.0,0.0,0.0,0.0,0.0,0.0,0.0,0.0,0.0,0.0,0.0,0.0,0.0,0.0,0.0,0.0,0.0,0.0,0.0,0.0,0.0,0.0,0.0,0.0,0.0,0.0,0.0,0.0,0.0,0.0,0.0,0.0,0.0,0.0,0.0,0.0,0.0,0.0,0.0,0.0,-1.0681,-1.1963,-1.3132,-1.4001,-1.4095,-1.3961,-1.3626,-1.1757,-1.0097,0.0,0.0,0.0,0.0,0.0,0.0,0.0,0.0,0.0,0.0,0.0,0.0,0.0,0.0,0.0,0.0,0.0,0.0,0.0,0.0,0.0,0.0,0.0,0.0,0.0,0.0,0.0,0.0,0.0,0.0,0.0,0.0,0.0,0.0,0.0,0.0,0.0,0.0,0.0,0.0,0.0,0.0,0.0,0.0,0.0,0.0,0.0,0.0,0.0,0.0,0.0,0.0,0.0,0.0,0.0,0.0,0.0,0.0,0.0,0.0,0.0,0.0,0.0,0.0,0.0,0.0,0.0,0.0,0.0,0.0,0.0,0.0,0.0,0.0,0.0,0.0,0.0,0.0,0.0,0.0,0.0,0.0,0.0,0.0,0.0,0.0,0.0,0.0,0.0,0.0,0.0,0.0,0.0,0.0,0.0,0.0,0.0,0.0,0.0,0.0,0.0,0.0,0.0,-1.1676,-1.2578,-1.3414,-1.4295,-1.4215,-1.3881,-1.3347,-1.2385,-1.0877,-0.8657,0.0,0.0,0.0,0.0,0.0,0.0,0.0,0.0,0.0,0.0,0.0,0.0,0.0,0.0,0.0,0.0,0.0,0.0,0.0,0.0,0.0,0.0,0.0,0.0,0.0,0.0,0.0,0.0,0.0,0.0,0.0,0.0,0.0,0.0,0.0,0.0,0.0,0.0,0.0,0.0,0.0,0.0,0.0,0.0,0.0,0.0,0.0,0.0,0.0,0.0,0.0,0.0,0.0,0.0,0.0,0.0,0.0,0.0,0.0,0.0,0.0,0.0,0.0,0.0,0.0,0.0,0.0,0.0,0.0,0.0,0.0,0.0,0.0,0.0,0.0,0.0,0.0,0.0,0.0,0.0,0.0,0.0,0.0,0.0,0.0,0.0,0.0,0.0,0.0,0.0,0.0,0.0,0.0,0.0,0.0,0.0,0.0,0.0,0.0,0.0,0.0,0.0,-1.2321,-1.3106,-1.3814,-1.4456,-1.4362,-1.3975,-1.3267,-1.2545,-1.1083,-0.8635,0.0,0.0,0.0,0.0,0.0,0.0,0.0,0.0,0.0,0.0,0.0,0.0,0.0,0.0,0.0,0.0,0.0,0.0,0.0,0.0,0.0,0.0,0.0,0.0,0.0,0.0,0.0,0.0,0.0,0.0,0.0,0.0,0.0,0.0,0.0,0.0,0.0,0.0,0.0,0.0,0.0,0.0,0.0,0.0,0.0,0.0,0.0,0.0,0.0,0.0,0.0,0.0,0.0,0.0,0.0,0.0,0.0,0.0,0.0,0.0,0.0,0.0,0.0,0.0,0.0,0.0,0.0,0.0,0.0,0.0,0.0,0.0,0.0,0.0,0.0,0.0,0.0,0.0,0.0,0.0,0.0,0.0,0.0,0.0,0.0,0.0,0.0,0.0,0.0,0.0,0.0,0.0,0.0,0.0,0.0,0.0,0.0,0.0,0.0,0.0,0.0,0.0,-1.2744,-1.3601,-1.4215,-1.4522,-1.4536,-1.4175,-1.332,-1.2377,-1.0939,-0.8769,0.0,0.0,0.0,0.0,0.0,0.0,0.0,0.0,0.0,0.0,0.0,0.0,0.0,0.0,0.0,0.0,0.0,0.0,0.0,0.0,0.0,0.0,0.0,0.0,0.0,0.0,0.0,0.0,0.0,0.0,0.0,0.0,0.0,0.0,0.0,0.0,0.0,0.0,0.0,0.0,0.0,0.0,0.0,0.0,0.0,0.0,0.0,0.0,0.0,0.0,0.0,0.0,0.0,0.0,0.0,0.0,0.0,0.0,0.0,0.0,-0.5121,0.0,0.0,0.0,0.0,0.0,0.0,0.0,0.0,0.0,0.0,0.0,0.0,0.0,0.0,0.0,0.0,0.0,0.0,0.0,0.0,0.0,0.0,0.0,0.0,0.0,0.0,0.0,0.0,0.0,0.0,0.0,0.0,0.0,0.0,0.0,0.0,0.0,0.0,0.0,0.0,0.0,-1.3307,-1.3828,-1.4282,-1.4861,-1.4656,-1.4213,-1.3573,-1.2193,-1.0687,-0.9093,-0.7573,0.0,0.0,0.0,0.0,0.0,0.0,0.0,0.0,0.0,0.0,0.0,0.0,0.0,0.0,0.0,0.0,0.0,0.0,0.0,0.0,0.0,0.0,0.0,0.0,0.0,0.0,0.0,0.0,0.0,0.0,0.0,0.0,0.0,0.0,0.0,0.0,0.0,0.0,0.0,0.0,0.0,0.0,0.0,0.0,0.0,0.0,0.0,0.0,0.0,0.0,0.0,0.0,0.0,0.0,0.0,0.0,0.0,0.0,0.0,0.0,-0.5736,0.0,0.0,0.0,0.0,0.0,0.0,0.0,0.0,0.0,0.0,0.0,0.0,0.0,0.0,0.0,0.0,0.0,0.0,0.0,0.0,0.0,0.0,0.0,0.0,0.0,0.0,0.0,0.0,0.0,0.0,0.0,0.0,0.0,0.0,0.0,0.0,0.0,0.0,0.0,0.0,-1.3866,-1.4322,-1.4683,-1.5124,-1.491,-1.4496,-1.3908,-1.2698,-1.1426,-1.0105,-0.8388,0.0,0.0,0.0,0.0,0.0,0.0,0.0,0.0,0.0,0.0,0.0,0.0,0.0,0.0,0.0,0.0,0.0,0.0,0.0,0.0,0.0,0.0,0.0,0.0,0.0,0.0,0.0,0.0,0.0,0.0,0.0,0.0,0.0,0.0,0.0,0.0,0.0,0.0,0.0,0.0,0.0,0.0,0.0,0.0,0.0,0.0,0.0,0.0,0.0,0.0,0.0,0.0,0.0,-0.7998,-0.8172,-0.7602,-0.972,-0.9968,-0.8707,-0.7753,-0.7431,-0.7669,-0.8162,0.0,0.0,0.0,0.0,0.0,0.0,0.0,0.0,0.0,0.0,0.0,0.0,0.0,0.0,0.0,0.0,0.0,0.0,0.0,0.0,0.0,0.0,0.0,0.0,-1.4416,-1.3794,0.0,0.0,0.0,0.0,0.0,0.0,0.0,0.0,0.0,0.0,0.0,0.0,-1.4389,-1.4816,-1.5156,-1.5297,-1.511,-1.4767,-1.4135,-1.324,-1.2209,-1.1152,-0.9418,-0.8069,0.0,0.0,0.0,0.0,0.0,0.0,0.0,0.0,0.0,0.0,0.0,0.0,0.0,0.0,0.0,0.0,0.0,0.0,0.0,0.0,0.0,0.0,0.0,0.0,0.0,0.0,0.0,0.0,0.0,0.0,0.0,0.0,-0.6944,-0.6416,0.0,0.0,0.0,0.0,0.0,0.0,0.0,0.0,0.0,0.0,0.0,0.0,0.0,-0.7458,-0.736,-0.7071,-0.765,-0.9071,-0.9043,-0.9643,-1.0852,-1.0918,-1.0983,-1.1077,-1.1013,0.0,-0.9816,-0.9867,0.0,0.0,0.0,0.0,0.0,0.0,0.0,0.0,0.0,0.0,0.0,0.0,0.0,0.0,0.0,0.0,0.0,0.0,0.0,0.0,0.0,0.0,-1.507,-1.4981,-1.4914,-1.4803,0.0,-1.3317,-1.2194,-1.1968,-1.1239,0.0,0.0,0.0,0.0,0.0,0.0,0.0,-1.4469,-1.5003,-1.5257,-1.5089,-1.5035,-1.4767,-1.4135,-1.2937,-1.1974,-1.1479,-1.011,-0.9175,-0.8836,-0.85,0.0,0.0,0.0,0.0,0.0,0.0,0.0,0.0,0.0,0.0,0.0,0.0,0.0,0.0,0.0,0.0,0.0,0.0,0.0,0.0,0.0,0.0,0.0,0.0,0.0,0.0,0.0,0.0,0.0,-0.7442,-0.7009,-0.677,-0.6871,-0.7062,0.0,0.0,0.0,0.0,0.0,0.0,0.0,0.0,0.0,-0.813,-0.7674,-0.7824,-0.8643,-0.8542,-0.9271,-1.0847,-1.1569,-1.1941,-1.2078,-1.3531,-1.3886,-1.3397,-1.4158,-1.4166,-1.3572,-1.2519,-1.2079,-1.2075,0.0,0.0,0.0,0.0,-1.2505,-1.2665,-1.2959,-1.3493,0.0,-1.3828,0.0,0.0,0.0,0.0,0.0,0.0,0.0,0.0,0.0,0.0,-1.5204,-1.5404,-1.5578,-1.5705,-1.5484,-1.5041,-1.4423,0.0,-1.3342,-1.3058,-1.2768,0.0,0.0,0.0,0.0,-1.4496,-1.495,-1.5231,-1.5404,-1.5444,-1.5164,-1.4901,-1.4646,-1.3467,-1.2628,-1.2465,-1.0964,-1.005,-0.9949,-0.9807,-0.9552,0.0,0.0,0.0,0.0,0.0,0.0,0.0,0.0,0.0,0.0,0.0,0.0,0.0,0.0,0.0,0.0,0.0,0.0,0.0,0.0,0.0,0.0,0.0,0.0,0.0,0.0,0.0,0.0,-0.7245,-0.6856,-0.697,-0.7085,-0.7258,0.0,0.0,0.0,0.0,0.0,0.0,-1.0837,-0.9681,-0.912,-0.9323,-0.8755,-0.9046,-1.0343,-1.0348,-1.1115,-1.2678,-1.3736,-1.4077,-1.3719,-1.577,-1.6225,-1.5466,-1.6325,-1.658,-1.6273,-1.4759,-1.4039,-1.3868,-1.3746,-1.344,-1.3026,-1.332,-1.348,-1.3601,-1.3919,-1.4386,-1.487,-1.4937,-1.4963,-1.4977,-1.5057,0.0,0.0,0.0,0.0,-1.4522,-1.5008,-1.529,-1.5524,-1.5952,-1.6219,-1.6326,-1.6099,-1.6233,-1.6086,0.0,-1.503,-1.5003,-1.4416,0.0,0.0,0.0,0.0,-1.499,-1.5351,-1.5458,-1.5538,-1.5605,-1.5217,-1.4941,-1.4794,-1.3935,-1.34,-1.332,-1.2069,-1.1354,-1.1279,-1.1279,-1.096,-1.0281,0.0,0.0,0.0,0.0,0.0,0.0,0.0,0.0,0.0,0.0,0.0,0.0,0.0,0.0,0.0,0.0,0.0,0.0,0.0,0.0,0.0,0.0,0.0,0.0,0.0,0.0,0.0,0.0,0.0,-0.6675,-0.7102,0.0,0.0,0.0,0.0,-0.8678,-0.9226,-0.9676,-1.0056,-1.1093,-1.1926,-1.235,-1.2214,-1.2268,-1.2618,-1.2639,-1.33,-1.4639,-1.4752,-1.5517,-1.6934,-1.6783,-1.686,-1.7063,-1.6834,-1.67,-1.6633,-1.5944,-1.5664,-1.5545,-1.4496,-1.4376,-1.4807,-1.4242,-1.4215,-1.4536,-1.511,-1.5511,-1.5805,-1.6099,-1.6228,-1.6134,-1.5538,-1.5164,0.0,0.0,-1.4683,-1.5337,-1.5364,-1.5992,-1.662,-1.666,-1.6673,-1.6687,-1.666,-1.6673,-1.65,0.0,-1.5731,-1.5605,-1.5062,0.0,-1.5458,-1.4599,-1.5185,-1.5671,-1.5431,-1.5631,-1.5605,-1.5115,-1.5022,-1.478,-1.4175,-1.4082,-1.3921,-1.36,-1.3492,-1.3346,-1.3081,-1.3068,-1.3187,-1.3358,-1.1928,0.0,0.0,0.0,0.0,0.0,0.0,0.0,0.0,0.0,0.0,0.0,0.0,0.0,0.0,0.0,0.0,0.0,0.0,0.0,0.0,0.0,0.0,0.0,0.0,0.0,0.0,0.0,0.0,-0.7353,-0.7645,0.0,-0.8117,-0.8722,-0.9112,-0.9195,-1.0649,-1.1482,-1.1442,-1.2102,-1.2542,-1.273,-1.2741,-1.3265,-1.4338,-1.4275,-1.4958,-1.6356,-1.6356,-1.6625,-1.7206,-1.7235,-1.7328,-1.7474,-1.7315,-1.7275,-1.7235,-1.6847,-1.646,-1.6072,-1.5658,-1.5511,-1.5524,-1.5498,-1.5565,-1.5712,-1.6099,-1.6299,-1.6406,-1.6513,-1.6553,-1.6513,-1.6299,-1.6166,-1.6046,-1.5832,-1.5992,-1.6246,-1.6246,-1.6473,-1.67,-1.67,-1.6847,-1.6941,-1.674,-1.686,-1.6874,-1.6473,-1.6246,-1.6046,-1.5893,-1.5818,-1.5658,-1.5164,-1.5511,-1.5678,-1.5431,-1.5645,-1.5752,-1.5551,-1.519,-1.4928,-1.4713,-1.4135,-1.372,-1.3613,-1.3427,-1.332,-1.3213,-1.3213,-1.3347,-1.36,-1.304,-1.2622,0.0,0.0,0.0,0.0,0.0,0.0,0.0,0.0,0.0,0.0,0.0,0.0,0.0,0.0,0.0,0.0,0.0,0.0,0.0,0.0,0.0,0.0,0.0,0.0,0.0,-0.7154,-0.7373,-0.7767,-0.7991,-0.8263,-0.8757,-0.9244,-0.9871,-1.0731,-1.1595,-1.2483,-1.338,-1.3569,-1.3663,-1.3663,-1.4234,-1.4785,-1.5281,-1.5648,-1.6392,-1.734,-1.734,-1.7407,-1.7462,-1.7649,-1.7796,-1.7889,-1.7782,-1.7742,-1.7716,-1.7474,-1.7112,-1.67,-1.65,-1.6299,-1.6152,-1.6353,-1.642,-1.646,-1.6754,-1.6914,-1.7007,-1.7007,-1.6941,-1.686,-1.686,-1.678,-1.67,-1.67,-1.678,-1.686,-1.686,-1.6927,-1.7007,-1.7007,-1.75,-1.7839,-1.715,-1.75,-1.7788,-1.7136,-1.6687,-1.6326,-1.6032,-1.5818,-1.5551,-1.5164,-1.5177,-1.5204,-1.511,-1.5351,-1.5498,-1.5345,-1.5217,-1.5115,-1.5022,-1.4242,-1.38,-1.3893,-1.3533,-1.3561,-1.4004,-1.3601,-1.3601,-1.4143,-1.3696,-1.34,-1.3239,0.0,0.0,0.0,0.0,0.0,0.0,0.0,0.0,0.0,0.0,0.0,0.0,0.0,0.0,0.0,0.0,0.0,0.0,0.0,0.0,0.0,0.0,0.0,-0.8073,-0.7981,-0.7821,-0.7841,-0.8119,-0.886,-1.0213,-0.9354,-0.9926,-1.3004,-1.199,-1.2612,-1.5678,-1.5564,-1.5435,-1.5435,-1.6842,-1.6948,-1.5488,-1.6895,-1.7595,-1.7582,-1.7595,-1.7756,-1.7995,-1.8009,-1.8223,-1.8477,-1.8129,-1.8009,-1.7982,-1.7742,-1.7609,-1.7542,-1.6954,-1.6727,-1.6727,-1.6727,-1.6727,-1.678,-1.7125,-1.742,-1.7595,-1.7595,-1.746,-1.7233,-1.7219,-1.6967,-1.6754,-1.6754,-1.6954,-1.7246,-1.7246,-1.7447,-1.7595,-1.7648,-1.867,-1.928,-1.795,-1.8722,-1.9242,-1.7845,-1.7141,-1.6473,-1.5591,-1.5431,-1.5231,-1.4643,-1.4365,0.0,-1.4566,-1.4905,-1.5003,-1.462,-1.5115,-1.533,-1.5035,-1.4442,-1.4242,-1.4522,-1.4001,-1.4323,-1.567,-1.4475,-1.428,-1.5343,-1.4013,-1.3574,-1.4095,0.0,0.0,0.0,0.0,0.0,0.0,0.0,0.0,0.0,0.0,0.0,0.0,0.0,0.0,0.0,0.0,0.0,0.0,0.0,0.0,0.0,-0.8809,-0.8555,-0.784,-0.7799,-0.8011,-0.8507,-0.8893,-0.9237,-0.963,-1.1321,-1.2376,-1.2217,-1.3775,-1.4589,-1.4316,-1.514,-1.565,-1.5747,-1.7137,-1.7701,-1.7311,-1.7701,-1.7809,-1.7582,-1.7809,-1.7916,-1.7995,-1.8263,-1.841,-1.849,-1.841,-1.837,-1.8357,-1.8277,-1.8116,-1.7822,-1.7488,-1.7341,-1.7341,-1.7341,-1.7341,-1.7382,-1.7689,-1.7849,-1.7862,-1.7862,-1.7862,-1.7756,-1.7528,-1.7569,-1.7622,-1.7622,-1.7889,-1.8116,-1.8116,-1.8023,-1.8131,-1.9155,-1.9493,-1.9598,-1.9415,-1.9685,-1.9579,-1.8184,-1.7742,-1.7395,-1.65,-1.6166,-1.5899,-1.5478,-1.6172,0.0,-1.6824,-1.7659,-1.781,-1.6579,-1.6839,-1.6515,-1.5138,-1.5003,-1.4977,-1.4843,-1.5531,-1.6109,-1.6485,-1.6966,-1.6947,-1.6407,-1.5782,-1.5092,0.0,0.0,0.0,0.0,0.0,0.0,0.0,0.0,0.0,0.0,0.0,0.0,0.0,0.0,0.0,0.0,0.0,0.0,0.0,0.0,0.0,0.0,-0.9078,-0.8785,-0.9026,-0.9127,-0.9138,-0.9023,-0.9859,-1.064,-1.1208,-1.2993,-1.4302,-1.477,-1.4531,-1.4525,-1.4839,-1.491,-1.4966,-1.5077,-1.7102,-1.783,-1.7143,-1.7711,-1.7889,-1.7582,-1.7903,-1.8062,-1.8237,-1.8544,-1.8744,-1.8851,-1.8731,-1.8677,-1.8664,-1.8544,-1.8384,0.0,0.0,0.0,0.0,0.0,-1.7582,-1.7622,-1.7889,-1.7902,-1.7876,-1.7955,-1.7995,-1.7955,-1.7836,-1.7983,-1.8332,-1.8958,-1.9163,-1.9313,-1.9949,-1.9808,-1.9799,-2.0777,-2.1315,-2.1509,-2.1301,-2.157,-2.1474,-2.0083,-1.9661,0.0,-1.872,-1.7793,-1.7204,-1.735,-1.7841,-1.82,-1.8155,-1.8913,-1.8999,-1.7916,-1.8206,-1.8026,-1.6965,-1.6321,0.0,0.0,0.0,-1.682,-1.738,-1.8473,0.0,0.0,0.0,-1.6157,-1.624,0.0,0.0,0.0,-1.5494,-1.5879,0.0,0.0,0.0,0.0,0.0,0.0,0.0,0.0,0.0,0.0,0.0,0.0,0.0,0.0,0.0,0.0,-0.9371,-0.8943,-1.1125,-1.1461,-1.0984,-0.9695,-1.1044,-1.2581,-1.3841,-1.4415,-1.5814,-1.8503,-1.4877,-1.3703,-1.6402,0.0,0.0,0.0,0.0,-1.7789,-1.6234,-1.7438,-1.7943,-1.7635,-1.7889,-1.8237,-1.8504,-1.8824,-1.9118,-1.9359,-1.9092,-1.8971,-1.8958,-1.8691,-1.8544,-1.8464,-1.8102,-1.7822,-1.7635,-1.7635,-1.7649,-1.7729,-1.7982,0.0,0.0,-1.8212,-1.8347,-1.8347,-1.8523,-1.8782,-1.9333,-2.0575,-2.0688,-2.0757,-2.2074,-2.2107,-2.1959,-2.2513,-2.3547,-2.4166,-2.3317,-2.3774,-2.4028,-2.2651,-2.2057,-2.176,-2.1578,-1.9909,-1.8863,-1.9547,-1.9529,-1.935,-1.922,-1.9597,-1.9665,-1.9073,0.0,0.0,-1.9542,-1.8045,-1.7175,-1.7251,-1.6887,-1.7281,-1.8692,-1.965,-1.9529,-1.8114,-1.7029,-1.7207,-1.8712,-1.7739,-1.8144,-1.9691,-1.8473,-1.8828,0.0,0.0,0.0,0.0,0.0,0.0,0.0,0.0,0.0,0.0,0.0,0.0,0.0,0.0,0.0,-1.2597,-1.2327,-1.2303,-1.3345,-1.3554,-1.3049,-1.1645,-1.2989,-1.4183,-1.4409,-1.5686,-1.6716,-1.7312,-1.654,-1.6204,-1.6643,-1.6241,-1.6035,-1.6149,-1.7906,-1.8642,-1.8337,-1.8406,-1.825,-1.7902,0.0,0.0,-1.8504,-1.9038,-1.9319,-1.9417,-1.9305,-1.9279,-1.9279,-1.9225,-1.8918,-1.8464,-1.8102,-1.7955,-1.7902,-1.7902,-1.8103,-1.8357,-1.8651,-1.8718,-1.8832,-2.007,-2.0527,-2.0688,-2.1663,-2.2199,0.0,-2.2349,-2.243,-2.2646,-2.2917,-2.2761,-2.2881,-2.4439,-2.4824,-2.4765,-2.4472,-2.4843,-2.4703,-2.2964,-2.2584,-2.2785,-2.354,-2.1977,-2.0605,-2.0559,-2.1334,-2.1903,-2.1856,-2.2778,-2.2895,-2.1626,-2.171,-2.1264,-1.9774,-1.9445,-1.8798,-1.7687,-1.8405,-1.9853,-2.2044,-2.2366,-2.1876,-2.0614,-2.0351,-1.9935,-1.9327,-2.0073,-2.0606,-2.0926,-1.9692,-1.9864,0.0,0.0,0.0,0.0,0.0,0.0,0.0,0.0,0.0,0.0,0.0,-1.2102,-1.177,0.0,-1.1822,-1.3941,-1.3216,-1.3089,-1.5058,-1.5445,-1.5014,-1.3485,-1.4765,-1.5784,-1.5784,-1.7267,-1.8227,-1.8227,-1.7443,-1.6961,-1.6832,-1.6774,-1.6774,-1.682,-1.8372,-1.9078,-1.8918,-1.8637,-1.8424,-1.8277,-1.8424,-1.8571,-1.8718,-1.9172,-1.943,-1.943,-1.943,-1.943,-1.943,-1.943,-1.9105,-1.8691,-1.8544,-1.8249,-1.8009,-1.821,-1.8357,-1.8642,-1.9626,-1.9906,-2.007,-2.1695,-2.2237,-2.237,-2.2954,-2.3386,-2.369,-2.4267,-2.436,-2.4485,-2.5255,-2.5127,-2.5138,-2.6296,-2.645,-2.6409,-2.6511,-2.6548,-2.6281,-2.5374,-2.5017,-2.5027,-2.5563,-2.4601,-2.3655,-2.3305,-2.3751,-2.4078,-2.39,-2.4352,-2.4384,-2.3388,-2.3335,-2.2973,-2.1844,-2.1046,-2.0275,-1.9559,-2.0087,-2.1212,-2.3038,-2.3101,-2.2818,-2.2208,-2.1614,-2.1302,-2.132,-2.1302,-2.1614,-2.2164,-2.1587,-2.1632,0.0,0.0,0.0,0.0,0.0,0.0,0.0,-1.2478,-1.2707,-1.2897,-1.3352,-1.3549,-1.302,-1.2552,-1.2982,-1.535,-1.3983,-1.369,-1.6667,-1.7007,-1.6598,-1.5553,-1.6645,-1.7443,-1.7443,-1.8648,-1.943,-1.943,-1.8227,-1.7443,-1.7443,-1.7443,-1.7443,-1.7443,-1.8706,-1.9252,-1.9011,-1.8718,-1.8571,-1.8571,-1.8571,-1.8691,-1.8931,-1.9225,-1.943,-1.943,-1.943,-1.943,-1.943,-1.943,-1.9199,-1.8931,-1.8985,-1.8845,-1.8659,-1.8906,-1.9042,-1.9334,-2.1052,-2.1499,-2.1604,-2.3348,-2.3938,-2.3993,-2.4264,-2.4487,-2.4931,-2.6064,-2.6133,-2.6106,-2.7395,-2.7402,-2.7246,-2.7695,-2.7845,-2.7851,-2.8125,-2.7969,-2.7806,-2.7728,-2.7383,-2.7148,-2.7148,-2.6797,-2.6367,-2.5869,-2.5752,-2.5557,-2.5254,-2.5195,-2.5059,-2.4707,-2.459,-2.4375,-2.3945,-2.2385,-2.1544,-2.1786,-2.1472,-2.1854,-2.3057,-2.3101,-2.3101,-2.3101,-2.2164,-2.212,-2.3101,-2.2213,-2.2295,-2.3218,-2.3315,-2.3257,-1.0301,-1.0007,-1.006,-1.0808,-1.1169,-1.177,0.0,-1.3868,-1.3789,-1.3422,-1.3811,-1.4184,-1.4123,-1.4477,-1.5407,-1.7396,-1.6527,-1.6431,-1.8764,-1.791,-1.7358,-1.83,-1.8853,-1.9127,-1.9127,-1.9301,-1.943,-1.943,-1.9243,-1.9127,-1.9127,-1.9127,-1.9127,-1.9127,-1.9301,-1.9359,-1.9319,-1.9025,-1.8878,-1.8878,-1.8878,-1.8891,-1.8931,-1.9225,-1.943,-1.943,-1.943,-1.943,-1.943,-1.943,-1.9199,-1.8945,-1.9212,-1.9933,-2.0766,-2.0866,-2.1059,-2.1481,-2.2975,-2.3461,-2.3706,-2.53,-2.581,-2.6028,-2.7327,-2.7741,-2.7776,-2.7569,-2.7486,-2.7499,-2.7656,-2.7689,-2.7748,-2.8125,-2.8223,-2.8125,-2.7812,-2.7988,-2.8105,-2.7787,-2.7669,-2.7598,-2.7598,-2.7226,-2.6797,-2.6387,-2.5996,-2.5674,-2.5615,-2.5615,-2.5596,-2.5538,-2.5234,-2.4824,-2.4375,-2.2833,-2.2363,-2.3442,-2.2147,-2.1854,-2.3057,-2.3101,-2.3101,-2.3101,-2.295,-2.295,-2.3101,-2.3382,-2.3576,-2.373,-2.4102,-2.3822,-1.1698,-1.0908,-1.0445,-1.1923,-1.2043,-1.2311,-1.4177,-1.4856,-1.508,-1.5102,-1.5575,-1.601,-1.6008,-1.5707,-1.6108,-1.8005,-1.7167,-1.696,-1.8836,-1.8518,-1.8166,-1.8353,-1.8677,-1.8931,-1.9092,-1.9265,-1.943,-1.943,-1.943,-1.943,-1.943,-1.943,-1.943,-1.943,-1.943,-1.943,-1.943,-1.9078,-1.9011,-1.9185,-1.8998,-1.9011,-1.9185,-1.9319,-1.943,-1.943,-1.943,-1.943,-1.943,-1.943,-1.9292,-1.9199,-1.9377,-1.9683,-2.0231,-2.1109,-2.203,-2.3095,-2.4599,-2.5168,-2.5406,-2.6898,-2.7384,-2.7511,-2.8121,-2.8301,-2.8262,-2.8086,-2.8027,-2.8027,-2.8027,-2.8027,-2.8066,-2.8262,-2.8301,-2.8242,-2.8066,-2.8164,-2.8242,-2.8066,-2.8027,-2.8027,-2.8027,-2.7676,-2.7344,-2.7168,-2.6758,-2.6387,-2.6152,-2.6113,-2.6113,-2.6113,-2.5723,-2.5391,-2.5148,-2.4066,-2.3496,-2.3809,-2.3376,-2.3095,-2.312,-2.3379,-2.3398,-2.3101,-2.3101,-2.3101,-2.3101,-2.3574,-2.3789,-2.3809,-2.4219,-2.4173,-1.1797,-1.0873,-1.0335,-1.2406,-1.2705,-1.2969,-1.4904,-1.5778,-1.6259,-1.6522,-1.6911,-1.7206,-1.7206,-1.6582,-1.6596,-1.8125,-1.7634,-1.7484,-1.8735,-1.8851,-1.8584,-1.7929,-1.8116,-1.8317,-1.8531,-1.8971,-1.9279,-1.9417,-1.943,-1.943,-1.943,-1.943,-1.943,-1.943,-1.943,-1.943,-1.943,-1.9158,-1.9158,-1.9417,-1.9145,-1.9158,-1.943,-1.943,-1.943,-1.943,-1.943,-1.943,-1.943,-1.943,-1.943,-1.943,-1.943,-1.9649,-2.0199,-2.1643,-2.287,-2.41,-2.6045,-2.6735,-2.6862,-2.796,-2.8301,-2.8301,-2.8301,-2.8379,-2.8437,-2.832,-2.8379,-2.8437,-2.832,-2.8301,-2.8301,-2.8301,-2.8301,-2.8301,-2.8301,-2.8301,-2.8301,-2.8301,-2.8301,-2.8301,-2.8301,-2.8047,-2.7885,-2.7885,-2.7578,-2.7168,-2.6621,-2.6562,-2.6562,-2.6562,-2.6289,-2.5986,-2.5869,-2.5215,-2.459,-2.416,-2.4316,-2.4141,-2.3471,-2.3789,-2.3809,-2.3452,-2.3452,-2.3452,-2.3452,-2.3926,-2.4141,-2.416,-2.459,-2.4785,-0.9502,-0.902,-0.9057,-1.1521,-1.2752,-1.3872,-1.5796,-1.6737,-1.7166,-1.7166,-1.7192,-1.7206,-1.7206,-1.7168,-1.7368,-1.7929,-1.8235,-1.8542,-1.8878,-1.8677,-1.8277,-1.7662,-1.7609,-1.7609,-1.7622,-1.8424,-1.9052,-1.9403,-1.943,-1.943,-1.943,-1.943,-1.943,-1.943,-1.943,-1.943,-1.943,-1.9417,-1.9417,-1.943,-1.9417,-1.9417,-1.943,-1.943,-1.943,-1.943,-1.943,-1.943,-1.943,-1.943,-1.943,-1.943,-1.943,-2.0256,-2.1699,-2.3207,-2.3766,-2.4211,-2.7222,-2.8228,-2.8228,-2.8301,-2.8301,-2.8301,-2.8301,-2.8574,-2.8809,-2.8398,-2.8594,-2.8809,-2.8398,-2.8301,-2.8301,-2.8301,-2.8301,-2.8301,-2.8301,-2.8301,-2.8301,-2.8301,-2.8301,-2.8301,-2.8301,-2.8281,-2.8281,-2.8281,-2.8262,-2.7949,-2.7109,-2.6992,-2.6992,-2.6992,-2.6992,-2.6816,-2.6406,-2.5957,-2.5508,-2.5106,-2.4648,-2.4414,-2.4375,-2.4394,-2.4394,-2.4375,-2.4375,-2.4375,-2.4375,-2.4805,-2.5067,-2.5086,-2.5488,-2.5654,-0.928,-0.8922,-0.9201,-1.2204,-1.3036,-1.3796,-1.634,-1.7206,-1.7434,-1.7246,-1.6687,-1.6273,-1.6273,-1.5792,-1.5792,-1.6954,-1.7408,-1.7769,-1.8222,-1.8597,-1.833,-1.7141,-1.7528,-1.7729,-1.738,-1.8103,-1.8758,-1.9052,-1.9439,-1.9573,-1.943,-1.9733,-1.976,-1.943,-1.9559,-1.9559,-1.943,-1.943,-1.943,-1.943,-1.943,-1.943,-1.943,-1.943,-1.943,-1.943,-1.943,-1.943,-1.943,-1.943,-1.9982,-2.0859,-2.0859,-2.1756,-2.3263,-2.4765,-2.5316,-2.5608,-2.7618,-2.8301,-2.8301,-2.8301,-2.8476,-2.8711,-2.8711,-2.9004,-2.9316,-2.918,-2.9238,-2.9316,-2.918,-2.9141,-2.9141,-2.9141,-2.8926,-2.8711,-2.8711,-2.8711,-2.8711,-2.8711,-2.8711,-2.8711,-2.8711,-2.8476,-2.8301,-2.8301,-2.8047,-2.7826,-2.748,-2.7441,-2.7441,-2.7441,-2.7441,-2.7383,-2.7246,-2.6836,-2.6289,-2.5566,-2.5644,-2.5332,-2.4453,-2.4687,-2.4707,-2.4414,-2.4414,-2.4414,-2.4414,-2.4863,-2.5106,-2.5125,-2.582,-2.6172,-0.9488,-0.9365,-0.9763,-1.3165,-1.3937,-1.4399,-1.6678,-1.734,-1.7313,-1.6697,-1.5992,-1.5458,-1.5244,-1.4576,-1.4563,-1.6139,-1.6473,-1.6874,-1.7849,-1.8183,-1.7969,-1.7114,-1.7435,-1.7622,-1.738,-1.8023,-1.8611,-1.8905,-1.9372,-1.9613,-1.9533,-1.988,-1.996,-1.9679,-1.976,-1.9706,-1.9519,-1.947,-1.943,-1.943,-1.943,-1.9426,-1.9519,-1.9412,-1.9426,-1.9519,-1.947,-1.943,-1.943,-1.943,-2.0256,-2.1586,-2.1586,-2.2476,-2.4005,-2.5712,-2.6227,-2.6318,-2.778,-2.8301,-2.8301,-2.8301,-2.8574,-2.8926,-2.8926,-2.9336,-2.9766,-2.9665,-2.9668,-2.9766,-2.9665,-2.9626,-2.9626,-2.9626,-2.9355,-2.9141,-2.9141,-2.9141,-2.9141,-2.9141,-2.9141,-2.9141,-2.9141,-2.8926,-2.8691,-2.8535,-2.8281,-2.8066,-2.791,-2.7891,-2.7891,-2.7891,-2.7891,-2.7885,-2.7728,-2.7402,-2.6875,-2.6035,-2.6367,-2.6172,-2.5156,-2.5391,-2.541,-2.5117,-2.4961,-2.4836,-2.4883,-2.5332,-2.5547,-2.5595,-2.6269,-2.6602,-0.9904,-1.025,-1.0811,-1.4333,-1.5215,-1.5527,-1.6884,-1.7152,-1.679,-1.5605,-1.5084,-1.47,-1.4095,-1.3534,-1.3734,-1.5498,-1.5605,-1.6072,-1.7769,-1.7609,-1.7407,-1.7582,-1.746,-1.7407,-1.7609,-1.8196,-1.8677,-1.8945,-1.9239,-1.9533,-1.9813,-1.9853,-1.9987,-2.0167,-1.9987,-1.9826,-1.98,-1.9506,-1.943,-1.943,-1.943,-1.9578,-1.9905,-1.9609,-1.9695,-2.001,-1.9668,-1.9533,-1.9591,-1.9533,-2.0429,-2.1813,-2.1813,-2.2717,-2.4278,-2.6125,-2.659,-2.65,-2.7818,-2.832,-2.8301,-2.832,-2.8613,-2.8945,-2.8984,-2.957,-3.0156,-2.9746,-2.9922,-3.0137,-2.9746,-2.9704,-2.9704,-2.9704,-2.9685,-2.9609,-2.9609,-2.9609,-2.9609,-2.9609,-2.9609,-2.959,-2.957,-2.9626,-2.9434,-2.9004,-2.8945,-2.8789,-2.834,-2.8301,-2.8301,-2.8301,-2.8301,-2.8125,-2.7787,-2.7748,-2.7395,-2.6504,-2.6836,-2.6855,-2.6445,-2.6426,-2.6426,-2.6426,-2.5996,-2.5732,-2.5732,-2.6191,-2.6387,-2.6406,-2.6836,-2.7051,-0.9985,-1.113,-1.2679,-1.4706,-1.5099,-1.5411,-1.6884,-1.6522,-1.5698,-1.5223,-1.3961,-1.2933,-1.2786,-1.2639,-1.312,-1.4897,-1.5858,-1.6847,-1.8183,-1.8624,-1.8584,-1.7942,-1.8437,-1.872,-1.829,-1.8998,-1.9492,-1.9573,-1.984,-2.004,-2.012,-2.0535,-2.0615,-2.018,-2.0374,-2.0241,-1.98,-1.9506,-1.943,-1.943,-1.943,-2.0192,-2.1598,-2.1234,-2.188,-2.3205,-2.1678,-2.1643,-2.2605,-2.1472,-2.2589,-2.4931,-2.4931,-2.6061,-2.7638,-2.8136,-2.8492,-2.8737,-2.8758,-2.8555,-2.834,-2.8652,-2.9043,-2.9453,-2.9785,-3.0273,-3.0684,-3.0586,-3.0625,-3.0684,-3.0586,-3.0547,-3.0547,-3.0547,-3.0293,-3.0039,-3.0039,-3.0039,-3.0039,-3.0039,-3.0039,-2.9941,-2.9685,-2.9626,-2.9531,-2.9414,-2.9394,-2.9141,-2.8398,-2.8301,-2.8301,-2.8301,-2.8301,-2.8242,-2.8144,-2.8125,-2.791,-2.7383,-2.7441,-2.7305,-2.6875,-2.6855,-2.6855,-2.6855,-2.6445,-2.623,-2.623,-2.6328,-2.6387,-2.6406,-2.7148,-2.75,-1.2221,-1.334,-1.4585,-1.5931,-1.6133,-1.6023,-1.6351,-1.5812,-1.4897,-1.3869,-1.2851,-1.2104,-1.2104,-1.1997,-1.2585,-1.4673,-1.5404,-1.6339,-1.8036,-1.845,-1.8544,-1.8382,-1.8985,-1.9296,-1.8905,-1.9546,-2.004,-2.0174,-2.0214,-2.0294,-2.0414,-2.0735,-2.0828,-2.0628,-2.0655,-2.0401,-1.9813,-1.9639,-1.9829,-2.0371,-2.0556,-2.1583,-2.3367,-2.3179,-2.3713,-2.4639,0.0,-2.3239,-2.371,-2.2927,-2.3989,-2.61,-2.61,-2.7249,-2.8945,-2.9141,-2.9355,-2.957,-2.9492,-2.9199,-2.8867,-2.8906,-2.9336,-2.9883,-3.0117,-3.0527,-3.0898,-3.0898,-3.0898,-3.0898,-3.0898,-3.0898,-3.0898,-3.0898,-3.0703,-3.0508,-3.0508,-3.0508,-3.0508,-3.0508,-3.0508,-3.043,-3.0195,-3.0156,-3.0078,-2.9883,-2.9844,-2.9609,-2.8945,-2.8848,-2.8848,-2.8848,-2.8848,-2.8769,-2.8574,-2.8574,-2.832,-2.7767,-2.7885,-2.7754,-2.7324,-2.7305,-2.7305,-2.7305,-2.6875,-2.666,-2.666,-2.6855,-2.6953,-2.6973,-2.7637,-2.793,-1.5182,-1.5916,-1.6417,-1.7437,-1.7368,-1.6831,-1.5605,-1.5017,-1.4204,-1.2194,-1.1752,-1.1739,-1.1779,-1.1637,-1.2305,-1.4687,-1.483,-1.5484,-1.7756,-1.7862,-1.8009,-1.8824,-1.9252,-1.9479,-1.9479,-2.0,-2.0454,-2.0722,-2.0494,-2.0454,-2.0722,-2.0735,-2.0855,-2.1096,-2.0828,-2.055,-2.0205,-2.0123,-2.0768,-2.2063,-2.2348,-2.3468,-2.5327,-2.5393,-2.5451,-2.5584,-2.5007,-2.4637,-2.4445,-2.4228,-2.4986,-2.6372,-2.6372,-2.745,-2.9043,-2.9434,-2.9648,-2.9785,-3.0098,-3.0,-2.9668,-2.9238,-2.959,-3.0215,-3.0273,-3.0566,-3.0898,-3.0898,-3.0898,-3.0898,-3.0898,-3.0898,-3.0898,-3.0898,-3.0898,-3.0898,-3.0898,-3.0898,-3.0898,-3.0898,-3.0898,-3.0898,-3.0898,-3.0898,-3.0762,-3.0351,-3.0293,-3.0156,-2.9785,-2.9648,-2.9626,-2.9626,-2.9626,-2.9414,-2.9043,-2.9004,-2.8672,-2.7943,-2.8184,-2.8184,-2.7826,-2.7806,-2.7806,-2.7806,-2.7324,-2.7109,-2.7109,-2.748,-2.7728,-2.7728,-2.8164,-2.8379,-1.5862,-1.678,-1.7698,-1.7875,-1.7368,-1.6473,-1.5357,-1.4242,-1.3066,-1.1476,-1.0988,-1.0894,-1.1136,-1.169,-1.2852,-1.4977,-1.5484,-1.6259,-1.8143,-1.8357,-1.8477,-1.8878,-1.9613,-2.008,-2.008,-2.0615,-2.0975,-2.1029,-2.0989,-2.0975,-2.1029,-2.1029,-2.1056,-2.1109,-2.0828,-2.1293,-2.2493,-2.195,-2.2577,-2.4482,-2.4253,-2.529,-2.7432,-2.7093,-2.776,-2.9146,-2.7191,0.0,-2.7876,-2.6354,-2.6608,-2.7906,-2.7906,-2.8552,-2.9473,-2.9607,-3.0039,-3.0625,-3.0312,-3.041,-3.0586,-3.0137,-3.0078,-3.0273,-3.0644,-3.082,-3.0898,-3.0898,-3.0898,-3.0898,-3.0898,-3.0898,-3.0898,-3.0898,-3.0898,-3.0898,-3.0898,-3.0898,-3.0898,-3.0898,-3.0898,-3.0898,-3.0898,-3.0898,-3.0859,-3.0781,-3.0762,-3.0742,-3.0664,-3.0019,-2.9626,-2.9626,-2.9626,-2.9607,-2.9473,-2.9453,-2.9238,-2.873,-2.8769,-2.8633,-2.8203,-2.8184,-2.8184,-2.8184,-2.7773,-2.7559,-2.7559,-2.7689,-2.7728,-2.7728,-2.8457,-2.8809,-1.6696,-1.7473,-1.8196,-1.7889,-1.7248,-1.6273,-1.4643,-1.3601,-1.2505,-1.0875,-1.0421,-1.0514,-1.1102,-1.169,-1.2599,-1.4215,-1.4736,-1.5538,-1.7315,-1.7689,-1.8076,-1.8838,-1.9693,-2.0167,-2.0167,-2.0762,-2.1109,-2.1109,-2.1109,-2.1109,-2.1109,-2.1109,-2.1475,-2.2341,-2.2262,-2.2877,-2.4319,-2.4032,-2.4678,-2.6244,-2.6319,-2.728,-2.9144,-2.9163,-2.9527,-3.0119,-2.9012,-2.8649,-2.8871,-2.8193,-2.8189,-2.8613,-2.8613,-2.9141,-2.9863,-2.9704,-3.0137,-3.0859,-3.0644,-3.0703,-3.0859,-3.0625,-3.0547,-3.0605,-3.082,-3.0898,-3.0898,-3.0898,-3.0898,-3.0898,-3.0898,-3.0898,-3.0898,-3.0898,-3.0898,-3.0898,-3.0898,-3.0898,-3.0898,-3.0898,-3.0898,-3.0898,-3.0898,-3.0898,-3.0898,-3.0898,-3.0898,-3.0898,-3.0898,-3.0527,-3.0254,-3.0254,-3.0254,-3.0156,-2.9922,-2.9902,-2.9707,-2.9277,-2.9258,-2.9062,-2.8633,-2.8613,-2.8516,-2.8301,-2.8086,-2.8105,-2.832,-2.832,-2.8437,-2.8726,-2.9062,-2.9258,-1.7554,-1.7996,-1.8424,-1.7756,-1.7141,-1.6139,-1.3919,-1.3039,-1.2154,-1.0221,-0.995,-1.031,-1.1102,-1.1476,-1.2104,-1.3387,-1.3734,-1.4442,-1.6259,-1.6834,-1.7475,-1.8597,-1.9567,-2.0167,-2.0167,-2.0762,-2.1109,-2.1109,-2.1411,-2.1475,-2.1109,-2.1411,-2.2215,-2.3574,-2.3931,-2.4775,-2.6092,-2.6084,-2.6772,-2.8081,-2.8321,-2.9124,-3.0351,-3.0723,-3.0703,-3.0332,-3.0234,-2.9805,0.0,-2.9473,-2.9375,-2.9062,-2.9062,-2.9531,-3.0156,-2.9824,-3.0215,-3.0898,-3.0898,-3.0898,-3.0898,-3.0898,-3.0898,-3.0898,-3.0898,-3.0898,-3.0898,-3.0898,-3.0898,-3.0898,-3.0898,-3.0898,-3.0898,-3.0898,-3.0898,-3.0898,-3.0898,-3.0898,-3.0898,-3.0898,-3.0898,-3.0918,-3.1016,-3.1035,-3.1035,-3.1035,-3.1113,-3.1133,-3.1035,-3.1113,-3.1133,-3.1035,-3.0937,-3.0742,-3.0371,-3.0351,-3.0156,-2.9726,-2.9707,-2.9512,-2.9082,-2.8965,-2.8769,-2.8437,-2.8437,-2.8594,-2.8926,-2.9004,-2.9238,-2.9626,-2.9668,-2.9707,-1.8156,-1.8624,-1.8677,-1.7796,-1.7141,-1.6032,-1.344,-1.2585,-1.169,-0.9406,-0.9566,-1.0221,-1.0613,-1.0908,-1.1637,-1.332,-1.3213,-1.3615,-1.5618,-1.6393,-1.7088,-1.7969,-1.9314,-2.0167,-2.0167,-2.0762,-2.1109,-2.1109,-2.2529,-2.2716,-2.1172,-2.2529,-2.345,-2.3574,-2.5024,-2.6513,-2.8116,-2.7776,-2.8597,-3.0587,-3.0199,-3.0295,-3.082,-3.0879,-3.0859,-3.0801,-3.0391,-3.0156,0.0,-2.9707,-2.9551,-2.9567,-2.9567,-2.9785,-3.0195,-3.0156,-3.0449,-3.0898,-3.0898,-3.0898,-3.0898,-3.0898,-3.0898,-3.0898,-3.0898,-3.0898,-3.0898,-3.0898,-3.0898,-3.0898,-3.0898,-3.0898,-3.0898,-3.0898,-3.0898,-3.0898,-3.0898,-3.0898,-3.0898,-3.0898,-3.0898,-3.1016,-3.1387,-3.1465,-3.1465,-3.1465,-3.1797,-3.1914,-3.1504,-3.1797,-3.1894,-3.1504,-3.1113,-3.0879,-3.084,-3.082,-3.0625,-3.0176,-3.0137,-2.9941,-2.9531,-2.9141,-2.8906,-2.8867,-2.8867,-2.8887,-2.8926,-2.9316,-2.9587,-2.9646,-2.9961,-3.0137,-1.674,-1.7756,-1.849,-1.7769,-1.7141,-1.6019,-1.3414,-1.2532,-1.1744,-0.974,-0.9619,-0.9993,-1.0506,-1.0927,-1.1625,-1.2956,-1.2935,-1.3459,-1.5558,-1.5746,-1.6586,-1.9098,-2.0172,-2.1351,-2.2868,-2.252,-2.2329,-2.2577,-2.4116,-2.4778,-2.4101,-2.4655,-2.5497,-2.6486,-2.7134,-2.823,-2.9903,-2.9732,-3.0102,-3.0898,-3.0703,-3.0703,-3.0898,-3.0898,-3.0898,-3.0879,-3.0703,-3.0449,0.0,-3.0312,-3.0195,-2.9941,-2.9941,-3.0215,-3.0586,-3.0293,-3.0488,-3.0898,-3.0898,-3.0898,-3.0898,-3.0898,-3.0898,-3.0898,-3.0898,-3.0898,-3.0898,-3.0898,-3.0898,-3.0898,-3.0898,-3.0898,-3.0957,-3.1211,-3.1269,-3.1348,-3.1601,-3.166,-3.166,-3.166,-3.166,-3.1719,-3.1875,-3.1914,-3.1914,-3.1914,-3.2051,-3.2109,-3.1934,-3.207,-3.2109,-3.1934,-3.1523,-3.1172,-3.0918,-3.0898,-3.082,-3.0625,-3.0605,-3.041,-2.9961,-2.9785,-2.957,-2.9316,-2.9316,-2.9434,-2.9687,-2.9863,-3.0098,-3.0371,-3.0547,-3.0605,-1.5524,-1.6874,-1.7969,-1.7448,-1.682,-1.5698,-1.3347,-1.2331,-1.149,-1.0023,-0.9753,-0.994,-1.0385,-1.0807,-1.1487,0.0,-1.2815,-1.3413,-1.5268,-1.5749,-1.6624,-1.8525,-1.9994,-2.1447,-2.2861,-2.3095,-2.3442,-2.4271,-2.5802,-2.6712,-2.6712,-2.7194,-2.7751,-2.8367,-2.8842,-2.9651,-3.0684,-3.082,-3.082,-3.0684,-3.082,-3.0898,-3.0898,-3.0898,-3.0898,-3.0898,-3.0898,-3.0703,0.0,-3.0762,-3.0703,-3.041,-3.041,-3.0605,-3.0859,-3.0527,-3.0605,-3.0898,-3.0898,-3.0898,-3.0898,-3.0898,-3.0898,-3.0898,-3.0898,-3.0898,-3.0898,-3.0898,-3.0976,-3.1074,-3.1074,-3.1172,-3.1348,-3.1641,-3.1719,-3.1797,-3.2109,-3.2229,-3.2229,-3.2229,-3.2229,-3.2268,-3.2344,-3.2363,-3.2363,-3.2363,-3.2461,-3.25,-3.2363,-3.2461,-3.25,-3.2363,-3.207,-3.168,-3.1133,-3.1074,-3.1016,-3.0898,-3.0898,-3.0742,-3.041,-3.0273,-3.0059,-2.9766,-2.9766,-2.9902,-3.0195,-3.0332,-3.0566,-3.0898,-3.0898,-3.0898,-1.5003,-1.6308,-1.7139,-1.6794,-1.6059,-1.4937,-1.3186,-1.1873,-1.0755,-0.9889,-0.9913,-1.0114,-1.0083,-1.0385,-1.1095,-1.2643,-1.2916,-1.3299,-1.4445,-1.6651,-1.7399,-1.529,-1.821,-1.9897,-1.8686,-2.1608,-2.424,-2.5863,-2.7452,-2.8367,-2.8367,-2.9962,-3.0079,-2.8426,-3.002,-3.0664,-3.0215,-3.0664,-3.0664,-3.0215,-3.0664,-3.0898,-3.0898,-3.0898,-3.0898,-3.0898,-3.0898,-3.0898,0.0,-3.0898,-3.0898,-3.0879,-3.0879,-3.0879,-3.0898,-3.0879,-3.0879,-3.0898,-3.0898,-3.0898,-3.0898,-3.0898,-3.0898,-3.0898,-3.0898,-3.0898,-3.0898,-3.0898,-3.1191,-3.1504,-3.1504,-3.1836,-3.2209,-3.2168,-3.2168,-3.2168,-3.2229,-3.2229,-3.2229,-3.2229,-3.2229,-3.2305,-3.2715,-3.2793,-3.2793,-3.2793,-3.3144,-3.3262,-3.2832,-3.3144,-3.3242,-3.2832,-3.2793,-3.2441,-3.1582,-3.1504,-3.1328,-3.0918,-3.0898,-3.0898,-3.0879,-3.0449,-3.0195,-3.0195,-3.0195,-3.0195,-3.0195,-3.0664,-3.0879,-3.0898,-3.0898,-3.0898,-1.2999,-1.4001,-1.4736,-1.4585,-1.4255,-1.3547,-1.2158,-1.1557,-1.1035,-1.0167,-1.0047,-1.018,-1.0412,-1.1266,-1.238,-1.3639,-1.4246,-1.5036,-1.6383,-1.7663,-1.8918,-2.0054,-2.4071,-2.5787,-2.3378,-2.6464,-2.7889,-2.6106,-2.8545,-3.0079,-3.0079,-3.0587,-3.0645,-3.0138,-3.0645,-3.082,-3.0664,-3.082,-3.082,-3.0664,-3.082,-3.0898,-3.0898,-3.0898,-3.0898,-3.0898,-3.0898,-3.0898,0.0,-3.0898,-3.0898,-3.0898,-3.0898,-3.0898,-3.0898,-3.0898,-3.0898,-3.0898,-3.0898,-3.0898,-3.0898,-3.0898,-3.0898,-3.0898,-3.0898,-3.0898,-3.0957,-3.123,-3.1406,-3.1582,-3.1894,-3.207,-3.2246,-3.2519,-3.2598,-3.2676,-3.2969,-3.3027,-3.3027,-3.3027,-3.3027,-3.3066,-3.3203,-3.3223,-3.3223,-3.3223,-3.334,-3.3476,-3.3652,-3.3789,-3.3809,-3.3691,-3.3672,-3.3086,-3.1641,-3.1523,-3.1348,-3.0918,-3.0898,-3.0898,-3.0898,-3.0762,-3.0664,-3.0664,-3.0664,-3.0664,-3.0664,-3.082,-3.0898,-3.0898,-3.0898,-3.0898,-1.1637,-1.2465,-1.3158,-1.3884,-1.3396,-1.258,-1.2144,-1.1533,-1.104,-1.0784,-1.072,-1.0821,-1.1003,-1.1981,-1.3033,-1.3912,-1.4813,-1.5716,-1.6759,-1.8305,-2.0189,-2.2518,-2.5391,-2.6829,-2.5986,-2.821,-2.9186,-2.7931,-2.9726,-3.0898,-3.0898,-3.0898,-3.0898,-3.0898,-3.0898,-3.0801,-3.0625,-3.0801,-3.0801,-3.0625,-3.0801,-3.0898,-3.0898,-3.0898,-3.0898,-3.0898,-3.0898,0.0,0.0,-3.0898,-3.0898,-3.0898,-3.0898,-3.0898,-3.0898,-3.0898,-3.0898,-3.0898,-3.0898,-3.0898,-3.0898,-3.0898,-3.1286,-3.1594,-3.1054,-3.0996,-3.1191,-3.1445,-3.1758,-3.207,-3.2344,-3.2519,-3.2715,-3.2969,-3.3027,-3.3144,-3.3574,-3.3672,-3.3711,-3.3867,-3.3769,-3.3672,-3.3672,-3.3535,-3.3476,-3.3633,-3.4203,-3.4552,-3.4367,-3.4923,-3.5051,-3.4381,-3.416,-3.3574,-3.2344,-3.209,-3.1816,-3.1406,-3.1211,-3.1133,-3.1133,-3.0976,-3.0898,-3.0898,-3.0898,-3.0898,-3.0898,-3.0898,-3.0898,-3.0898,-3.0898,-3.0898,0.0,-1.149,-1.2172,-1.4171,-1.3182,-1.199,-1.2808,-1.1774,0.0,-1.1562,-1.1764,-1.181,-1.1825,-1.252,-1.3233,-1.3678,-1.4801,-1.5692,-1.5975,-1.8803,-2.1445,-2.312,-2.3444,-2.4421,-2.6679,-2.7567,-2.8713,-3.0568,-3.082,-3.0898,-3.0898,-3.0898,-3.0898,-3.0898,-3.0898,-3.0684,-3.0254,-3.0684,-3.0664,-3.0254,-3.0684,-3.0898,-3.0898,-3.0898,-3.0898,0.0,-3.0898,0.0,0.0,-3.0995,-3.0995,-3.0898,-3.0995,-3.0995,-3.0898,-3.0898,-3.0937,-3.1054,-3.0937,-3.0937,-3.1054,-3.1054,-3.192,-3.2758,-3.1596,-3.1427,-3.1623,-3.1543,-3.2209,-3.2979,-3.2894,-3.3187,-3.3544,-3.3457,-3.3476,-3.3594,-3.4023,-3.4121,-3.4238,-3.4629,-3.4394,-3.4121,-3.4121,-3.3897,-3.3823,-3.4236,-3.5828,-3.6477,-3.5256,-3.6442,-3.6742,-3.5119,-3.4459,-3.3984,-3.3555,-3.3066,-3.2617,-3.2268,-3.1758,-3.1523,-3.1523,-3.1113,-3.0898,-3.0898,-3.0898,-3.0918,-3.0976,-3.0918,-3.0918,-3.0976,-3.0957,-3.0957,-0.9913,0.0,-1.02,-1.175,-1.1323,-1.0803,0.0,-1.1326,-1.0649,-1.0839,-1.1375,-1.1885,-1.2204,-1.3159,-1.4157,-1.4942,-1.583,-1.6587,-1.701,-2.0508,-2.3672,-2.543,-2.7055,-2.7582,-2.6279,-2.8276,-2.9354,-2.8578,-3.0025,-3.0898,-3.0898,-3.0898,-3.0898,-3.0898,-3.0898,-3.084,-3.0723,-3.084,-3.084,-3.0723,-3.084,-3.0898,-3.0898,-3.0898,-3.0898,-3.0898,-3.0898,0.0,-3.0995,-3.2092,-3.194,-3.0995,-3.215,-3.1883,-3.0898,-3.0898,-3.1594,-3.2416,-3.1267,-3.1652,-3.2587,-3.2587,-3.2035,-3.1828,-3.4183,-3.4068,-3.3039,-3.2255,-3.3316,-3.439,-3.3497,-3.424,-3.5004,-3.4147,-3.3926,-3.4043,-3.4453,-3.4551,-3.459,-3.4687,-3.4609,-3.4551,-3.4551,-3.5578,-3.6411,-3.6515,-3.8032,-3.9122,-3.9124,-3.8295,-3.7607,-3.7174,-3.589,-3.4902,-3.4434,-3.3418,-3.2617,-3.2268,-3.1758,-3.1523,-3.1523,-3.1113,-3.0898,-3.0898,-3.0898,-3.1211,-3.1875,-3.1211,-3.123,-3.1855,-3.1523,-3.1543,-0.9813,-0.9883,-1.0064,-1.1242,-1.109,-1.0834,-1.1628,-1.117,-1.0807,-1.1545,-1.2058,-1.2537,-1.3132,-1.4038,-1.4833,-1.5182,-1.6381,-1.7779,-1.9238,-2.2129,-2.457,-2.5937,-2.7793,-2.8539,-2.7414,-2.9028,-2.9833,-2.8952,-3.0142,-3.0898,-3.0898,-3.0898,-3.0898,-3.0898,-3.0898,-3.0898,-3.0898,-3.0898,-3.0898,-3.0898,-3.0898,-3.0898,-3.0898,-3.0898,-3.0898,-3.0898,-3.0898,0.0,-3.0995,-3.2473,-3.2644,-3.2035,-3.3529,-3.3191,-3.1977,-3.2664,-3.2985,-3.3077,-3.2985,-3.3417,-3.4168,-3.4385,-3.4393,-3.4536,-3.6038,-3.6498,-3.6206,-3.5011,-3.5572,-3.6458,-3.5764,-3.6465,-3.7108,-3.6519,-3.6562,-3.6897,-3.7294,-3.7334,-3.7397,-3.767,-3.7545,-3.7334,-3.7334,-3.821,-3.8888,-3.9105,-4.0846,-4.1942,-4.1617,-4.1427,-4.0626,-3.8819,-3.7575,-3.6449,-3.5125,-3.4004,-3.3281,-3.3129,-3.2441,-3.2109,-3.2109,-3.1699,-3.1484,-3.1484,-3.1484,-3.1699,-3.2229,-3.1699,-3.1719,-3.2168,-3.1934,-3.1953,-1.0208,-1.0724,-1.1189,-1.1902,-1.1828,-1.1661,-1.2074,-1.1531,-1.1358,-1.2734,-1.31,-1.3454,-1.4326,-1.5147,-1.5688,-1.5599,-1.7202,-1.9414,-2.2012,-2.373,-2.5019,-2.5791,-2.7383,-2.8496,-2.8789,-2.9609,-3.0137,-3.0195,-3.0625,-3.0898,-3.0898,-3.0898,-3.0898,-3.0898,-3.082,-3.0781,-3.0781,-3.0859,-3.082,-3.0684,-3.082,-3.0859,-3.0781,-3.0859,-3.0898,-3.0898,0.0,0.0,-3.1325,-3.2815,-3.3473,-3.3564,-3.5068,-3.4736,-3.3586,-3.4847,-3.4626,-3.3957,-3.5323,-3.5576,-3.5433,-3.6296,-3.7211,-3.7919,-3.7755,-3.8694,-3.9604,-3.8701,-3.8498,-3.8543,-3.8373,-3.883,-3.9349,-3.9264,-3.9623,-4.0113,-4.0505,-4.0617,-4.0729,-4.1091,-4.0908,-4.0639,-4.0706,-4.1022,-4.1433,-4.1847,-4.3796,-4.4817,-4.3732,-4.4672,-4.4119,-4.0668,-3.9486,-3.8092,-3.6189,-3.4962,-3.4387,-3.4645,-3.3529,-3.2773,-3.2695,-3.2363,-3.2268,-3.2266,-3.2207,-3.2226,-3.2363,-3.2226,-3.2226,-3.2363,-3.2285,-3.2305,-1.0997,-1.2282,-1.3293,-1.3327,-1.3025,-1.2926,-1.3657,-1.3205,-1.2704,-1.2948,-1.3554,-1.4398,-1.5577,-1.6514,-1.7428,-1.8453,-1.9808,-2.1641,-2.4264,-2.5449,-2.6269,-2.6758,-2.8008,-2.8711,-2.8418,-2.916,-2.9805,-3.0176,-3.0625,-3.0898,-3.0898,-3.0898,-3.0898,-3.0898,-3.0508,-3.0293,-3.0293,-3.0703,-3.0508,-2.9785,-3.0527,-3.0684,-3.0312,-3.0703,-3.0898,-3.0898,0.0,-3.1594,-3.2871,-3.4348,-3.4958,-3.5123,-3.6595,-3.6271,-3.5013,-3.5233,-3.5945,-3.6911,-3.7574,-3.6749,-3.5666,-3.7909,-3.7655,-3.7048,-4.0373,-4.0738,-4.0266,-4.1766,-4.1233,-4.0048,-3.91,-3.9919,-4.0914,-4.0366,-4.0325,-4.0527,-4.1021,-4.1069,-4.1091,-4.1158,-4.1114,-4.1267,-4.1671,-4.2985,-4.4191,-4.4688,-4.628,-4.7346,-4.717,-4.6109,-4.5165,-4.4554,-4.1353,-3.9164,-3.8833,-3.6583,-3.5818,-3.7263,-3.4455,-3.2637,-3.2346,-3.2207,-3.2344,-3.2695,-3.2344,-3.2519,-3.3223,-3.2519,-3.2539,-3.3223,-3.2871,-3.2891,-1.1424,-1.2375,-1.3396,-1.4655,-1.4647,-1.4209,-1.367,-1.3434,-1.3445,-1.3908,-1.4324,-1.5086,-1.6812,-1.7653,-1.8789,-2.1016,-2.2461,-2.3887,-2.5547,-2.6328,-2.6894,-2.7324,-2.8086,-2.8496,-2.832,-2.9062,-2.9704,-2.9844,-3.0273,-3.0625,-3.0879,-3.0644,-3.0508,-3.0508,-3.0098,-2.9746,-2.9512,-2.9941,-3.0078,-2.9922,-3.0312,-3.0527,-3.0586,-3.0801,-3.0898,-3.0937,0.0,-3.2473,-3.3304,-3.5563,-3.6487,-3.6649,-3.8137,-3.7796,-3.6487,-3.6487,-3.7423,-3.8761,-3.93,-3.8897,-3.8419,-4.019,-4.0165,-3.9816,-4.2002,-4.2196,-4.1829,-4.2718,-4.2655,-4.2217,-4.1739,-4.2597,-4.3535,-4.3276,-4.3644,-4.4123,-4.4362,-4.4625,-4.4816,-4.4816,-4.4816,-4.4888,-4.5151,-4.61,-4.6963,-4.7209,-4.8167,-4.8812,-4.8812,-4.8149,-4.7231,-4.5988,-4.4206,-4.2082,-3.9601,-3.8925,-3.8141,-3.7212,-3.6538,-3.6091,-3.5879,-3.4984,-3.4716,-3.5206,-3.412,-3.373,-3.4121,-3.4685,-3.5124,-3.5511,-3.6289,-3.6535,-1.1922,-1.2565,-1.3484,-1.5342,-1.5723,-1.5464,-1.4772,-1.4783,-1.5188,-1.6075,-1.6137,-1.6632,-1.843,-1.9319,-2.0586,-2.3003,-2.4609,-2.5859,-2.6836,-2.7168,-2.7519,-2.81,-2.8223,-2.8379,-2.8574,-2.9101,-2.9453,-2.957,-2.9961,-3.0312,-3.0566,-3.0332,-3.0156,-3.0059,-2.9648,-2.9258,-2.8926,-2.9258,-2.959,-2.9902,-3.0098,-3.0391,-3.0742,-3.084,-3.1112,-3.1498,-3.2587,-3.3508,-3.4292,-3.6595,-3.769,-3.8137,-3.9258,-3.9025,-3.8031,-3.8031,-3.8813,-3.9973,-4.0526,-4.0701,-4.0902,-4.2037,-4.2313,-4.2313,-4.2811,-4.2986,-4.3011,-4.3137,-4.3564,-4.3991,-4.3991,-4.4744,-4.5547,-4.5799,-4.6527,-4.7093,-4.728,-4.7631,-4.7908,-4.7908,-4.7908,-4.7983,-4.8259,-4.8661,-4.9063,-4.9314,-4.9715,-4.9992,-4.9992,-4.9992,-4.9287,-4.7368,-4.6717,-4.4681,-4.0358,-4.128,-4.0923,-3.8174,-3.8758,-3.9181,-3.9181,-3.7603,-3.6855,-3.7297,-3.6014,-3.5321,-3.5321,-3.7168,-3.8102,-3.8102,-3.9463,-3.9842,-1.2761,-1.3791,-1.4699,-1.4844,-1.5459,-1.6655,-1.8899,-1.9134,-1.9131,-2.0002,-1.9847,-1.9847,-2.08,-2.2324,-2.3613,-2.4219,-2.5762,-2.7305,-2.8555,-2.8418,-2.8516,-2.9336,-2.875,-2.8613,-2.945,-2.916,-2.9141,-2.9607,-2.9961,-3.0039,-2.9687,-3.0,-3.0019,-2.9629,-2.9199,-2.8945,-2.8926,-2.8945,-2.8984,-2.9023,-2.9824,-3.0215,-3.0254,-3.0703,-3.1652,-3.2964,-3.3077,-3.4659,-3.7186,-3.74,-3.8295,-3.9517,-3.9645,-3.9645,-3.9517,-3.9517,-3.9919,-4.0526,-4.105,-4.1225,-4.1401,-4.2559,-4.264,-4.2313,-4.2811,-4.2986,-4.3087,-4.3589,-4.4141,-4.4568,-4.4568,-4.502,-4.5748,-4.6778,-4.7018,-4.7255,-4.7732,-4.7883,-4.7908,-4.7908,-4.7908,-4.8234,-4.9289,-4.9515,-4.9891,-5.0946,-5.1147,-5.1172,-5.1172,-5.1172,-5.088,-5.0147,-4.8172,-4.554,-4.2098,-4.3386,-4.3805,-4.2532,-4.0808,-3.982,-3.982,-3.8202,-3.7276,-3.7318,-3.7191,-3.7127,-3.7127,-3.9374,-4.0478,-4.0478,-4.0603,-4.0643,-1.2909,-1.405,-1.5371,-1.6222,-1.7031,-1.7773,-1.8242,-1.9238,-2.0214,-2.0546,-2.0879,-2.1406,-2.2223,-2.3613,-2.4871,-2.5527,-2.6641,-2.7773,-2.8769,-2.8789,-2.8809,-2.9121,-2.8867,-2.8711,-2.8769,-2.8633,-2.8711,-2.9141,-2.9316,-2.9453,-2.957,-2.9473,-2.9336,-2.916,-2.875,-2.8535,-2.8535,-2.8789,-2.9062,-2.9336,-2.9922,-3.0351,-3.0644,-3.082,-3.1228,-3.1825,-3.3698,-3.5123,-3.6271,-3.8084,-3.9181,-3.9697,-3.9697,-3.9697,-3.9697,-3.9697,-4.0049,-4.0601,-4.11,-4.1555,-4.1982,-4.2735,-4.2836,-4.2766,-4.2911,-4.3212,-4.3539,-4.374,-4.4468,-4.5171,-4.5171,-4.5573,-4.6175,-4.6892,-4.738,-4.7782,-4.8309,-4.8711,-4.9063,-4.9389,-4.9464,-4.9715,-5.0494,-5.0645,-5.0795,-5.1222,-5.1272,-5.1272,-5.1272,-5.1272,-5.1046,-5.0469,-4.8084,-4.6436,-4.6271,-4.5502,-4.5333,-4.597,-4.4366,-4.3409,-4.3409,-4.2001,-4.1291,-4.1291,-4.0593,-4.0233,-4.0233,-4.0991,-4.1559,-4.1916,-4.265,-4.3019,-1.2715,-1.4023,-1.5625,-1.6543,-1.791,-1.8968,-1.8848,-1.9979,-2.1212,-2.1897,-2.2503,-2.2988,-2.3281,-2.4297,-2.5262,-2.5684,-2.6836,-2.7871,-2.8437,-2.8633,-2.8711,-2.8711,-2.8711,-2.8613,-2.832,-2.8301,-2.8418,-2.8691,-2.8848,-2.8984,-2.916,-2.9004,-2.8848,-2.873,-2.8437,-2.8301,-2.8301,-2.8848,-2.9277,-2.9626,-3.0156,-3.0586,-3.0898,-3.0898,-3.1383,-3.2379,-3.4425,-3.5836,-3.6834,-3.8868,-3.9697,-3.9697,-3.9697,-3.9697,-3.9697,-3.9697,-4.0049,-4.0601,-4.11,-4.1706,-4.2313,-4.2866,-4.2986,-4.3011,-4.3187,-4.3514,-4.389,-4.4242,-4.4895,-4.5573,-4.5924,-4.6276,-4.6702,-4.7255,-4.7782,-4.8385,-4.9138,-4.959,-5.0017,-5.0594,-5.0695,-5.087,-5.1448,-5.1548,-5.1599,-5.1774,-5.18,-5.18,-5.18,-5.18,-5.1574,-5.1021,-4.9059,-4.8248,-4.9225,-4.7863,-4.7341,-4.8121,-4.7129,-4.6451,-4.625,-4.4997,-4.4206,-4.4206,-4.3455,-4.3059,-4.3059,-4.3739,-4.3928,-4.3659,-4.4513,-4.4887,-1.234,-1.3782,-1.543,-1.5449,-1.7695,-2.0273,-2.1582,-2.1894,-2.25,-2.4656,-2.5106,-2.4851,-2.3945,-2.4492,-2.4922,-2.4492,-2.625,-2.7708,-2.7728,-2.8027,-2.8301,-2.8301,-2.8301,-2.8301,-2.8301,-2.8301,-2.8301,-2.8301,-2.8672,-2.873,-2.832,-2.8691,-2.8711,-2.8301,-2.8301,-2.8301,-2.8301,-2.9141,-2.9626,-2.9646,-3.0469,-3.0879,-3.0898,-3.0898,-3.2493,-3.5288,-3.5288,-3.6942,-3.9697,-3.9697,-3.9697,-3.9697,-3.9697,-3.9697,-3.9697,-3.9697,-4.0049,-4.0601,-4.11,-4.1706,-4.2313,-4.2866,-4.2986,-4.3087,-4.3639,-4.3815,-4.4041,-4.5171,-4.5497,-4.5748,-4.6792,-4.7093,-4.728,-4.7782,-4.836,-4.9063,-5.0167,-5.0419,-5.0594,-5.1172,-5.1297,-5.1473,-5.2026,-5.2126,-5.2302,-5.2854,-5.2929,-5.2929,-5.2929,-5.2929,-5.2703,-5.2176,-5.1599,-5.1046,-5.0469,-5.0419,-4.9967,-4.8862,-4.8786,-4.8535,-4.7933,-4.6324,-4.5405,-4.5405,-4.5405,-4.5405,-4.5405,-4.77,-4.7844,-4.6019,-4.6019,-4.6019,-1.3139,-1.4922,-1.6934,-1.7506,-1.9241,-2.1073,-2.209,-2.2324,-2.2676,-2.3906,-2.4902,-2.5273,-2.4394,-2.4941,-2.5488,-2.5323,-2.6387,-2.7324,-2.7669,-2.8027,-2.8301,-2.8301,-2.8301,-2.8301,-2.8301,-2.8301,-2.8301,-2.8301,-2.8398,-2.8418,-2.8301,-2.8418,-2.8418,-2.8301,-2.8301,-2.8301,-2.8301,-2.8848,-2.9258,-2.9626,-3.0137,-3.0566,-3.0898,-3.0898,-3.194,-3.3789,-3.4847,-3.6379,-3.8243,-3.9258,-3.9697,-3.9697,-3.9697,-3.9697,-3.9697,-3.9697,-4.03,-4.1075,-4.1225,-4.1957,-4.276,-4.2936,-4.3237,-4.3589,-4.374,-4.4367,-4.507,-4.5397,-4.605,-4.6728,-4.6993,-4.7707,-4.8335,-4.8485,-4.8661,-4.9063,-5.0167,-5.0419,-5.0695,-5.1674,-5.185,-5.2026,-5.2578,-5.2678,-5.2729,-5.2904,-5.2929,-5.2929,-5.2929,-5.2578,-5.2277,-5.2126,-5.1599,-5.1222,-5.1046,-5.1021,-5.0896,-5.0569,-5.0544,-4.9741,-4.7983,-4.7843,-4.759,-4.7194,-4.7566,-4.7788,-4.7788,-4.7483,-4.7329,-4.7155,-4.6775,-4.6798,-1.3646,-1.5664,-1.7871,-1.8851,-2.0547,-2.2087,-2.2594,-2.3257,-2.3984,-2.4687,-2.5449,-2.584,-2.5293,-2.5352,-2.5527,-2.5654,-2.6309,-2.6914,-2.7344,-2.7773,-2.8047,-2.8047,-2.8047,-2.7969,-2.7793,-2.7793,-2.7851,-2.8027,-2.7891,-2.7851,-2.8027,-2.8047,-2.8047,-2.8047,-2.8203,-2.8301,-2.8301,-2.8711,-2.9043,-2.9316,-2.9746,-3.0362,-3.1187,-3.1606,-3.2587,-3.4069,-3.6162,-3.753,-3.8453,-3.9362,-3.9697,-3.9697,-3.9697,-3.9697,-3.9722,-3.9948,-4.045,-4.1025,-4.1505,-4.2108,-4.2766,-4.3162,-4.3539,-4.389,-4.4342,-4.4945,-4.5573,-4.6024,-4.6627,-4.7168,-4.7682,-4.8284,-4.8837,-4.9038,-4.9264,-4.9741,-5.0845,-5.1096,-5.1348,-5.2251,-5.2427,-5.2528,-5.2879,-5.2929,-5.2929,-5.2929,-5.2929,-5.2929,-5.2929,-5.2628,-5.2427,-5.2427,-5.2126,-5.1925,-5.1925,-5.1925,-5.185,-5.1624,-5.1599,-5.0896,-4.9314,-4.959,-4.9615,-4.9264,-4.959,-4.9766,-4.9766,-4.8969,-4.8396,-4.7984,-4.7651,-4.7579,-1.3919,-1.5966,-1.8242,-1.9668,-2.1619,-2.3237,-2.3315,-2.4582,-2.5859,-2.6055,-2.6289,-2.6406,-2.6289,-2.5684,-2.5312,-2.5635,-2.6094,-2.6523,-2.6914,-2.7324,-2.7669,-2.7669,-2.7669,-2.7461,-2.7051,-2.7012,-2.7187,-2.7578,-2.7246,-2.7187,-2.763,-2.7669,-2.7669,-2.7669,-2.8008,-2.8242,-2.8242,-2.8652,-2.8941,-2.909,-2.9538,-3.0434,-3.1822,-3.265,-3.3914,-3.5672,-3.8477,-3.9697,-3.9697,-3.9697,-3.9697,-3.9697,-3.9697,-3.9697,-3.9747,-4.03,-4.0551,-4.0752,-4.1835,-4.2263,-4.2514,-4.3463,-4.3865,-4.4141,-4.5171,-4.5573,-4.5849,-4.6853,-4.7143,-4.7531,-4.856,-4.8887,-4.9063,-4.969,-5.0117,-5.072,-5.185,-5.2101,-5.2277,-5.2829,-5.2929,-5.2929,-5.2929,-5.2929,-5.2929,-5.2929,-5.2929,-5.2929,-5.2929,-5.2929,-5.2929,-5.2929,-5.2929,-5.2929,-5.2929,-5.2929,-5.2703,-5.2201,-5.2176,-5.195,-5.1448,-5.1322,-5.1272,-5.1272,-5.1272,-5.1272,-5.1272,-5.1322,-5.0493,-4.8831,-4.8831,-4.8567,-1.4238,-1.5801,-1.7603,-2.0255,-2.2516,-2.4316,-2.4972,-2.5742,-2.5781,-2.418,-2.5469,-2.6562,-2.5547,-2.581,-2.6016,-2.5732,-2.6094,-2.6426,-2.6504,-2.6894,-2.7148,-2.7148,-2.7148,-2.7109,-2.7031,-2.7012,-2.7051,-2.7148,-2.707,-2.7051,-2.7148,-2.7148,-2.7148,-2.7148,-2.7578,-2.7865,-2.7865,-2.8223,-2.9166,0.0,-3.0644,-3.155,-3.3175,-3.2754,-3.4197,-3.7133,-3.8921,-3.9697,-3.9697,-3.9697,-3.9697,-3.9697,-3.9697,-3.9697,-3.9747,-4.03,-4.0802,-4.1254,-4.1932,-4.2766,-4.3489,-4.3714,-4.4392,-4.5171,-4.5422,-4.61,-4.6828,-4.7079,-4.7757,-4.8586,-4.9238,-4.9741,-5.0318,-5.1322,-5.0971,-5.072,-5.185,-5.2101,-5.2277,-5.2829,-5.2929,-5.2929,-5.2929,-5.2929,-5.2929,-5.2929,-5.2929,-5.2929,-5.2929,-5.2929,-5.2929,-5.2929,-5.2929,-5.2929,-5.2929,-5.2929,-5.2879,-5.2754,-5.2754,-5.2703,-5.2578,-5.1749,-5.1272,-5.1272,-5.1272,-5.1272,-5.1272,-5.1724,-5.1722,-5.1333,-5.1333,-5.1284,-1.4258,-1.6035,-1.813,-2.1602,-2.3301,-2.4297,-2.4914,-2.5449,-2.5371,-2.4023,-2.5332,-2.6445,-2.5547,-2.5762,-2.5996,-2.5732,-2.5937,-2.6152,-2.6367,-2.6582,-2.6719,-2.6719,-2.6719,-2.6621,-2.6426,-2.6356,-2.6484,-2.6699,-2.6719,-2.6719,-2.6719,-2.6914,-2.7168,-2.7582,-2.8259,-2.8603,-2.8551,-2.9632,-3.0381,-3.0685,-3.1291,-3.262,-3.4354,-3.4102,-3.5525,-3.8191,-3.8963,-3.9446,-3.9697,-3.9697,-3.9697,-3.9697,-3.9697,-3.9848,-4.0149,-4.0701,-4.1254,-4.1856,-4.266,-4.3313,-4.389,-4.4443,-4.502,-4.5547,-4.5799,-4.6476,-4.7118,-4.7431,-4.8309,-4.9289,-4.9841,-5.0419,-5.1046,-5.19,-5.1649,-5.1473,-5.2327,-5.2503,-5.2578,-5.2879,-5.2929,-5.2929,-5.2929,-5.2929,-5.2929,-5.2929,-5.2929,-5.2929,-5.2929,-5.2929,-5.2929,-5.2929,-5.2929,-5.2929,-5.2929,-5.2929,-5.2929,-5.2929,-5.2929,-5.2929,-5.2929,-5.2377,-5.2076,-5.2076,-5.2076,-5.2076,-5.2076,-5.2352,-5.2503,-5.2503,-5.2503,-5.2352,-1.3932,-1.625,-1.8965,-2.2461,-2.3516,-2.3789,-2.4219,-2.4648,-2.4863,-2.4492,-2.541,-2.6133,-2.5703,-2.5635,-2.5693,-2.5693,-2.5693,-2.5859,-2.623,-2.6211,-2.6152,-2.6152,-2.6094,-2.5937,-2.5644,-2.5625,-2.5801,-2.625,-2.6348,-2.6348,-2.6289,-2.668,-2.7282,-2.807,-2.9048,-2.961,-2.9762,-3.1438,-3.1876,-3.103,-3.2381,-3.386,-3.54,-3.5757,-3.6941,-3.8718,-3.8718,-3.9044,-3.9546,-3.9546,-3.9622,-3.9697,-3.9697,-4.0023,-4.0576,-4.1075,-4.1681,-4.2363,-4.3313,-4.379,-4.4091,-4.5045,-4.5522,-4.5849,-4.6301,-4.6903,-4.7531,-4.8058,-4.8937,-4.9891,-5.0544,-5.1071,-5.1548,-5.2126,-5.2251,-5.2377,-5.2829,-5.2929,-5.2929,-5.2929,-5.2929,-5.2929,-5.2929,-5.2929,-5.2929,-5.2929,-5.2929,-5.2929,-5.2929,-5.2929,-5.2929,-5.2929,-5.2929,-5.2929,-5.2929,-5.2929,-5.2929,-5.2929,-5.2929,-5.2929,-5.2929,-5.2929,-5.2929,-5.2929,-5.2929,-5.2929,-5.2929,-5.2929,-5.2929,-5.2929,-5.2929,-5.2678,-1.2778,-1.5781,-1.9007,-2.1034,-2.2422,-2.3403,-2.3769,-2.4199,-2.4492,-2.4434,-2.5109,-2.5684,-2.5234,-2.5469,-2.5693,-2.5693,-2.5693,-2.5713,-2.5771,-2.5488,-2.5302,-2.5302,-2.4902,-2.4805,-2.5137,-2.5156,-2.5352,-2.5752,-2.6172,-2.623,-2.5791,-2.623,-2.6843,-2.7657,-2.8614,-2.9621,-3.0696,-3.1783,-3.2833,-3.3871,-3.521,-3.5978,-3.6268,-3.6295,-3.6991,-3.8115,-3.8115,-3.8442,-3.902,-3.902,-3.927,-3.9697,-3.9697,-4.0023,-4.0576,-4.1075,-4.1681,-4.2313,-4.2861,-4.3714,-4.4543,-4.4694,-4.5723,-4.6928,-4.6943,-4.7732,-4.8661,-4.9213,-4.9816,-5.0544,-5.1599,-5.1925,-5.2126,-5.2678,-5.2829,-5.2829,-5.2904,-5.2929,-5.2929,-5.2929,-5.2929,-5.2929,-5.2929,-5.2929,-5.2929,-5.2929,-5.2929,-5.2929,-5.2929,-5.2929,-5.2929,-5.2929,-5.2929,-5.2929,-5.2929,-5.2929,-5.2929,-5.2929,-5.2929,-5.2929,-5.2929,-5.2929,-5.2929,-5.2929,-5.2929,-5.2929,-5.2929,-5.2929,-5.2929,-5.2929,-5.2929,-5.2879,-1.3482,-1.5723,-1.8013,-1.9962,-2.1484,-2.2601,-2.2988,-2.3594,-2.4004,-2.375,-2.4348,-2.4941,-2.4746,-2.5059,-2.5273,-2.4992,-2.5195,-2.5273,-2.5039,-2.4824,-2.4707,-2.4707,-2.4531,-2.459,-2.5067,-2.5106,-2.5254,-2.5654,-2.6133,-2.6191,-2.5713,-2.6152,-2.7085,-2.8563,-2.931,-3.0415,-3.1876,-3.3338,-3.4559,-3.5523,-3.6121,-3.6405,-3.6405,-3.6405,-3.6832,-3.7563,-3.7864,-3.8341,-3.8944,-3.9195,-3.9471,-3.9697,-3.9697,-4.0224,-4.0949,-4.12,-4.1882,-4.2791,-4.3614,-4.4217,-4.4769,-4.5723,-4.6466,-4.7179,-4.7481,-4.8335,-4.9289,-4.9515,-5.0444,-5.1473,-5.1975,-5.2327,-5.2628,-5.2879,-5.2929,-5.2929,-5.2929,-5.2929,-5.2929,-5.2929,-5.2929,-5.303,-5.3306,-5.3356,-5.3356,-5.3356,-5.3356,-5.3256,-5.2955,-5.2929,-5.2929,-5.2929,-5.2929,-5.3055,-5.3331,-5.308,-5.3055,-5.3331,-5.308,-5.2929,-5.2929,-5.3206,-5.3356,-5.3356,-5.308,-5.2929,-5.2929,-5.2929,-5.2929,-5.2929,-5.2929,-5.2929,-1.3835,-1.5176,-1.6531,-1.8594,-2.0098,-2.125,-2.2012,-2.2773,-2.3281,-2.312,-2.3608,-2.4082,-2.4082,-2.4531,-2.4805,-2.4473,-2.4687,-2.4785,-2.4473,-2.4316,-2.4258,-2.4258,-2.416,-2.4258,-2.4707,-2.4844,-2.5098,-2.5527,-2.6074,-2.6191,-2.5713,-2.6577,-2.78,-2.9326,-3.0373,-3.1577,-3.2971,-3.4672,-3.5708,-3.6157,-3.6355,-3.6405,-3.6405,-3.6405,-3.6631,-3.7059,-3.7563,-3.8115,-3.8693,-3.9245,-3.9647,-3.9898,-3.9898,-4.0576,-4.1555,-4.1555,-4.2158,-4.3112,-4.4091,-4.4518,-4.4844,-4.625,-4.7004,-4.7431,-4.7958,-4.8912,-4.9866,-5.0142,-5.1147,-5.2126,-5.2277,-5.2628,-5.2929,-5.2929,-5.2929,-5.2929,-5.2929,-5.2929,-5.2929,-5.2929,-5.303,-5.3206,-5.3457,-5.3733,-5.3884,-5.3733,-5.3833,-5.3783,-5.3381,-5.3331,-5.3331,-5.3331,-5.3331,-5.3507,-5.3884,-5.3557,-5.3507,-5.3909,-5.3557,-5.3331,-5.3331,-5.3708,-5.3909,-5.3909,-5.3532,-5.3281,-5.313,-5.298,-5.2929,-5.2929,-5.2929,-5.2929,-1.2739,-1.3613,-1.466,-1.6434,-1.7818,-1.9202,-2.0878,-2.166,-2.2207,-2.2945,-2.314,-2.3159,-2.3159,-2.3842,-2.4434,-2.4414,-2.4434,-2.4434,-2.4414,-2.4082,-2.3828,-2.3828,-2.3457,-2.3335,-2.3809,-2.4219,-2.4629,-2.5125,-2.5898,-2.6191,-2.5713,-2.7725,-2.9015,-2.9395,-3.1576,-3.3107,-3.3859,-3.4956,-3.5508,-3.5533,-3.6107,-3.6405,-3.6405,-3.6405,-3.643,-3.648,-3.6985,-3.7538,-3.809,-3.8668,-3.9521,-4.0475,-4.0475,-4.1153,-4.2162,-4.2162,-4.2539,-4.3062,-4.3639,-4.4192,-4.4719,-4.5372,-4.6627,-4.7983,-4.856,-4.949,-5.0594,-5.1674,-5.2026,-5.2226,-5.2754,-5.2904,-5.2929,-5.2929,-5.2929,-5.2929,-5.2929,-5.2929,-5.2929,-5.2929,-5.3331,-5.3507,-5.3055,-5.3833,-5.4336,-5.3783,-5.416,-5.4511,-5.4486,-5.4486,-5.4486,-5.4486,-5.4486,-5.4486,-5.4511,-5.4486,-5.4486,-5.4511,-5.4486,-5.4486,-5.4486,-5.4511,-5.4511,-5.4511,-5.4486,-5.421,-5.3658,-5.3181,-5.2929,-5.2929,-5.2929,-5.2929,-1.2817,-1.3496,-1.4328,-1.5254,-1.6465,-1.7623,-1.8555,-1.9727,-2.0781,-2.1367,-2.2148,-2.2769,-2.3042,-2.3613,-2.3926,-2.3588,-2.3828,-2.3926,-2.3588,-2.3413,-2.3379,-2.3379,-2.3198,-2.3257,-2.375,-2.418,-2.459,-2.5086,-2.5625,-2.622,-2.6907,-2.7675,-2.8842,-3.0508,-3.1354,-3.2475,-3.3897,-3.4956,-3.5508,-3.5508,-3.6107,-3.6405,-3.6405,-3.6405,-3.6405,-3.6455,-3.7312,-3.7814,-3.809,-3.9019,-3.9622,-4.0023,-4.0375,-4.0978,-4.1681,-4.2087,-4.2564,-4.3112,-4.4016,-4.4468,-4.4895,-4.6527,-4.7431,-4.8159,-4.9439,-5.0368,-5.1122,-5.19,-5.2352,-5.2678,-5.2879,-5.2929,-5.2929,-5.2929,-5.2929,-5.303,-5.3356,-5.3155,-5.303,-5.3356,-5.3582,-5.3858,-5.4411,-5.4838,-5.5013,-5.4813,-5.4963,-5.4963,-5.4612,-5.4561,-5.4561,-5.4561,-5.4561,-5.4712,-5.5064,-5.4762,-5.4712,-5.5064,-5.4762,-5.4561,-5.4561,-5.5239,-5.5616,-5.5616,-5.5616,-5.5164,-5.426,-5.3708,-5.3432,-5.3406,-5.308,-5.2929,-1.3047,-1.3496,-1.4036,-1.4648,-1.543,-1.6269,-1.6992,-1.8262,-1.9473,-2.0195,-2.1269,-2.2165,-2.2594,-2.2949,-2.3144,-2.3101,-2.3379,-2.3477,-2.314,-2.3101,-2.3101,-2.3101,-2.3101,-2.3198,-2.3535,-2.4261,-2.4951,-2.5438,-2.6209,0.0,-2.8168,-2.8787,-3.0033,-3.2043,-3.1724,-3.2215,-3.3621,-3.4349,-3.4856,-3.5232,-3.583,-3.6182,-3.6405,-3.6405,-3.6505,-3.6732,-3.7613,-3.8015,-3.809,-3.922,-3.9923,-4.0275,-4.0651,-4.1254,-4.1932,-4.2308,-4.2841,-4.3388,-4.4292,-4.4869,-4.5447,-4.7104,-4.7908,-4.8485,-4.9967,-5.082,-5.1448,-5.2176,-5.2653,-5.2929,-5.2929,-5.2929,-5.2929,-5.2929,-5.3055,-5.3281,-5.3632,-5.3432,-5.3356,-5.3884,-5.4135,-5.4436,-5.5013,-5.5415,-5.5591,-5.5415,-5.5541,-5.5541,-5.5164,-5.5114,-5.5114,-5.5114,-5.5114,-5.5265,-5.5641,-5.534,-5.5265,-5.5641,-5.5315,-5.5189,-5.539,-5.6093,-5.657,-5.6771,-5.6595,-5.6118,-5.539,-5.4461,-5.3884,-5.3683,-5.3356,-5.308,0.0,0.0,0.0,-1.457,-1.4766,-1.5098,-1.6356,-1.7291,-1.8301,-1.959,-2.0508,-2.1268,-2.1758,-2.1855,-2.2129,-2.2906,-2.3062,-2.3081,-2.3081,-2.3081,-2.3101,-2.3101,-2.3144,-2.3144,-2.3101,-2.451,-2.569,-2.622,-2.772,-2.8835,-2.9397,-3.1155,-3.2665,-3.3828,-3.2792,-3.2491,-3.3111,-3.3111,-3.3621,-3.4726,-3.5232,-3.583,-3.6405,-3.6405,-3.6707,-3.7211,-3.7764,-3.8015,-3.8115,-3.9245,-4.0325,-4.125,-4.1275,-4.2007,-4.2961,-4.2986,-4.3338,-4.389,-4.4468,-4.5397,-4.6401,-4.6943,-4.7908,-4.9012,-5.0117,-5.0845,-5.1523,-5.2628,-5.2929,-5.2929,-5.2929,-5.2929,-5.2929,-5.2955,-5.3331,-5.3708,-5.3733,-5.3758,-5.3909,-5.4486,-5.5013,-5.5214,-5.4712,-5.5491,-5.6018,-5.5491,-5.5867,-5.6219,-5.6219,-5.6219,-5.6244,-5.6244,-5.6244,-5.6244,-5.6244,-5.6219,-5.6219,-5.6244,-5.6244,-5.6495,-5.7022,-5.7072,-5.7349,-5.7901,-5.7374,-5.7072,-5.7047,-5.539,-5.4285,-5.3733,-5.3683,-5.3337,-1.3997,0.0,0.0,0.0,0.0,0.0,-1.5176,-1.5742,-1.6582,-1.8203,-1.8948,-1.965,-2.0781,-2.1191,-2.1444,-2.1678,-2.2243,-2.2676,-2.2676,-2.2906,-2.3101,-2.3101,-2.3844,-2.3996,-2.3169,-2.5271,-2.6368,0.0,-2.7479,-2.9036,-3.0059,-3.186,-3.299,-3.3294,-3.2591,-3.2491,-3.3111,-3.3111,-3.3621,-3.4726,-3.5232,-3.583,-3.6405,-3.6405,-3.6707,-3.7211,-3.7764,-3.8241,-3.8693,-3.9396,-4.0099,-4.0777,-4.1125,-4.1756,-4.2539,-4.3288,-4.3664,-4.3991,-4.5372,-4.605,-4.6527,-4.7883,-4.8786,-4.9565,-5.0695,-5.1423,-5.2026,-5.2729,-5.2929,-5.2929,-5.2929,-5.2929,-5.303,-5.3406,-5.3607,-5.3934,-5.4737,-5.4913,-5.4963,-5.5139,-5.529,-5.5465,-5.5717,-5.6018,-5.6168,-5.6018,-5.6118,-5.6219,-5.6219,-5.657,-5.6796,-5.6796,-5.6796,-5.6796,-5.6796,-5.6445,-5.6394,-5.6771,-5.6796,-5.7072,-5.765,-5.8052,-5.8328,-5.8504,-5.8328,-5.8052,-5.765,-5.5968,-5.4863,-5.431,-5.3507,-5.2313,0.0,0.0,0.0,-1.466,0.0,0.0,-1.4727,-1.498,-1.5586,-1.7148,-1.7519,-1.7969,-1.9258,-1.9414,-1.9436,-1.9787,-2.0605,-2.1484,-2.2383,-2.2672,-2.3103,-2.3737,-2.4425,-2.4702,-2.4553,-2.6331,-2.733,-2.688,-2.8651,-3.0276,-3.1466,-3.2524,-3.3111,-3.3111,-3.2516,-3.2491,-3.3111,-3.2842,-3.3395,-3.468,-3.5006,-3.5604,-3.6405,-3.6656,-3.7059,-3.7563,-3.8115,-3.8693,-3.927,-3.9798,-4.035,-4.0849,-4.1175,-4.1806,-4.2665,-4.3489,-4.394,-4.4317,-4.5547,-4.6401,-4.7129,-4.8109,-4.9113,-5.0117,-5.0996,-5.1674,-5.2226,-5.2779,-5.2929,-5.2929,-5.2929,-5.2929,-5.3005,-5.3306,-5.3733,-5.4235,-5.4888,-5.5415,-5.5742,-5.5742,-5.5742,-5.5842,-5.6168,-5.6394,-5.647,-5.6244,-5.662,-5.6821,-5.6595,-5.7047,-5.7399,-5.7399,-5.7173,-5.7123,-5.7374,-5.6872,-5.6796,-5.7349,-5.7399,-5.765,-5.8227,-5.8554,-5.883,-5.9031,-5.883,-5.8328,-5.7524,-5.6545,-5.5541,-5.4536,-5.3909,-5.2774,0.0,0.0,0.0,0.0,-1.5195,0.0,-1.5,-1.4922,-1.5215,-1.6453,-1.6328,-1.6398,-1.7578,-1.7213,-1.6999,-1.7754,-1.8672,-2.0,-2.2012,-2.2383,-2.2983,-2.4472,-2.4809,-2.5292,-2.6311,-2.7539,-2.8418,-2.879,-3.0351,-3.1788,-3.2918,-3.2993,-3.3061,-3.3111,-3.2516,-3.2491,-3.3111,-3.2566,-3.3119,-3.468,-3.4731,-3.5353,-3.643,-3.6983,-3.7487,-3.804,-3.8617,-3.917,-3.9747,-4.03,-4.0852,-4.13,-4.1351,-4.2108,-4.3137,-4.3689,-4.4242,-4.4819,-4.5522,-4.6702,-4.7933,-4.8134,-4.9238,-5.0619,-5.1197,-5.1749,-5.2302,-5.2779,-5.2929,-5.2929,-5.2929,-5.2929,-5.2955,-5.308,-5.3858,-5.4587,-5.4712,-5.5516,-5.6219,-5.6219,-5.6219,-5.6219,-5.6219,-5.6671,-5.6872,-5.6369,-5.7223,-5.77,-5.7198,-5.7625,-5.8001,-5.7976,-5.7524,-5.7424,-5.7951,-5.7474,-5.7374,-5.7951,-5.8001,-5.8227,-5.878,-5.8805,-5.9031,-5.9483,-5.8981,-5.8202,-5.7123,-5.6997,-5.6168,-5.4662,-5.4658,-5.3964,0.0,0.0,0.0,0.0,-1.5909,0.0,-1.6269,-1.5801,-1.5566,-1.6492,-1.6063,-1.5723,-1.6359,-1.6926,-1.7207,-1.698,-1.8281,-1.9668,-2.082,-2.1562,-2.2426,-2.3472,-2.4765,-2.5654,-2.5775,-2.8028,-2.9116,-2.8331,-2.981,-3.1235,-3.2315,-3.239,-3.2591,-3.3068,-3.2516,-3.2491,-3.3111,-3.2968,-3.352,-3.4726,-3.5132,-3.573,-3.643,-3.6983,-3.7487,-3.804,-3.8617,-3.917,-3.9747,-4.03,-4.0852,-4.1326,-4.1831,-4.266,-4.3714,-4.4267,-4.4819,-4.5522,-4.6954,-4.7631,-4.8134,-4.949,-5.0469,-5.1222,-5.1774,-5.2327,-5.2779,-5.2904,-5.2929,-5.2929,-5.2929,-5.2929,-5.3155,-5.4034,-5.4411,-5.4813,-5.5691,-5.6068,-5.6219,-5.6219,-5.6219,-5.6219,-5.6219,-5.6671,-5.6923,-5.6897,-5.7474,-5.7851,-5.775,-5.8202,-5.8554,-5.8529,-5.8453,-5.8428,-5.8554,-5.8052,-5.7976,-5.8529,-5.8554,-5.8805,-5.9332,-5.9332,-5.9382,-5.9483,-5.8981,-5.8403,-5.7725,-5.6821,-5.5968,-5.5214,-5.4762,-5.3604,0.0,0.0,0.0,-1.623,-1.6261,0.0,0.0,-1.6024,-1.5664,-1.6512,-1.5654,-1.498,-1.5625,-1.5742,-1.584,-1.6005,-1.6973,-1.8081,-1.9141,-2.0605,-2.2028,-2.3261,-2.4574,-2.569,-2.6454,-2.8246,-2.9347,-2.9331,-3.0114,-3.1085,-3.2164,-3.2215,-3.2491,-3.3068,-3.2792,-3.2918,-3.347,-3.3495,-3.4048,-3.5082,-3.5357,-3.5981,-3.6832,-3.7337,-3.7889,-3.8467,-3.9044,-3.9597,-4.0149,-4.0701,-4.1254,-4.1806,-4.2414,-4.3062,-4.389,-4.4744,-4.5422,-4.605,-4.7154,-4.8058,-4.8887,-4.9741,-5.077,-5.1749,-5.2026,-5.2477,-5.2929,-5.2929,-5.2929,-5.2929,-5.2929,-5.313,-5.3457,-5.4009,-5.4561,-5.5139,-5.5691,-5.6018,-5.6294,-5.657,-5.662,-5.662,-5.662,-5.7097,-5.7474,-5.7474,-5.8177,-5.8604,-5.8353,-5.878,-5.9106,-5.9081,-5.8855,-5.883,-5.9081,-5.8604,-5.8529,-5.9081,-5.9106,-5.9232,-5.9483,-5.9483,-5.9483,-5.9483,-5.9232,-5.8855,-5.8303,-5.7474,-5.647,-5.539,-5.539,-5.4561,0.0,0.0,0.0,0.0,0.0,-1.6437,0.0,0.0,0.0,-1.6453,-1.5459,-1.464,-1.5195,-1.4757,-1.4562,-1.5195,-1.5879,-1.6711,-1.7734,-1.9609,-2.143,-2.303,-2.3809,-2.5074,-2.7234,-2.8422,-2.9439,-3.0382,-3.0557,-3.1035,-3.2014,-3.2164,-3.2491,-3.3068,-3.3194,-3.3445,-3.3897,-3.4123,-3.463,-3.5508,-3.5708,-3.6332,-3.7211,-3.7864,-3.8442,-3.8944,-3.9446,-3.9998,-4.0551,-4.105,-4.1656,-4.2263,-4.2886,-4.3463,-4.4091,-4.5221,-4.5999,-4.6577,-4.723,-4.8385,-4.964,-4.9841,-5.0971,-5.2251,-5.2251,-5.2578,-5.2929,-5.2929,-5.2929,-5.2955,-5.3055,-5.3381,-5.3758,-5.3984,-5.4813,-5.5566,-5.5691,-5.6143,-5.6671,-5.7123,-5.7198,-5.7198,-5.7198,-5.7675,-5.8052,-5.8052,-5.888,-5.9332,-5.893,-5.9232,-5.9483,-5.9483,-5.9106,-5.9031,-5.9458,-5.9106,-5.9056,-5.9458,-5.9483,-5.9483,-5.9483,-5.9483,-5.9483,-5.9483,-5.9483,-5.9232,-5.873,-5.8177,-5.7148,-5.5717,-5.5653,-5.511,0.0,0.0,0.0,0.0,-1.7266,0.0,-1.7305,0.0,-1.6973,-1.632,0.0,-1.5674,-1.498,0.0,0.0,-1.4902,-1.6222,-1.7285,-1.7441,-1.8633,-2.0188,-2.1941,-2.168,-2.2921,-2.6937,-2.8762,-2.9754,-2.988,-3.0331,-3.0859,-3.1461,-3.1938,-3.2491,-3.3068,-3.3545,-3.3847,-3.3897,-3.4831,-3.5382,-3.5508,-3.6533,-3.7061,-3.7211,-3.8291,-3.8869,-3.8944,-3.9446,-3.9998,-4.0551,-4.105,-4.1656,-4.2313,-4.3288,-4.4041,-4.4669,-4.5799,-4.6577,-4.7179,-4.8234,-4.9038,-4.9766,-5.077,-5.1875,-5.2829,-5.2829,-5.2879,-5.2929,-5.2929,-5.2929,-5.303,-5.3507,-5.3658,-5.3959,-5.4963,-5.5666,-5.6244,-5.6746,-5.7298,-5.7725,-5.7801,-5.7801,-5.7801,-5.7801,-5.8252,-5.8629,-5.8629,-5.9131,-5.9483,-5.9408,-5.9458,-5.9483,-5.9483,-5.9433,-5.9433,-5.9483,-5.9433,-5.9433,-5.9483,-5.9483,-5.9483,-5.9483,-5.9483,-5.9483,-5.9483,-5.9483,-5.9232,-5.873,-5.8177,-5.7549,-5.6747,-5.4543,-5.3429,0.0,0.0,0.0,0.0,0.0,0.0,-1.7812,0.0,-1.7318,0.0,0.0,0.0,0.0,0.0,0.0,0.0,-1.6523,-1.709,-1.7344,-1.7637,-1.8622,-2.0912,0.0,0.0,-2.6941,-2.7656,-2.8122,-2.8775,-2.9327,-2.988,-3.0432,-3.1562,-3.2616,-3.352,-3.3771,-3.4198,-3.4806,-3.5282,-3.5658,-3.6031,-3.681,-3.7337,-3.7688,-3.8492,-3.9095,-3.9371,-3.9923,-4.0475,-4.0974,-4.158,-4.2333,-4.3187,-4.3966,-4.4418,-4.4794,-4.625,-4.7129,-4.7732,-4.8862,-4.9816,-5.0745,-5.1875,-5.2553,-5.2929,-5.2929,-5.2929,-5.2929,-5.2929,-5.313,-5.3432,-5.3632,-5.4185,-5.4787,-5.529,-5.6068,-5.6746,-5.6972,-5.7499,-5.8001,-5.8303,-5.8378,-5.8478,-5.878,-5.878,-5.883,-5.9131,-5.9357,-5.9483,-5.9483,-5.9483,-5.9483,-5.9483,-5.9483,-5.9483,-5.9483,-5.9483,-5.9483,-5.9483,-5.9809,-5.9834,-5.9508,-5.9809,-5.9834,-5.9508,-5.9483,-5.9382,-5.9156,-5.8629,-5.8252,-5.7901,-5.4657,-5.2471,-2.0823,0.0,0.0,0.0,0.0,0.0,0.0,0.0,0.0,0.0,0.0,0.0,0.0,0.0,0.0,0.0,0.0,-1.7031,0.0,-1.7207,-1.7948,-2.03,0.0,0.0,0.0,-2.6411,-2.6826,-2.7595,-2.8298,-2.9026,-2.9754,-3.1185,-3.2566,-3.3847,-3.4048,-3.4575,-3.5483,-3.5633,-3.5981,-3.6405,-3.7086,-3.7613,-3.804,-3.8768,-3.932,-3.9722,-4.0275,-4.0774,-4.1351,-4.2082,-4.2936,-4.3865,-4.4593,-4.4945,-4.5271,-4.6778,-4.7682,-4.8309,-4.9439,-5.0569,-5.1649,-5.2628,-5.2929,-5.2929,-5.2929,-5.2929,-5.2929,-5.2929,-5.3306,-5.3733,-5.3909,-5.4662,-5.544,-5.5566,-5.647,-5.7273,-5.7273,-5.7826,-5.8453,-5.8855,-5.893,-5.9056,-5.9433,-5.9182,-5.9056,-5.9433,-5.9633,-5.9709,-5.9709,-5.9709,-5.9709,-5.9709,-5.9583,-5.9483,-5.9483,-5.9483,-5.9483,-5.9483,-6.001,-6.006,-5.9508,-6.0035,-6.006,-5.9508,-5.9483,-5.9483,-5.9483,-5.8981,-5.8399,-5.7787,-5.4133,-5.1686,0.0,0.0,0.0,-2.1876,0.0,0.0,0.0,0.0,-1.7871,0.0,0.0,0.0,0.0,0.0,0.0,0.0,0.0,0.0,0.0,0.0,-1.8643,-2.041,0.0,0.0,0.0,-2.5373,-2.6499,-2.6549,-2.7519,-2.8624,-2.9729,-3.0834,-3.219,-3.3847,-3.4424,-3.4931,-3.5483,-3.6081,-3.638,-3.643,-3.7462,-3.799,-3.804,-3.917,-3.9672,-3.9722,-4.0275,-4.0774,-4.1376,-4.2509,-4.3288,-4.3915,-4.502,-4.5773,-4.6376,-4.7481,-4.8234,-4.8912,-5.0017,-5.1122,-5.2176,-5.2754,-5.2929,-5.2929,-5.2929,-5.2929,-5.2929,-5.2929,-5.3306,-5.3833,-5.4386,-5.4963,-5.5516,-5.6068,-5.7047,-5.7876,-5.7876,-5.8704,-5.9458,-5.9458,-5.9458,-5.9483,-5.9483,-5.9483,-5.9483,-5.9483,-5.996,-6.0286,-6.0286,-6.0286,-6.0286,-6.0286,-5.9809,-5.9483,-5.9483,-5.9483,-5.9483,-5.9483,-6.001,-6.006,-5.9508,-6.0035,-6.006,-5.9508,-5.9483,-5.9483,-5.9483,-5.8981,-5.7657,-5.5643,-5.2363,-5.0861,0.0,0.0,-2.3822,-2.4116,0.0,0.0,0.0,0.0,0.0,0.0,0.0,0.0,0.0,0.0,0.0,0.0,0.0,0.0,0.0,0.0,-2.0139,-2.1322,-2.2281,-2.3286,0.0,0.0,-2.4582,-2.5335,-2.6389,-2.753,-2.8624,-3.0758,-3.2717,-3.4399,-3.4931,-3.5529,-3.6081,-3.6634,-3.6958,-3.691,-3.804,-3.8567,-3.8592,-3.9346,-3.9697,-3.9747,-4.0651,-4.1125,-4.1401,-4.2911,-4.384,-4.4468,-4.5598,-4.6577,-4.7405,-4.7782,-4.8259,-4.8987,-5.0469,-5.1724,-5.2678,-5.2879,-5.2929,-5.2929,-5.2929,-5.3181,-5.3432,-5.3432,-5.411,-5.4863,-5.5064,-5.5516,-5.5993,-5.6168,-5.7072,-5.7901,-5.7901,-5.873,-5.9483,-5.9483,-5.9483,-5.9483,-5.9483,-5.9809,-5.991,-5.9558,-5.996,-6.0311,-6.0311,-6.0311,-6.0311,-6.0311,-5.9834,-5.9483,-5.9483,-5.9483,-5.9483,-5.9483,-6.001,-6.006,-5.9508,-6.0035,-6.006,-5.9508,-5.9483,-5.9483,-5.9483,-5.7834,-5.7423,-5.8048,-5.1988,-4.8952,-2.7538,-2.6733,0.0,-2.6138,-2.493,0.0,-2.2623,0.0,-2.0275,0.0,0.0,0.0,0.0,0.0,0.0,0.0,0.0,0.0,0.0,-1.9879,0.0,-2.1815,-2.2156,-2.2818,-2.4092,-2.3521,-2.3396,-2.4123,-2.5259,-2.6615,-2.8323,0.0,-3.2667,-3.4906,-3.5307,-3.5906,-3.6707,-3.7059,-3.7287,-3.7487,-3.8466,-3.8919,-3.8944,-3.9446,-3.9798,-4.0049,-4.0953,-4.1401,-4.1756,-4.3413,-4.4292,-4.4744,-4.6075,-4.7255,-4.8209,-4.8209,-4.8837,-4.9841,-5.1122,-5.2176,-5.2929,-5.2929,-5.2929,-5.2929,-5.2929,-5.3281,-5.3708,-5.3708,-5.4511,-5.539,-5.539,-5.5792,-5.6269,-5.647,-5.7223,-5.7951,-5.8152,-5.888,-5.9483,-5.9483,-5.9483,-5.9558,-5.9759,-6.0085,-6.0136,-5.9583,-6.0311,-6.0864,-6.0663,-6.0638,-6.0638,-6.0638,-5.9935,-5.9483,-5.9483,-5.9483,-5.9483,-5.9483,-6.001,-6.006,-5.9508,-6.0035,-6.0337,-6.0387,-5.9784,-5.9784,-6.0387,-5.7539,-5.7255,-5.9028,-5.1743,-4.8471]},{"header":{"parameterUnit":"m.s-1","parameterCategory":1,"la1":30.6,"la2":29.2853,"lo1":-89.7004,"lo2":-87.6739,"dx":0.0162,"dy":0.0183,"nx":112,"ny":82,"refTime":"2023-02-07T06:00:00:Z","depth":0,"parameterNumber":3,"parameterNumberName":"V-component_of_WINDS"},"data":[0.0,0.0,0.0,0.0,0.0,0.0,0.0,0.0,0.0,0.0,0.0,0.0,0.0,0.0,0.0,0.0,0.0,0.0,0.0,0.0,0.0,0.0,0.0,0.0,0.0,0.0,0.0,0.0,0.0,0.0,0.0,0.0,0.0,0.0,0.0,0.0,0.0,0.0,0.0,0.0,0.0,0.0,0.0,0.0,0.0,0.0,0.0,0.0,0.0,0.0,0.0,0.0,0.0,0.0,0.0,0.0,0.0,0.0,0.0,0.0,0.0,0.0,0.0,0.0,0.0,0.0,0.0,0.0,0.0,0.0,0.0,0.0,0.0,0.0,0.0,0.0,0.0,0.0,0.0,0.0,0.0,0.0,0.0,0.0,0.0,0.0,0.0,0.0,0.0,0.0,2.9864,3.2053,3.7376,4.0957,4.1447,4.1093,3.7756,3.0562,0.0,0.0,0.0,0.0,0.0,0.0,0.0,0.0,0.0,0.0,0.0,0.0,0.0,0.0,0.0,0.0,0.0,0.0,0.0,0.0,0.0,0.0,0.0,0.0,0.0,0.0,0.0,0.0,0.0,0.0,0.0,0.0,0.0,0.0,0.0,0.0,0.0,0.0,0.0,0.0,0.0,0.0,0.0,0.0,0.0,0.0,0.0,0.0,0.0,0.0,0.0,0.0,0.0,0.0,0.0,0.0,0.0,0.0,0.0,0.0,0.0,0.0,0.0,0.0,0.0,0.0,0.0,0.0,0.0,0.0,0.0,0.0,0.0,0.0,0.0,0.0,0.0,0.0,0.0,0.0,0.0,0.0,0.0,0.0,0.0,0.0,0.0,0.0,0.0,0.0,0.0,0.0,0.0,0.0,0.0,0.0,0.0,0.0,0.0,0.0,0.0,0.0,0.0,0.0,3.0445,3.6583,3.8928,4.0074,4.0193,3.9314,3.6152,2.9992,0.0,0.0,0.0,0.0,0.0,0.0,0.0,0.0,0.0,0.0,0.0,0.0,0.0,0.0,0.0,0.0,0.0,0.0,0.0,0.0,0.0,0.0,0.0,0.0,0.0,0.0,0.0,0.0,0.0,0.0,0.0,0.0,0.0,0.0,0.0,0.0,0.0,0.0,0.0,0.0,0.0,0.0,0.0,0.0,0.0,0.0,0.0,0.0,0.0,0.0,0.0,0.0,0.0,0.0,0.0,0.0,0.0,0.0,0.0,0.0,0.0,0.0,0.0,0.0,0.0,0.0,0.0,0.0,0.0,0.0,0.0,0.0,0.0,0.0,0.0,0.0,0.0,0.0,0.0,0.0,0.0,0.0,0.0,0.0,0.0,0.0,0.0,0.0,0.0,0.0,0.0,0.0,0.0,0.0,0.0,0.0,0.0,0.0,0.0,0.0,0.0,0.0,0.0,2.8373,3.2081,3.7687,3.8855,3.9386,3.9727,3.8302,3.5368,3.0547,2.93,0.0,0.0,0.0,0.0,0.0,0.0,0.0,0.0,0.0,0.0,0.0,0.0,0.0,0.0,0.0,0.0,0.0,0.0,0.0,0.0,0.0,0.0,0.0,0.0,0.0,0.0,0.0,0.0,0.0,0.0,0.0,0.0,0.0,0.0,0.0,0.0,0.0,0.0,0.0,0.0,0.0,0.0,0.0,0.0,0.0,0.0,0.0,0.0,0.0,0.0,0.0,0.0,0.0,0.0,0.0,0.0,0.0,0.0,0.0,0.0,0.0,0.0,0.0,0.0,0.0,0.0,0.0,0.0,0.0,0.0,0.0,0.0,0.0,0.0,0.0,0.0,0.0,0.0,0.0,0.0,0.0,0.0,0.0,0.0,0.0,0.0,0.0,0.0,0.0,0.0,0.0,0.0,0.0,0.0,0.0,0.0,0.0,0.0,0.0,0.0,0.0,0.0,3.1437,3.3888,3.8061,3.8642,3.8892,3.9352,3.7019,3.4206,3.1045,2.8017,0.0,0.0,0.0,0.0,0.0,0.0,0.0,0.0,0.0,0.0,0.0,0.0,0.0,0.0,0.0,0.0,0.0,0.0,0.0,0.0,0.0,0.0,0.0,0.0,0.0,0.0,0.0,0.0,0.0,0.0,0.0,0.0,0.0,0.0,0.0,0.0,0.0,0.0,0.0,0.0,0.0,0.0,0.0,0.0,0.0,0.0,0.0,0.0,0.0,0.0,0.0,0.0,0.0,0.0,0.0,0.0,0.0,0.0,0.0,0.0,0.0,0.0,0.0,0.0,0.0,0.0,0.0,0.0,0.0,0.0,0.0,0.0,0.0,0.0,0.0,0.0,0.0,0.0,0.0,0.0,0.0,0.0,0.0,0.0,0.0,0.0,0.0,0.0,0.0,0.0,0.0,0.0,0.0,0.0,0.0,0.0,0.0,0.0,0.0,0.0,0.0,0.0,3.2808,3.5318,3.8659,3.8832,3.8704,3.8765,3.4711,3.1752,3.0779,2.5832,0.0,0.0,0.0,0.0,0.0,0.0,0.0,0.0,0.0,0.0,0.0,0.0,0.0,0.0,0.0,0.0,0.0,0.0,0.0,0.0,0.0,0.0,0.0,0.0,0.0,0.0,0.0,0.0,0.0,0.0,0.0,0.0,0.0,0.0,0.0,0.0,0.0,0.0,0.0,0.0,0.0,0.0,0.0,0.0,0.0,0.0,0.0,0.0,0.0,0.0,0.0,0.0,0.0,0.0,0.0,0.0,0.0,0.0,0.0,0.0,0.0,0.0,0.0,0.0,0.0,0.0,0.0,0.0,0.0,0.0,0.0,0.0,0.0,0.0,0.0,0.0,0.0,0.0,0.0,0.0,0.0,0.0,0.0,0.0,0.0,0.0,0.0,0.0,0.0,0.0,0.0,0.0,0.0,0.0,0.0,0.0,0.0,0.0,0.0,0.0,0.0,0.0,3.2595,3.5209,3.8508,3.878,3.8505,3.7991,3.5399,3.2871,3.0708,0.0,0.0,0.0,0.0,0.0,0.0,0.0,0.0,0.0,0.0,0.0,0.0,0.0,0.0,0.0,0.0,0.0,0.0,0.0,0.0,0.0,0.0,0.0,0.0,0.0,0.0,0.0,0.0,0.0,0.0,0.0,0.0,0.0,0.0,0.0,0.0,0.0,0.0,0.0,0.0,0.0,0.0,0.0,0.0,0.0,0.0,0.0,0.0,0.0,0.0,0.0,0.0,0.0,0.0,0.0,0.0,0.0,0.0,0.0,0.0,0.0,0.0,0.0,0.0,0.0,0.0,0.0,0.0,0.0,0.0,0.0,0.0,0.0,0.0,0.0,0.0,0.0,0.0,0.0,0.0,0.0,0.0,0.0,0.0,0.0,0.0,0.0,0.0,0.0,0.0,0.0,0.0,0.0,0.0,0.0,0.0,0.0,0.0,0.0,0.0,0.0,0.0,3.0802,3.2944,3.5349,3.8395,3.8689,3.8358,3.7566,3.4798,3.2391,3.0708,0.0,0.0,0.0,0.0,0.0,0.0,0.0,0.0,0.0,0.0,0.0,0.0,0.0,0.0,0.0,0.0,0.0,0.0,0.0,0.0,0.0,0.0,0.0,0.0,0.0,0.0,0.0,0.0,0.0,0.0,0.0,0.0,0.0,0.0,0.0,0.0,0.0,0.0,0.0,0.0,0.0,0.0,0.0,0.0,0.0,0.0,0.0,0.0,0.0,0.0,0.0,0.0,0.0,0.0,0.0,0.0,0.0,0.0,0.0,0.0,0.0,0.0,0.0,0.0,0.0,0.0,0.0,0.0,0.0,0.0,0.0,0.0,0.0,0.0,0.0,0.0,0.0,0.0,0.0,0.0,0.0,0.0,0.0,0.0,0.0,0.0,0.0,0.0,0.0,0.0,0.0,0.0,0.0,0.0,0.0,0.0,0.0,0.0,0.0,0.0,0.0,0.0,3.2509,3.4136,3.5958,3.8469,3.8726,3.8358,3.7566,3.2302,2.9533,0.0,0.0,0.0,0.0,0.0,0.0,0.0,0.0,0.0,0.0,0.0,0.0,0.0,0.0,0.0,0.0,0.0,0.0,0.0,0.0,0.0,0.0,0.0,0.0,0.0,0.0,0.0,0.0,0.0,0.0,0.0,0.0,0.0,0.0,0.0,0.0,0.0,0.0,0.0,0.0,0.0,0.0,0.0,0.0,0.0,0.0,0.0,0.0,0.0,0.0,0.0,0.0,0.0,0.0,0.0,0.0,0.0,0.0,0.0,0.0,0.0,0.0,0.0,0.0,0.0,0.0,0.0,0.0,0.0,0.0,0.0,0.0,0.0,0.0,0.0,0.0,0.0,0.0,0.0,0.0,0.0,0.0,0.0,0.0,0.0,0.0,0.0,0.0,0.0,0.0,0.0,0.0,0.0,0.0,0.0,0.0,0.0,0.0,0.0,0.0,0.0,0.0,0.0,3.3202,3.4913,3.6853,3.9276,3.9056,3.8138,3.6795,3.4027,3.1701,3.0067,0.0,0.0,0.0,0.0,0.0,0.0,0.0,0.0,0.0,0.0,0.0,0.0,0.0,0.0,0.0,0.0,0.0,0.0,0.0,0.0,0.0,0.0,0.0,0.0,0.0,0.0,0.0,0.0,0.0,0.0,0.0,0.0,0.0,0.0,0.0,0.0,0.0,0.0,0.0,0.0,0.0,0.0,0.0,0.0,0.0,0.0,0.0,0.0,0.0,0.0,0.0,0.0,0.0,0.0,0.0,0.0,0.0,0.0,0.0,0.0,0.0,0.0,0.0,0.0,0.0,0.0,0.0,0.0,0.0,0.0,0.0,0.0,0.0,0.0,0.0,0.0,0.0,0.0,0.0,0.0,0.0,0.0,0.0,0.0,0.0,0.0,0.0,0.0,0.0,0.0,0.0,0.0,0.0,0.0,0.0,0.0,0.0,0.0,0.0,0.0,0.0,0.0,3.3967,3.6009,3.7955,3.9717,3.946,3.8395,3.645,3.4468,3.2416,3.0237,0.0,0.0,0.0,0.0,0.0,0.0,0.0,0.0,0.0,0.0,0.0,0.0,0.0,0.0,0.0,0.0,0.0,0.0,0.0,0.0,0.0,0.0,0.0,0.0,0.0,0.0,0.0,0.0,0.0,0.0,0.0,0.0,0.0,0.0,0.0,0.0,0.0,0.0,0.0,0.0,0.0,0.0,0.0,0.0,0.0,0.0,0.0,0.0,0.0,0.0,0.0,0.0,0.0,0.0,0.0,0.0,0.0,0.0,0.0,0.0,0.0,0.0,0.0,0.0,0.0,0.0,0.0,0.0,0.0,0.0,0.0,0.0,0.0,0.0,0.0,0.0,0.0,0.0,0.0,0.0,0.0,0.0,0.0,0.0,0.0,0.0,0.0,0.0,0.0,0.0,0.0,0.0,0.0,0.0,0.0,0.0,0.0,0.0,0.0,0.0,0.0,0.0,3.4894,3.7242,3.9056,3.99,3.9937,3.8946,3.6597,3.4238,3.2341,3.1092,0.0,0.0,0.0,0.0,0.0,0.0,0.0,0.0,0.0,0.0,0.0,0.0,0.0,0.0,0.0,0.0,0.0,0.0,0.0,0.0,0.0,0.0,0.0,0.0,0.0,0.0,0.0,0.0,0.0,0.0,0.0,0.0,0.0,0.0,0.0,0.0,0.0,0.0,0.0,0.0,0.0,0.0,0.0,0.0,0.0,0.0,0.0,0.0,0.0,0.0,0.0,0.0,0.0,0.0,0.0,0.0,0.0,0.0,0.0,0.0,2.9044,0.0,0.0,0.0,0.0,0.0,0.0,0.0,0.0,0.0,0.0,0.0,0.0,0.0,0.0,0.0,0.0,0.0,0.0,0.0,0.0,0.0,0.0,0.0,0.0,0.0,0.0,0.0,0.0,0.0,0.0,0.0,0.0,0.0,0.0,0.0,0.0,0.0,0.0,0.0,0.0,0.0,3.656,3.7991,3.9239,4.0691,4.0267,3.9182,3.7419,3.5792,3.4025,3.1974,2.9956,0.0,0.0,0.0,0.0,0.0,0.0,0.0,0.0,0.0,0.0,0.0,0.0,0.0,0.0,0.0,0.0,0.0,0.0,0.0,0.0,0.0,0.0,0.0,0.0,0.0,0.0,0.0,0.0,0.0,0.0,0.0,0.0,0.0,0.0,0.0,0.0,0.0,0.0,0.0,0.0,0.0,0.0,0.0,0.0,0.0,0.0,0.0,0.0,0.0,0.0,0.0,0.0,0.0,0.0,0.0,0.0,0.0,0.0,0.0,0.0,2.9168,0.0,0.0,0.0,0.0,0.0,0.0,0.0,0.0,0.0,0.0,0.0,0.0,0.0,0.0,0.0,0.0,0.0,0.0,0.0,0.0,0.0,0.0,0.0,0.0,0.0,0.0,0.0,0.0,0.0,0.0,0.0,0.0,0.0,0.0,0.0,0.0,0.0,0.0,0.0,0.0,3.8227,3.935,4.0341,4.1552,4.0965,3.9827,3.8212,3.6362,3.4649,3.3183,3.1035,0.0,0.0,0.0,0.0,0.0,0.0,0.0,0.0,0.0,0.0,0.0,0.0,0.0,0.0,0.0,0.0,0.0,0.0,0.0,0.0,0.0,0.0,0.0,0.0,0.0,0.0,0.0,0.0,0.0,0.0,0.0,0.0,0.0,0.0,0.0,0.0,0.0,0.0,0.0,0.0,0.0,0.0,0.0,0.0,0.0,0.0,0.0,0.0,0.0,0.0,0.0,0.0,0.0,3.6837,3.7439,3.8435,3.7753,3.688,3.5752,3.2607,3.1559,3.1944,3.0327,0.0,0.0,0.0,0.0,0.0,0.0,0.0,0.0,0.0,0.0,0.0,0.0,0.0,0.0,0.0,0.0,0.0,0.0,0.0,0.0,0.0,0.0,0.0,0.0,3.9606,3.8419,0.0,0.0,0.0,0.0,0.0,0.0,0.0,0.0,0.0,0.0,0.0,0.0,3.9533,4.0708,4.1499,4.2029,4.1515,4.0435,3.8836,3.675,3.5209,3.4451,3.1921,3.0514,0.0,0.0,0.0,0.0,0.0,0.0,0.0,0.0,0.0,0.0,0.0,0.0,0.0,0.0,0.0,0.0,0.0,0.0,0.0,0.0,0.0,0.0,0.0,0.0,0.0,0.0,0.0,0.0,0.0,0.0,0.0,0.0,3.2669,3.5479,0.0,0.0,0.0,0.0,0.0,0.0,0.0,0.0,0.0,0.0,0.0,0.0,0.0,3.7707,4.1739,4.0362,4.0296,4.1561,4.0166,3.9785,4.0323,3.9536,3.9437,3.9775,3.703,0.0,3.5098,3.4841,0.0,0.0,0.0,0.0,0.0,0.0,0.0,0.0,0.0,0.0,0.0,0.0,0.0,0.0,0.0,0.0,0.0,0.0,0.0,0.0,0.0,0.0,4.1405,4.1022,4.0838,4.0671,0.0,3.9371,3.8383,3.7389,3.7492,0.0,0.0,0.0,0.0,0.0,0.0,0.0,3.9753,4.1222,4.1919,4.1315,4.1168,4.0435,3.8836,3.7974,3.6853,3.533,3.4405,3.3654,3.2977,3.145,0.0,0.0,0.0,0.0,0.0,0.0,0.0,0.0,0.0,0.0,0.0,0.0,0.0,0.0,0.0,0.0,0.0,0.0,0.0,0.0,0.0,0.0,0.0,0.0,0.0,0.0,0.0,0.0,0.0,3.4639,3.6919,3.8154,3.8969,3.9054,0.0,0.0,0.0,0.0,0.0,0.0,0.0,0.0,0.0,3.8247,3.858,3.9785,4.2011,4.1752,4.2037,4.2908,4.2435,4.2697,4.3551,4.3245,4.3379,4.3818,4.2468,4.1434,4.0563,3.7826,3.6901,3.7026,0.0,0.0,0.0,0.0,3.4357,3.4798,3.5605,3.7199,0.0,3.7991,0.0,0.0,0.0,0.0,0.0,0.0,0.0,0.0,0.0,0.0,4.1772,4.2323,4.28,4.3003,4.2543,4.2329,4.1594,0.0,3.9445,3.917,3.7082,0.0,0.0,0.0,0.0,3.9827,4.1075,4.1846,4.2323,4.2433,4.1662,4.0802,4.0104,3.8162,3.6676,3.5947,3.4511,3.3526,3.3189,3.2457,3.2248,0.0,0.0,0.0,0.0,0.0,0.0,0.0,0.0,0.0,0.0,0.0,0.0,0.0,0.0,0.0,0.0,0.0,0.0,0.0,0.0,0.0,0.0,0.0,0.0,0.0,0.0,0.0,0.0,3.7271,3.913,3.9785,4.0439,4.0646,0.0,0.0,0.0,0.0,0.0,0.0,3.8585,3.865,3.9307,4.0583,4.1189,4.1886,4.2671,4.3312,4.3767,4.4031,4.4408,4.5161,4.6128,4.5963,4.6136,4.6561,4.6101,4.5553,4.4709,4.0687,3.8704,3.8102,3.7896,3.6927,3.5789,3.6597,3.7037,3.7367,3.8374,3.9659,4.0855,4.1038,4.1111,4.1148,4.1368,0.0,0.0,0.0,0.0,3.99,4.1095,4.1866,4.2653,4.3828,4.4562,4.4856,4.4232,4.4599,4.4195,0.0,4.1295,4.1222,3.9606,0.0,0.0,0.0,0.0,4.1185,4.2176,4.247,4.269,4.2873,4.1809,4.0912,4.0508,3.8285,3.6817,3.6597,3.5051,3.4056,3.3833,3.3833,3.3733,3.3497,0.0,0.0,0.0,0.0,0.0,0.0,0.0,0.0,0.0,0.0,0.0,0.0,0.0,0.0,0.0,0.0,0.0,0.0,0.0,0.0,0.0,0.0,0.0,0.0,0.0,0.0,0.0,0.0,0.0,3.7853,4.0277,0.0,0.0,0.0,0.0,3.9967,4.0566,4.1705,4.3341,4.232,4.2823,4.53,4.4608,4.4998,4.6684,4.6759,4.6576,4.6254,4.6259,4.6544,4.7003,4.6269,4.6324,4.704,4.625,4.5883,4.57,4.3955,4.3184,4.2854,3.9827,3.9496,4.0545,3.9129,3.9056,3.9937,4.1515,4.2616,4.3424,4.4232,4.4434,4.4177,4.269,4.1662,0.0,0.0,4.0341,4.2139,4.2213,4.3938,4.5663,4.5773,4.581,4.5847,4.5773,4.581,4.5333,0.0,4.3368,4.2873,4.1242,0.0,4.247,4.0246,4.1862,4.3057,4.2396,4.2947,4.2873,4.1389,4.1132,4.0471,3.8946,3.8689,3.8248,3.7492,3.7323,3.6919,3.6185,3.6148,3.6479,3.7206,3.514,0.0,0.0,0.0,0.0,0.0,0.0,0.0,0.0,0.0,0.0,0.0,0.0,0.0,0.0,0.0,0.0,0.0,0.0,0.0,0.0,0.0,0.0,0.0,0.0,0.0,0.0,0.0,0.0,4.17,4.3355,0.0,4.3269,4.3111,4.287,4.2573,4.3521,4.4399,4.5054,4.5164,4.5612,4.6492,4.6732,4.7032,4.7451,4.743,4.726,4.6836,4.6836,4.6948,4.7113,4.7352,4.7609,4.7846,4.7572,4.7462,4.7352,4.6287,4.5223,4.4158,4.302,4.2616,4.2653,4.258,4.2763,4.3167,4.4232,4.4782,4.5076,4.5369,4.548,4.5369,4.4782,4.4415,4.4085,4.3497,4.3938,4.4635,4.4635,4.5259,4.5883,4.5883,4.6287,4.6544,4.5993,4.6324,4.6361,4.5259,4.4635,4.4085,4.3517,4.3461,4.302,4.1662,4.2616,4.3221,4.2396,4.2983,4.3277,4.2727,4.1735,4.0875,4.0288,3.8836,3.7823,3.7529,3.7015,3.6597,3.6303,3.6303,3.667,3.7492,3.6697,3.5892,0.0,0.0,0.0,0.0,0.0,0.0,0.0,0.0,0.0,0.0,0.0,0.0,0.0,0.0,0.0,0.0,0.0,0.0,0.0,0.0,0.0,0.0,0.0,0.0,0.0,3.9315,4.1816,4.4047,4.5316,4.5982,4.5851,4.5436,4.5224,4.5349,4.6506,4.7205,4.7243,4.7515,4.765,4.765,4.8053,4.8173,4.81,4.7981,4.7774,4.748,4.748,4.7663,4.7976,4.8489,4.8893,4.915,4.8857,4.8746,4.8673,4.7846,4.6856,4.5883,4.5333,4.4782,4.4378,4.4929,4.5112,4.5223,4.603,4.6471,4.6728,4.6728,4.6544,4.6324,4.6324,4.6104,4.5883,4.5883,4.6104,4.6324,4.6324,4.6507,4.6728,4.6728,4.6962,4.7085,4.68,4.6962,4.7105,4.6764,4.5847,4.4856,4.4048,4.3461,4.2727,4.1662,4.1699,4.1772,4.1515,4.2176,4.258,4.2303,4.1809,4.1389,4.1132,3.9129,3.8043,3.83,3.7309,3.6758,3.6842,3.6743,3.6868,3.7207,3.7124,3.6817,3.6252,0.0,0.0,0.0,0.0,0.0,0.0,0.0,0.0,0.0,0.0,0.0,0.0,0.0,0.0,0.0,0.0,0.0,0.0,0.0,0.0,0.0,0.0,0.0,3.7181,4.1545,4.4355,4.447,4.6047,4.6945,4.6549,4.7566,4.8247,4.832,4.9466,5.0117,5.0104,4.9362,4.8952,4.8952,4.8569,4.8532,4.8936,4.855,4.8343,4.8306,4.8343,4.8783,4.961,4.9647,5.0068,5.0765,4.9978,4.9647,4.9574,4.8746,4.8379,4.8196,4.6581,4.5957,4.5957,4.5957,4.5957,4.6104,4.6892,4.77,4.8343,4.8343,4.781,4.7186,4.7149,4.6617,4.603,4.603,4.6581,4.7223,4.7223,4.7773,4.8343,4.8323,4.7854,4.7569,4.817,4.7834,4.7627,4.8209,4.7095,4.5259,4.2837,4.2396,4.1846,4.023,3.9334,0.0,3.9884,4.0675,4.0806,4.0031,4.1389,4.1976,4.1168,3.968,3.9129,3.99,3.8469,3.7682,3.7947,3.7708,3.7322,3.6813,3.6504,3.7169,3.8726,0.0,0.0,0.0,0.0,0.0,0.0,0.0,0.0,0.0,0.0,0.0,0.0,0.0,0.0,0.0,0.0,0.0,0.0,0.0,0.0,0.0,3.6692,3.9194,4.1294,4.3129,4.5432,4.8557,5.0433,5.1403,5.1331,5.1065,5.106,5.138,5.1186,5.0879,5.0551,5.0106,4.9826,4.9755,4.9418,4.9301,4.9398,4.9301,4.893,4.8306,4.893,4.939,4.961,5.0178,5.0582,5.0802,5.0582,5.0472,5.0435,5.0215,4.9774,4.9133,4.8049,4.7645,4.7645,4.7645,4.7645,4.7755,4.86,4.904,4.9243,4.9243,4.9077,4.8783,4.8159,4.8269,4.8582,4.8582,4.915,4.9774,4.9774,4.9517,4.9145,4.8629,4.7946,4.7608,4.8357,4.8417,4.846,4.9125,4.8913,4.7792,4.5333,4.4415,4.3681,4.267,4.1993,0.0,4.1905,4.173,4.1453,4.1035,4.1941,4.2196,4.1172,4.1222,4.1148,4.0781,3.9938,3.9498,3.9554,3.9137,3.8975,3.9247,3.8576,3.8684,0.0,0.0,0.0,0.0,0.0,0.0,0.0,0.0,0.0,0.0,0.0,0.0,0.0,0.0,0.0,0.0,0.0,0.0,0.0,0.0,0.0,0.0,3.9718,4.2939,4.5639,4.6416,4.7846,5.0846,5.2242,5.2886,5.2728,5.2599,5.246,5.2371,5.2397,5.2156,5.1539,5.1153,5.0932,5.09,5.038,5.0002,4.9787,4.9671,4.915,4.8306,4.9187,4.9794,5.0105,5.0949,5.1499,5.1793,5.1463,5.1316,5.1279,5.0949,5.0508,0.0,0.0,0.0,0.0,0.0,4.8306,4.8416,4.9317,4.9353,4.9114,4.95,4.961,4.95,4.9003,4.9407,5.0028,4.9711,4.9758,4.9825,4.9532,4.8873,4.8244,4.8214,4.7593,4.7334,4.8411,4.8164,4.795,4.8634,4.8511,0.0,4.59,4.4883,4.3814,4.2408,4.1652,4.1241,4.126,4.1262,4.1094,4.0597,4.1622,4.2083,4.1468,4.1433,0.0,0.0,0.0,3.9625,3.9382,3.8838,0.0,0.0,0.0,3.8886,3.9697,0.0,0.0,0.0,3.7639,3.6628,0.0,0.0,0.0,0.0,0.0,0.0,0.0,0.0,0.0,0.0,0.0,0.0,0.0,0.0,0.0,0.0,4.2054,4.5218,4.9668,5.0393,5.0858,5.1994,5.2523,5.2658,5.2341,5.2875,5.2963,5.225,5.3193,5.3467,5.262,0.0,0.0,0.0,0.0,5.0762,5.0337,4.9933,4.9297,4.8453,4.9317,5.0105,5.0839,5.172,5.2527,5.3188,5.2454,5.2123,5.2087,5.1353,5.0949,5.0729,4.9904,4.9133,4.8453,4.8453,4.8489,4.871,4.9574,0.0,0.0,4.9531,4.9731,4.9731,4.9541,5.0069,5.0529,4.9825,4.9185,4.8605,4.8021,4.7274,4.6825,4.7601,4.7229,4.7047,4.8342,4.7683,4.703,4.7622,4.7168,4.6401,4.5494,4.4585,4.3253,4.1096,4.0151,3.9673,3.9736,4.0291,4.0432,3.9764,0.0,0.0,4.1789,4.101,4.0832,4.152,4.0148,3.9042,3.843,3.7949,3.7615,3.7451,3.7914,3.8647,3.9676,4.0078,4.0753,4.1633,3.8838,3.7971,0.0,0.0,0.0,0.0,0.0,0.0,0.0,0.0,0.0,0.0,0.0,0.0,0.0,0.0,0.0,4.1856,4.5022,4.8221,5.1139,5.2174,5.2826,5.3353,5.3846,5.411,5.4009,5.3815,5.3627,5.3479,5.3681,5.3417,5.2585,5.2506,5.2447,5.2412,5.2003,5.1744,5.1604,5.0916,5.0141,4.9353,0.0,0.0,5.0839,5.2307,5.3078,5.3167,5.3041,5.2968,5.2968,5.2821,5.1977,5.0729,4.9904,4.95,4.9353,4.9353,4.9738,5.0435,5.1242,5.1426,5.1218,5.0788,5.0647,5.0412,4.9234,4.9423,0.0,4.9184,4.9361,4.9692,4.9568,4.8951,4.8377,4.8617,4.807,4.7573,4.79,4.8236,4.8483,4.8554,4.8431,4.7904,4.6577,4.5563,4.4569,4.3469,4.2789,4.2413,4.2437,4.2171,4.1841,4.1544,4.238,4.2649,4.1809,4.2179,4.2471,4.2438,4.1705,4.0818,3.9768,3.9632,3.9771,4.0132,4.0266,4.0648,4.1329,4.0929,4.0882,4.107,4.094,4.0727,0.0,0.0,0.0,0.0,0.0,0.0,0.0,0.0,0.0,0.0,0.0,3.6565,3.6632,0.0,4.3176,4.4385,4.7857,5.0842,5.2086,5.299,5.3682,5.4086,5.4156,5.4153,5.4153,5.3739,5.3504,5.3504,5.3683,5.3591,5.3181,5.3199,5.3199,5.3144,5.2793,5.2417,5.1977,5.1206,5.0618,5.0215,5.0618,5.1022,5.1426,5.2674,5.3203,5.3203,5.3203,5.3203,5.3203,5.3203,5.2491,5.1353,5.0949,5.0308,4.9647,5.0031,5.0435,5.0872,5.1295,5.1188,5.0788,5.0498,5.0389,5.0245,4.9508,4.9867,5.0371,4.9618,4.9398,4.938,4.9035,4.8397,4.7907,4.8306,4.8088,4.7888,4.8323,4.8391,4.8403,4.8356,4.8058,4.7568,4.6837,4.6025,4.52,4.4413,4.4087,4.3776,4.3339,4.3042,4.2664,4.2193,4.2535,4.2421,4.1518,4.1754,4.1917,4.1825,4.153,4.0967,4.0104,4.0113,4.0229,4.048,4.0756,4.092,4.0955,4.092,4.0756,4.0504,4.0814,4.0791,0.0,0.0,0.0,0.0,0.0,0.0,0.0,3.4284,3.5032,3.6043,3.7706,3.9209,3.9923,4.2888,4.5651,4.6723,4.9995,5.2462,5.266,5.333,5.3868,5.4016,5.3813,5.3683,5.3683,5.34,5.3203,5.3203,5.3504,5.3683,5.3683,5.3683,5.3683,5.3683,5.338,5.2894,5.2234,5.1426,5.1022,5.1022,5.1022,5.1353,5.2013,5.2821,5.3203,5.3203,5.3203,5.3203,5.3203,5.3203,5.2747,5.2013,5.216,5.1255,4.9907,5.0566,5.0931,5.103,5.0981,5.0496,4.9984,4.9928,4.9907,4.9881,4.975,5.0206,5.0554,4.9803,4.9148,4.8587,4.8052,4.7462,4.7192,4.797,4.8108,4.824,4.8714,4.8443,4.8041,4.7906,4.7428,4.7022,4.7022,4.6413,4.5669,4.4919,4.4716,4.4378,4.3741,4.3639,4.3403,4.2794,4.2591,4.2219,4.1474,4.1229,4.1058,4.0974,4.0919,4.0672,4.0138,4.0113,4.0113,4.0113,4.0504,4.0528,4.0113,4.07,4.0744,4.0316,4.0485,4.0383,2.8301,2.7493,2.764,2.9696,3.0687,3.2339,0.0,3.8102,3.867,4.0407,4.2664,4.4144,4.3466,4.5568,4.7772,4.8954,5.0489,5.1915,5.2987,5.3528,5.3423,5.2404,5.2872,5.3272,5.3272,5.3209,5.3203,5.3203,5.323,5.3272,5.3272,5.3272,5.3272,5.3272,5.3209,5.3188,5.3078,5.227,5.1867,5.1867,5.1867,5.1903,5.2013,5.2821,5.3203,5.3203,5.3203,5.3203,5.3203,5.3203,5.2747,5.205,5.2784,5.2098,5.076,5.0846,5.1316,5.186,5.1301,5.1038,5.0838,5.0195,4.9979,4.9866,4.93,4.9158,4.9093,4.8357,4.809,4.7992,4.7902,4.7838,4.7939,4.8714,4.8883,4.8714,4.8173,4.8477,4.868,4.8007,4.7804,4.78,4.78,4.7158,4.6413,4.5703,4.5026,4.4581,4.4479,4.4479,4.4445,4.4344,4.3707,4.2997,4.2219,4.2053,4.1729,4.1223,4.1003,4.0672,4.0138,4.0113,4.0113,4.0113,4.0154,4.0154,4.0113,4.0807,4.1146,4.1102,4.1745,4.1365,3.2032,3.1567,3.1559,3.3322,3.4853,3.666,3.9485,4.0818,4.1858,4.3094,4.4915,4.617,4.584,4.7633,4.9393,5.0147,5.1306,5.2197,5.2463,5.2659,5.2203,5.0769,5.1316,5.2013,5.2454,5.2931,5.3203,5.3203,5.3203,5.3203,5.3203,5.3203,5.3203,5.3203,5.3203,5.3203,5.3203,5.2417,5.2234,5.2711,5.2197,5.2234,5.2711,5.3078,5.3203,5.3203,5.3203,5.3203,5.3203,5.3203,5.3004,5.2747,5.3057,5.2819,5.2193,5.1759,5.1587,5.1419,5.0716,5.048,5.0404,4.9669,4.9402,4.9376,4.9077,4.9018,4.8951,4.8646,4.8545,4.8545,4.8545,4.8545,4.8612,4.8951,4.9018,4.8917,4.8612,4.8781,4.8917,4.8612,4.8545,4.8545,4.8545,4.7936,4.7361,4.7056,4.6346,4.5703,4.5297,4.5229,4.5229,4.5229,4.4553,4.3978,4.3667,4.2754,4.1955,4.1238,4.1529,4.1239,4.0146,4.0493,4.0527,4.0113,4.0113,4.0113,4.0113,4.0832,4.1204,4.1238,4.1948,4.1974,3.3781,3.3966,3.4338,3.6545,3.867,4.0514,4.1797,4.3351,4.4672,4.5241,4.6305,4.7113,4.7113,4.8328,4.9602,5.0311,5.1395,5.2065,5.2002,5.1793,5.1059,4.9427,4.9774,5.0325,5.0912,5.2123,5.2968,5.3167,5.3203,5.3203,5.3203,5.3203,5.3203,5.3203,5.3203,5.3203,5.3203,5.2637,5.2637,5.3167,5.2601,5.2637,5.3203,5.3203,5.3203,5.3203,5.3203,5.3203,5.3203,5.3203,5.3203,5.3203,5.3203,5.3082,5.2791,5.2089,5.1519,5.0955,5.0033,4.9756,4.9732,4.9168,4.9018,4.9018,4.9018,4.9154,4.9255,4.9052,4.9154,4.9255,4.9052,4.9018,4.9018,4.9018,4.9018,4.9018,4.9018,4.9018,4.9018,4.9018,4.9018,4.9018,4.9018,4.8578,4.8176,4.8176,4.7767,4.7056,4.6109,4.6007,4.6007,4.6007,4.5534,4.5122,4.4919,4.3673,4.2591,4.1847,4.2117,4.1813,4.0756,4.1204,4.1238,4.0722,4.0722,4.0722,4.0722,4.1441,4.1813,4.1847,4.2591,4.2929,3.1325,3.2117,3.3363,3.7978,4.091,4.3014,4.4299,4.5828,4.7003,4.7003,4.7076,4.7113,4.7113,4.7168,4.7719,4.926,5.0271,5.1116,5.1867,5.1316,5.0215,4.8526,4.8379,4.8379,4.8416,5.0618,5.2344,5.313,5.3203,5.3203,5.3203,5.3203,5.3203,5.3203,5.3203,5.3203,5.3203,5.3167,5.3167,5.3203,5.3167,5.3167,5.3203,5.3203,5.3203,5.3203,5.3203,5.3203,5.3203,5.3203,5.3203,5.3203,5.3203,5.2769,5.2065,5.1368,5.1112,5.0903,4.9492,4.9015,4.9015,4.9018,4.9018,4.9018,4.9018,4.9492,4.9898,4.9187,4.9526,4.9898,4.9187,4.9018,4.9018,4.9018,4.9018,4.9018,4.9018,4.9018,4.9018,4.9018,4.9018,4.9018,4.9018,4.8984,4.8984,4.8984,4.8951,4.8409,4.6955,4.6752,4.6752,4.6752,4.6752,4.6447,4.5737,4.4959,4.4181,4.3375,4.2692,4.2286,4.2219,4.2252,4.2252,4.2219,4.2219,4.2219,4.2219,4.2963,4.3308,4.3341,4.4147,4.4547,3.3747,3.6463,3.8887,4.1036,4.4008,4.639,4.6303,4.7113,4.7736,4.7223,4.5847,4.4709,4.4709,4.3387,4.3387,4.6581,4.7829,4.882,5.0235,5.1096,5.0362,4.7095,4.8159,4.871,4.759,4.9738,5.1536,5.2344,5.3408,5.3775,5.3203,5.4216,5.4289,5.3203,5.3739,5.3739,5.3203,5.3203,5.3203,5.3203,5.3203,5.3203,5.3203,5.3203,5.3203,5.3203,5.3203,5.3203,5.3203,5.3203,5.2915,5.245,5.245,5.2042,5.1343,5.0635,5.0362,5.0258,4.9316,4.9018,4.9018,4.9018,4.9323,4.9729,4.9729,5.0236,5.0777,5.0541,5.0642,5.0777,5.0541,5.0473,5.0473,5.0473,5.0101,4.9729,4.9729,4.9729,4.9729,4.9729,4.9729,4.9729,4.9729,4.9323,4.9018,4.9018,4.8578,4.8075,4.7597,4.753,4.753,4.753,4.753,4.7428,4.7192,4.6481,4.5534,4.4282,4.4418,4.3876,4.2354,4.276,4.2794,4.2286,4.2286,4.2286,4.2286,4.3064,4.3375,4.3409,4.4722,4.5331,3.6522,3.9772,4.2286,4.4092,4.6307,4.7841,4.7261,4.748,4.7406,4.5718,4.3938,4.247,4.1882,4.0047,4.001,4.4342,4.5259,4.6361,4.9206,4.9958,4.937,4.7021,4.7902,4.8416,4.759,4.9517,5.1132,5.194,5.3225,5.3885,5.3665,5.462,5.484,5.4069,5.4289,5.4142,5.3628,5.3314,5.3203,5.3203,5.3203,5.3371,5.3628,5.3335,5.3371,5.3628,5.3314,5.3203,5.3203,5.3203,5.2769,5.2112,5.2112,5.1692,5.1043,5.06,5.0247,4.989,4.9226,4.9018,4.9018,4.9018,4.9492,5.0101,5.0101,5.0811,5.1555,5.1252,5.1386,5.1555,5.1252,5.1185,5.1185,5.1185,5.0845,5.0473,5.0473,5.0473,5.0473,5.0473,5.0473,5.0473,5.0473,5.0101,4.9695,4.9424,4.8984,4.8612,4.8342,4.8308,4.8308,4.8308,4.8308,4.8176,4.7906,4.7462,4.6549,4.5094,4.5669,4.5331,4.3572,4.3978,4.4012,4.3504,4.3234,4.3125,4.3098,4.3876,4.4248,4.422,4.55,4.6075,3.9359,4.1889,4.3561,4.6881,4.7711,4.761,4.7187,4.6966,4.5975,4.2873,4.1442,4.0251,3.8726,3.7184,3.7734,4.258,4.2873,4.4158,4.8986,4.8379,4.7663,4.8306,4.781,4.7663,4.8379,4.9994,5.1316,5.205,5.2858,5.3665,5.4436,5.4546,5.4913,5.5596,5.4913,5.4473,5.4399,5.3592,5.3203,5.3203,5.3203,5.3607,5.4319,5.3512,5.3564,5.4239,5.3491,5.3124,5.3103,5.3124,5.2702,5.2018,5.2018,5.1629,5.1044,5.1135,5.0674,4.9971,4.9294,4.9052,4.9018,4.9052,4.956,5.0135,5.0202,5.1217,5.2232,5.1522,5.1826,5.2198,5.1522,5.132,5.132,5.132,5.1286,5.1285,5.1285,5.1285,5.1285,5.1285,5.1285,5.1251,5.1217,5.1185,5.098,5.0236,5.0135,4.9864,4.9086,4.9018,4.9018,4.9018,4.9018,4.8714,4.8007,4.7939,4.7331,4.5906,4.6481,4.6515,4.5805,4.5771,4.5771,4.5771,4.5026,4.4682,4.4682,4.5365,4.5703,4.5737,4.6481,4.6853,4.1993,4.485,4.691,4.7543,4.7707,4.7607,4.7187,4.5241,4.313,4.1682,3.8358,3.5532,3.5128,3.4724,3.6046,4.0928,4.3571,4.6287,4.9958,5.1169,5.1059,4.9463,5.0655,5.1259,5.0251,5.2197,5.3555,5.3775,5.4509,5.506,5.528,5.6418,5.6638,5.5633,5.5978,5.5611,5.4399,5.3592,5.3203,5.3203,5.3203,5.3295,5.3458,5.272,5.2498,5.2738,5.2497,5.2089,5.1679,5.2159,5.1643,5.0554,5.0554,5.0465,5.0377,5.037,5.0618,5.0793,5.0062,4.9458,4.9086,4.9627,5.0304,5.1014,5.1589,5.2435,5.3145,5.2976,5.3044,5.3145,5.2976,5.2909,5.2909,5.2909,5.2469,5.2029,5.2029,5.2029,5.2029,5.2029,5.2029,5.186,5.1286,5.1185,5.115,5.0947,5.0913,5.0473,4.9187,4.9018,4.9018,4.9018,4.9018,4.8917,4.8748,4.8714,4.8342,4.7428,4.753,4.7293,4.6549,4.6515,4.6515,4.6515,4.5805,4.5432,4.5432,4.5602,4.5703,4.5737,4.7022,4.7631,4.5213,4.7498,4.8846,4.8135,4.7697,4.7033,4.5386,4.3297,4.0928,3.7976,3.5188,3.3256,3.3256,3.2963,3.4578,4.0178,4.2323,4.4892,4.9554,5.0692,5.0949,5.0675,5.216,5.2837,5.194,5.3702,5.506,5.5427,5.5537,5.5757,5.6088,5.6969,5.7226,5.6675,5.6748,5.6051,5.4436,5.3959,5.339,5.2725,5.303,5.3253,5.3264,5.2834,5.264,5.2688,0.0,5.1739,5.1138,5.1494,5.1008,5.0004,5.0004,5.0056,5.0135,5.0473,5.0845,5.1217,5.1082,5.0574,4.9999,5.0067,5.0811,5.1758,5.2164,5.2875,5.3518,5.3518,5.3518,5.3518,5.3518,5.3518,5.3518,5.3518,5.3179,5.2841,5.2841,5.2841,5.2841,5.2841,5.2841,5.2706,5.23,5.2232,5.2097,5.1758,5.1691,5.1285,5.0135,4.9965,4.9965,4.9965,4.9965,4.983,4.9492,4.9492,4.9052,4.7973,4.8176,4.8071,4.7327,4.7293,4.7293,4.7293,4.6549,4.6177,4.6177,4.6515,4.6684,4.6718,4.7868,4.8376,4.8336,4.9537,4.9785,4.8732,4.7719,4.6085,4.2873,4.1258,3.8894,3.339,3.2179,3.2142,3.2252,3.1971,3.3807,4.0215,4.0744,4.2543,4.8783,4.9077,4.9481,5.172,5.2894,5.3518,5.3518,5.495,5.6198,5.6932,5.6308,5.6198,5.6932,5.6969,5.7299,5.796,5.7226,5.608,5.4584,5.4364,5.3577,5.2294,5.2809,5.3177,5.3399,5.3238,5.3211,5.319,5.2427,5.1652,5.0964,5.0938,5.0527,4.9861,4.9861,5.0035,5.0304,5.098,5.1352,5.1589,5.2131,5.1961,5.1386,5.0642,5.1251,5.2334,5.2435,5.2942,5.3518,5.3518,5.3518,5.3518,5.3518,5.3518,5.3518,5.3518,5.3518,5.3518,5.3518,5.3518,5.3518,5.3518,5.3518,5.3518,5.3518,5.3518,5.3281,5.257,5.2469,5.2232,5.1589,5.1352,5.1185,5.1185,5.1185,5.0947,5.0304,5.0236,4.9661,4.8277,4.8815,4.8815,4.8075,4.8041,4.8041,4.8041,4.7327,4.6955,4.6955,4.7597,4.7906,4.7906,4.8781,4.9154,4.9554,4.9787,4.9634,4.9446,4.7719,4.5259,4.2049,3.9129,3.5899,3.1531,3.0087,2.9831,3.0491,3.2118,3.5312,4.1148,4.2543,4.4672,4.9848,5.0435,5.0765,5.1867,5.3885,5.517,5.517,5.6638,5.7629,5.7776,5.7666,5.7629,5.7776,5.7776,5.785,5.7997,5.7226,5.6387,5.5498,5.4158,5.3349,5.3105,5.2608,5.2725,5.3406,5.2745,5.2486,5.2445,5.1682,0.0,5.0291,5.0224,4.978,4.9199,4.9199,4.9955,5.1048,5.1151,5.2029,5.3044,5.2503,5.2672,5.2976,5.2198,5.2097,5.2435,5.3078,5.3382,5.3518,5.3518,5.3518,5.3518,5.3518,5.3518,5.3518,5.3518,5.3518,5.3518,5.3518,5.3518,5.3518,5.3518,5.3518,5.3518,5.3518,5.3518,5.345,5.3315,5.3281,5.3247,5.3112,5.1995,5.1185,5.1185,5.1185,5.1151,5.1048,5.1014,5.0642,4.9763,4.983,4.9593,4.8849,4.8815,4.8815,4.8815,4.8105,4.7733,4.7733,4.7838,4.7906,4.7906,4.9289,4.9898,4.8661,4.9341,4.9994,4.915,4.7388,4.4709,4.023,3.7367,3.4357,2.9879,2.8631,2.8888,3.0503,3.2118,3.4614,3.9056,4.0487,4.269,4.7572,4.86,4.9664,5.1756,5.4106,5.5596,5.5596,5.7042,5.7997,5.7997,5.7997,5.7997,5.7997,5.7997,5.7821,5.7449,5.7061,5.6269,5.5107,5.4294,5.3531,5.2781,5.2787,5.2825,5.2848,5.2882,5.2725,5.2299,5.1938,5.1157,5.0132,5.0472,5.0206,4.956,4.956,5.0473,5.1725,5.132,5.2198,5.345,5.3078,5.3179,5.345,5.3044,5.2909,5.301,5.3382,5.3518,5.3518,5.3518,5.3518,5.3518,5.3518,5.3518,5.3518,5.3518,5.3518,5.3518,5.3518,5.3518,5.3518,5.3518,5.3518,5.3518,5.3518,5.3518,5.3518,5.3518,5.3518,5.3518,5.3518,5.2875,5.2401,5.2401,5.2401,5.2232,5.1826,5.1792,5.1454,5.071,5.0676,5.0338,4.9593,4.956,4.939,4.9018,4.8646,4.868,4.9052,4.9052,4.9255,4.963,5.0338,5.0676,4.8067,4.9444,5.0618,4.8783,4.7095,4.4342,3.8374,3.5826,3.328,2.8081,2.7431,2.8422,3.0503,3.1531,3.3256,3.6905,3.7734,3.968,4.4672,4.625,4.8012,5.1096,5.3943,5.5596,5.5596,5.7042,5.7997,5.7997,5.7844,5.7821,5.7997,5.7844,5.7498,5.6912,5.6721,5.5973,5.455,5.438,5.3696,5.2536,5.2984,5.2948,5.257,5.3213,5.3179,5.2536,5.2367,5.1623,0.0,5.1048,5.0879,5.0338,5.0338,5.115,5.2232,5.1657,5.2334,5.3518,5.3518,5.3518,5.3518,5.3518,5.3518,5.3518,5.3518,5.3518,5.3518,5.3518,5.3518,5.3518,5.3518,5.3518,5.3518,5.3518,5.3518,5.3518,5.3518,5.3518,5.3518,5.3518,5.3518,5.3551,5.3721,5.3754,5.3754,5.3754,5.389,5.3923,5.3754,5.389,5.3923,5.3754,5.3585,5.3247,5.2604,5.257,5.2232,5.1488,5.1454,5.1116,5.0371,5.0168,4.983,4.9255,4.9255,4.9526,5.0101,5.0236,5.0642,5.1185,5.1386,5.1454,4.9884,5.1169,5.1316,4.8893,4.7095,4.4048,3.6927,3.4578,3.2118,2.5841,2.6282,2.8081,2.906,2.9867,3.1971,3.6721,3.6303,3.7279,4.291,4.5039,4.6948,4.9537,5.3246,5.5596,5.5596,5.7042,5.7997,5.7997,5.7376,5.7302,5.7973,5.7376,5.6964,5.6912,5.6204,5.5431,5.4591,5.3931,5.3501,5.3381,5.2703,5.2738,5.3382,5.3484,5.345,5.3348,5.2638,5.2232,0.0,5.1454,5.1183,5.1083,5.1083,5.1589,5.23,5.2232,5.2739,5.3518,5.3518,5.3518,5.3518,5.3518,5.3518,5.3518,5.3518,5.3518,5.3518,5.3518,5.3518,5.3518,5.3518,5.3518,5.3518,5.3518,5.3518,5.3518,5.3518,5.3518,5.3518,5.3518,5.3518,5.3721,5.4363,5.4499,5.4499,5.4499,5.5074,5.5277,5.4566,5.5074,5.5243,5.4566,5.389,5.3484,5.3416,5.3382,5.3044,5.2266,5.2198,5.186,5.115,5.0473,5.0067,4.9999,4.9999,5.0033,5.0101,5.0777,5.1117,5.1219,5.1894,5.2198,4.5993,4.8783,5.0802,4.882,4.7095,4.4011,3.6729,3.4431,3.2265,2.6759,2.6429,2.7457,2.8767,2.8651,2.9512,3.2892,3.2942,3.4499,4.0137,4.2114,4.451,4.8483,5.1209,5.3179,5.4201,5.574,5.6867,5.7315,5.6642,5.6313,5.6606,5.6367,5.5948,5.553,5.5173,5.4665,5.3946,5.3639,5.3477,5.3518,5.3179,5.3179,5.3518,5.3518,5.3518,5.3484,5.3179,5.2739,0.0,5.2503,5.23,5.186,5.186,5.2334,5.2976,5.2469,5.2807,5.3518,5.3518,5.3518,5.3518,5.3518,5.3518,5.3518,5.3518,5.3518,5.3518,5.3518,5.3518,5.3518,5.3518,5.3518,5.3619,5.4059,5.416,5.4296,5.4735,5.4837,5.4837,5.4837,5.4837,5.4938,5.5209,5.5277,5.5277,5.5277,5.5513,5.5615,5.531,5.5547,5.5615,5.531,5.46,5.3991,5.3551,5.3518,5.3382,5.3044,5.301,5.2672,5.1894,5.1589,5.1217,5.0777,5.0777,5.098,5.142,5.1725,5.2131,5.2604,5.2909,5.301,4.2653,4.6361,4.937,4.7939,4.6214,4.313,3.6545,3.388,3.1568,2.7446,2.6796,2.731,2.8436,2.8153,2.8431,0.0,3.0842,3.2582,3.7436,3.96,4.2069,4.5852,4.8121,5.0221,5.2419,5.4741,5.6248,5.6491,5.5808,5.5379,5.5379,5.5144,5.4909,5.4637,5.4388,5.3907,5.3145,5.3382,5.3382,5.3145,5.3382,5.3518,5.3518,5.3518,5.3518,5.3518,5.3518,5.3179,0.0,5.3281,5.3179,5.2672,5.2672,5.301,5.345,5.2875,5.301,5.3518,5.3518,5.3518,5.3518,5.3518,5.3518,5.3518,5.3518,5.3518,5.3518,5.3518,5.3653,5.3822,5.3822,5.3991,5.4296,5.4803,5.4938,5.5074,5.5615,5.5681,5.5681,5.5681,5.5681,5.5749,5.6021,5.6055,5.6055,5.6055,5.6224,5.6292,5.6055,5.6224,5.6292,5.6055,5.5547,5.4871,5.3923,5.3822,5.3721,5.3518,5.3518,5.3247,5.2672,5.2435,5.2063,5.1555,5.1555,5.1792,5.23,5.2536,5.2942,5.3518,5.3518,5.3518,4.1222,4.4654,4.6929,4.614,4.4121,4.1038,3.6105,3.2509,2.9549,2.7079,2.7236,2.7787,2.7798,2.8436,2.9381,3.0617,3.08,3.191,3.5198,3.7953,4.0014,4.1033,4.3828,4.7018,5.0481,5.4506,5.6589,5.578,5.5059,5.4637,5.4637,5.3913,5.3848,5.4606,5.3881,5.3112,5.2334,5.3112,5.3112,5.2334,5.3112,5.3518,5.3518,5.3518,5.3518,5.3518,5.3518,5.3518,0.0,5.3518,5.3518,5.3484,5.3484,5.3484,5.3518,5.3484,5.3484,5.3518,5.3518,5.3518,5.3518,5.3518,5.3518,5.3518,5.3518,5.3518,5.3518,5.3518,5.4025,5.4566,5.4566,5.5141,5.5647,5.5716,5.5716,5.5716,5.5681,5.5681,5.5681,5.5681,5.5681,5.5953,5.6664,5.6799,5.6799,5.6799,5.7408,5.7611,5.6867,5.7408,5.7577,5.6867,5.6799,5.619,5.4702,5.4566,5.4262,5.3551,5.3518,5.3518,5.3484,5.2739,5.23,5.23,5.23,5.23,5.23,5.3112,5.3484,5.3518,5.3518,5.3518,3.5716,3.8469,4.0487,4.021,3.9166,3.7221,3.3403,3.1751,3.032,2.7934,2.7603,2.797,2.851,2.7973,2.8054,3.0015,3.0121,3.1086,3.4252,3.745,4.0226,4.2282,4.6612,5.0474,5.3131,5.4109,5.4883,5.5667,5.4544,5.3848,5.3848,5.3651,5.3618,5.3815,5.3618,5.3382,5.3112,5.3382,5.3382,5.3112,5.3382,5.3518,5.3518,5.3518,5.3518,5.3518,5.3518,5.3518,0.0,5.3518,5.3518,5.3518,5.3518,5.3518,5.3518,5.3518,5.3518,5.3518,5.3518,5.3518,5.3518,5.3518,5.3518,5.3518,5.3518,5.3518,5.3619,5.4093,5.4397,5.4702,5.5243,5.5547,5.5852,5.6325,5.6461,5.6596,5.7103,5.7205,5.7205,5.7205,5.7205,5.7273,5.7509,5.7543,5.7543,5.7543,5.7746,5.7983,5.8287,5.8524,5.8558,5.8355,5.8321,5.7306,5.4803,5.46,5.4296,5.3551,5.3518,5.3518,5.3518,5.3281,5.3112,5.3112,5.3112,5.3112,5.3112,5.3382,5.3518,5.3518,5.3518,5.3518,3.1971,3.4247,3.5907,3.7013,3.6069,3.433,3.2158,3.1052,3.0027,2.8371,2.8019,2.819,2.8664,2.7887,2.7713,2.9415,2.9628,3.0352,3.2627,3.5829,3.8989,4.169,4.6886,5.0592,5.1555,5.2777,5.3894,5.4818,5.4044,5.3518,5.3518,5.3518,5.3518,5.3518,5.3518,5.3348,5.3044,5.3348,5.3348,5.3044,5.3348,5.3518,5.3518,5.3518,5.3518,5.3518,5.3518,0.0,0.0,5.3518,5.3518,5.3518,5.3518,5.3518,5.3518,5.3518,5.3518,5.3518,5.3518,5.3518,5.3518,5.3518,5.3246,5.2973,5.3382,5.3687,5.4025,5.4465,5.5006,5.5547,5.6021,5.6325,5.6664,5.7103,5.7205,5.7408,5.8152,5.8321,5.8389,5.866,5.849,5.8321,5.8321,5.8084,5.7983,5.8254,5.7921,5.8077,5.9227,5.8993,5.8916,5.94,5.9167,5.8152,5.6021,5.5581,5.5108,5.4397,5.4059,5.3923,5.3923,5.3653,5.3518,5.3518,5.3518,5.3518,5.3518,5.3518,5.3518,5.3518,5.3518,5.3518,0.0,3.1568,3.2773,3.552,3.4229,3.2175,3.19,3.0376,0.0,2.8527,2.8402,2.8425,2.8461,2.812,2.8137,2.8921,2.9285,2.9747,3.0525,3.3748,3.7144,4.0146,4.5398,4.832,4.7155,5.0905,5.3438,5.3482,5.3517,5.3518,5.3518,5.3518,5.3518,5.3518,5.3518,5.3145,5.2401,5.3145,5.3112,5.2401,5.3145,5.3518,5.3518,5.3518,5.3518,0.0,5.3518,0.0,0.0,5.3416,5.3416,5.3518,5.3416,5.3416,5.3518,5.3518,5.345,5.3382,5.345,5.345,5.3382,5.3382,5.2732,5.217,5.3109,5.3888,5.4497,5.4634,5.5647,5.6691,5.6831,5.7338,5.7808,5.7949,5.7983,5.8186,5.893,5.9099,5.9302,5.9979,5.9573,5.9099,5.9099,5.8417,5.8143,5.8852,5.7897,5.7813,5.9703,5.9033,5.88,5.9919,5.9535,5.8863,5.8118,5.7273,5.6494,5.5749,5.5006,5.46,5.46,5.389,5.3518,5.3518,5.3518,5.3551,5.3653,5.3551,5.3551,5.3653,5.3619,5.3619,2.7236,0.0,2.7464,2.9083,2.921,2.899,0.0,2.9125,2.8964,2.8893,2.8602,2.8606,2.9192,2.8301,2.7859,2.9169,2.9231,2.9393,3.0141,3.5791,4.1001,4.4045,4.8065,5.0275,4.9424,5.1275,5.2821,5.3466,5.3476,5.3518,5.3518,5.3518,5.3518,5.3518,5.3518,5.3416,5.3213,5.3416,5.3416,5.3213,5.3416,5.3518,5.3518,5.3518,5.3518,5.3518,5.3518,0.0,5.3416,5.2627,5.2765,5.3416,5.2592,5.28,5.3518,5.3518,5.2973,5.2383,5.3213,5.2939,5.2277,5.2277,5.2662,5.297,5.2137,5.2585,5.3651,5.5033,5.5448,5.5846,5.7294,5.7126,5.6982,5.8407,5.8761,5.8964,5.9674,5.9844,5.9911,6.008,5.9945,5.9844,5.9844,5.892,5.827,5.8436,5.746,5.7055,5.814,5.8829,5.9317,5.9636,6.0326,6.0452,5.9641,5.7881,5.6494,5.5749,5.5006,5.46,5.46,5.389,5.3518,5.3518,5.3518,5.4059,5.5209,5.4059,5.4093,5.5175,5.46,5.4634,2.5648,2.5495,2.555,2.7308,2.7622,2.7682,2.8247,2.8725,2.8905,2.8576,2.8321,2.8241,2.8486,2.7701,2.7461,2.878,2.9553,3.0871,3.3322,3.8328,4.2557,4.4925,4.8139,5.0187,5.0099,5.1437,5.2462,5.2909,5.3275,5.3518,5.3518,5.3518,5.3518,5.3518,5.3518,5.3518,5.3518,5.3518,5.3518,5.3518,5.3518,5.3518,5.3518,5.3518,5.3518,5.3518,5.3518,0.0,5.3416,5.2348,5.2241,5.2662,5.1631,5.1849,5.2697,5.2274,5.2026,5.1921,5.2026,5.1704,5.1257,5.1582,5.1717,5.181,5.1827,5.2125,5.2803,5.4301,5.4776,5.5082,5.6138,5.6151,5.6197,5.7185,5.7668,5.8056,5.8822,5.9028,5.9127,5.9416,5.9218,5.9028,5.9028,5.8418,5.8063,5.8387,5.7663,5.7597,5.8887,5.9164,5.9528,6.0351,6.072,6.0811,6.0685,5.8896,5.7645,5.7236,5.619,5.5615,5.5615,5.4905,5.4532,5.4532,5.4532,5.4905,5.5681,5.4905,5.4938,5.5716,5.531,5.5344,2.503,2.5111,2.5505,2.7538,2.7697,2.7471,2.8102,2.854,2.8651,2.8024,2.7855,2.7815,2.7816,2.7467,2.7657,2.8956,3.0795,3.3626,3.8125,4.1102,4.3335,4.4784,4.7428,4.9357,4.9864,5.1285,5.2198,5.23,5.3044,5.3518,5.3518,5.3518,5.3518,5.3518,5.3382,5.3315,5.3315,5.345,5.3382,5.3145,5.3382,5.345,5.3315,5.345,5.3518,5.3518,0.0,0.0,5.3179,5.2134,5.1667,5.1561,5.055,5.0779,5.1594,5.0703,5.0855,5.1303,5.0563,5.0338,5.0486,5.112,5.0749,5.032,5.1609,5.1936,5.2082,5.2902,5.3724,5.4411,5.4675,5.507,5.542,5.5815,5.6326,5.689,5.7712,5.7872,5.8032,5.8684,5.8288,5.7904,5.8,5.7777,5.782,5.8532,5.8119,5.8275,5.9917,5.9416,5.9487,6.1008,6.0803,6.0812,6.1284,6.0102,5.9261,5.9111,5.7637,5.6765,5.663,5.6055,5.5749,5.5886,5.5784,5.5818,5.6055,5.5818,5.5818,5.6055,5.5919,5.5953,2.6225,2.634,2.602,2.644,2.7155,2.772,2.7542,2.7762,2.8037,2.7926,2.7636,2.7955,2.9764,2.9792,3.0262,3.2286,3.4481,3.7483,4.1922,4.4079,4.55,4.6346,4.8511,4.9729,4.9221,5.0507,5.1623,5.2266,5.3044,5.3518,5.3518,5.3518,5.3518,5.3518,5.2841,5.2469,5.2469,5.3179,5.2841,5.1589,5.2875,5.3145,5.2503,5.3179,5.3518,5.3518,0.0,5.2973,5.2098,5.1043,5.0627,5.0512,4.9456,4.9694,5.0589,5.0435,4.9931,4.9318,4.9749,5.0119,5.0466,5.0767,5.1004,5.111,5.0642,5.11,5.177,5.1577,5.2303,5.3509,5.507,5.4818,5.4666,5.6854,5.7457,5.7744,5.8448,5.8652,5.8684,5.878,5.8716,5.8799,5.9375,5.8625,5.8114,5.8767,5.7922,5.7308,5.7604,5.8358,5.8993,5.926,6.0593,6.1475,6.1546,6.1186,6.0505,5.9488,5.7771,5.6528,5.5884,5.5784,5.6021,5.663,5.6021,5.6325,5.7543,5.6325,5.6359,5.7543,5.6934,5.6968,2.4499,2.482,2.5261,2.6713,2.7914,2.8576,2.7797,2.8085,2.8426,2.8202,2.8037,2.8522,3.0564,3.1123,3.2544,3.64,3.8903,4.1373,4.4248,4.5602,4.6583,4.7327,4.8646,4.9357,4.9052,5.0338,5.132,5.1691,5.2435,5.3044,5.3484,5.3078,5.2841,5.2841,5.2131,5.1522,5.1116,5.186,5.2097,5.1826,5.2503,5.2875,5.2976,5.3348,5.3518,5.345,0.0,5.2348,5.1776,5.0204,4.9536,4.9416,4.8377,4.8594,4.9536,4.9536,4.8882,4.8079,4.8748,4.912,4.9396,5.0188,5.0608,5.0734,5.0727,5.1074,5.1425,5.1249,5.186,5.2719,5.3544,5.3913,5.4365,5.5516,5.6367,5.6985,5.7294,5.7634,5.7881,5.7881,5.7881,5.7973,5.8313,5.8215,5.8125,5.8428,5.8301,5.8171,5.8171,5.867,5.9112,5.9394,6.0152,6.0945,6.1567,6.0515,5.944,5.8411,5.6941,5.5975,5.5647,5.626,5.693,5.7592,5.7924,5.8423,5.9099,5.7725,5.7458,5.8091,5.71,5.6664,2.3211,2.3757,2.4771,2.6775,2.822,2.9161,2.9387,2.9731,3.0052,3.0075,2.9953,3.0395,3.2164,3.3546,3.5746,3.9943,4.2625,4.479,4.6481,4.7056,4.7665,4.8548,4.8883,4.9154,4.9492,5.0405,5.1014,5.1217,5.1894,5.2503,5.2942,5.2536,5.2232,5.2063,5.1352,5.0676,5.0101,5.0676,5.1251,5.1792,5.2131,5.2638,5.3247,5.3416,5.3348,5.3076,5.2277,5.1598,5.108,4.9456,4.8677,4.8377,4.7624,4.7764,4.846,4.846,4.8037,4.7638,4.8297,4.8506,4.8745,4.9986,5.0315,5.0315,5.102,5.1229,5.1259,5.1409,5.1917,5.2426,5.2426,5.3324,5.4281,5.4581,5.5448,5.6248,5.6346,5.6765,5.7094,5.7094,5.7094,5.7184,5.7513,5.7992,5.8471,5.877,5.9249,5.9578,5.9578,5.9578,5.9657,5.9951,6.0065,6.0383,6.112,5.9505,5.8039,5.7131,5.6262,5.5826,5.5826,5.6947,5.7851,5.8264,5.9203,5.9665,5.9665,5.8624,5.8115,5.8115,5.7152,5.6506,2.4448,2.5137,2.5523,2.571,2.6843,2.8994,3.3066,3.3562,3.3473,3.482,3.4549,3.4549,3.6118,3.8667,4.0899,4.1948,4.4621,4.7293,4.9458,4.9221,4.939,5.0811,4.9796,4.956,5.0881,5.0507,5.0473,5.1151,5.1894,5.2029,5.142,5.1961,5.1995,5.1319,5.0574,5.0135,5.0101,5.0135,5.0202,5.027,5.1657,5.2334,5.2401,5.3179,5.2939,5.1993,5.1921,5.0784,4.9013,4.8851,4.8252,4.7409,4.7352,4.7352,4.7409,4.7409,4.7785,4.8297,4.903,4.9239,4.9449,5.072,5.0704,5.0315,5.102,5.1229,5.1349,5.1947,5.2606,5.3114,5.3114,5.3653,5.4521,5.5748,5.6158,5.6316,5.6885,5.7064,5.7094,5.7094,5.7094,5.7483,5.874,5.9009,5.9458,6.0715,6.0954,6.0984,6.0984,6.0984,6.077,6.0161,6.056,6.0571,5.9982,5.8766,5.7476,5.6186,5.6296,5.6475,5.6475,5.7581,5.8231,5.8297,5.8378,5.8419,5.8419,5.7829,5.754,5.754,5.7452,5.7376,2.317,2.4769,2.6623,2.8027,2.9499,3.0784,3.1596,3.3322,3.4923,3.5498,3.6163,3.7077,3.8589,4.0899,4.297,4.4215,4.6143,4.8105,4.983,4.9864,4.9898,5.0439,4.9999,4.9729,4.983,4.9593,4.9729,5.0473,5.0777,5.1014,5.1217,5.1048,5.0811,5.0507,4.9796,4.9424,4.9424,4.9864,5.0338,5.0811,5.1826,5.257,5.3078,5.3382,5.328,5.2835,5.1521,5.0512,4.9694,4.8418,4.7636,4.7309,4.7309,4.7309,4.7309,4.7309,4.7728,4.8386,4.909,4.9523,5.0032,5.093,5.105,5.0853,5.1139,5.1498,5.1887,5.2127,5.2995,5.3832,5.3832,5.4311,5.5029,5.6008,5.6466,5.6944,5.7573,5.8052,5.8471,5.886,5.8949,5.9249,6.0176,6.0356,6.0535,6.1044,6.1104,6.1104,6.1104,6.1104,6.0835,6.0146,6.018,5.9838,5.8826,5.8634,5.8023,5.6768,5.5651,5.5064,5.5064,5.6632,5.7489,5.7489,5.8651,5.9229,5.9229,5.9088,5.9215,5.9585,5.8434,5.7872,2.2023,2.4289,2.7063,2.8653,3.1021,3.2936,3.2645,3.4518,3.6648,3.7831,3.8879,3.9817,4.0324,4.2083,4.3646,4.4485,4.6481,4.8274,4.9255,4.9593,4.9729,4.9729,4.9729,4.956,4.9052,4.9018,4.9221,4.9695,4.9965,5.0202,5.0507,5.0236,4.9965,4.9763,4.9255,4.9018,4.9018,4.9965,5.071,5.1185,5.2232,5.2976,5.3518,5.3518,5.3144,5.2451,5.1038,5.0009,4.9327,4.7892,4.7309,4.7309,4.7309,4.7309,4.7309,4.7309,4.7728,4.8386,4.909,4.9703,5.0315,5.0973,5.1229,5.1259,5.1468,5.1858,5.2306,5.2725,5.3503,5.4311,5.473,5.5149,5.5658,5.6316,5.6944,5.7663,5.856,5.9099,5.9608,6.0296,6.0416,6.0625,6.1313,6.1433,6.1493,6.1702,6.1732,6.1732,6.1732,6.1732,6.1463,6.0805,6.0448,5.9848,5.8794,5.9105,5.8723,5.7476,5.6166,5.5359,5.5119,5.6696,5.7611,5.7611,5.8861,5.9538,5.9538,5.938,5.9774,6.0646,5.934,5.8763,2.1427,2.3932,2.6725,2.6759,3.0649,3.5115,3.7381,3.7922,3.8971,4.2598,4.3375,4.2936,4.1474,4.2422,4.3166,4.2422,4.5466,4.7872,4.7906,4.8545,4.9018,4.9018,4.9018,4.9018,4.9018,4.9018,4.9018,4.9018,4.9661,4.9763,4.9052,4.9695,4.9729,4.9018,4.9018,4.9018,4.9018,5.0473,5.1185,5.1219,5.2773,5.3484,5.3518,5.3518,5.2381,5.0397,5.0397,4.9247,4.7309,4.7309,4.7309,4.7309,4.7309,4.7309,4.7309,4.7309,4.7728,4.8386,4.909,4.9703,5.0315,5.0973,5.1229,5.1349,5.2007,5.2217,5.2486,5.3832,5.4221,5.4521,5.5888,5.6248,5.6346,5.6944,5.7633,5.8471,5.9787,6.0086,6.0296,6.0984,6.1134,6.1343,6.2002,6.2121,6.2331,6.2989,6.3079,6.3079,6.3079,6.3079,6.281,6.2181,6.1493,6.0835,6.0146,6.0086,5.9548,5.8231,5.8141,5.7842,5.7124,5.8237,5.8907,5.8907,5.8907,5.8907,5.8907,5.8382,5.8819,6.0109,6.0109,6.0109,2.2815,2.5845,2.933,3.0398,3.341,3.6592,3.8261,3.8667,3.9276,4.1407,4.3132,4.3775,4.2252,4.32,4.4147,4.3972,4.5703,4.7327,4.7804,4.8545,4.9018,4.9018,4.9018,4.9018,4.9018,4.9018,4.9018,4.9018,4.9187,4.9221,4.9018,4.9221,4.9221,4.9018,4.9018,4.9018,4.9018,4.9965,5.0676,5.1185,5.2198,5.2942,5.3518,5.3518,5.2765,5.1414,5.0703,4.9615,4.8293,4.7624,4.7309,4.7309,4.7309,4.7309,4.7309,4.7309,4.8027,4.906,4.9239,5.0002,5.096,5.1169,5.1528,5.1947,5.2127,5.2875,5.3713,5.4102,5.488,5.5688,5.6128,5.6855,5.7603,5.7782,5.7992,5.8471,5.9787,6.0086,6.0416,6.1583,6.1792,6.2002,6.266,6.278,6.2839,6.3049,6.3079,6.3079,6.3079,6.266,6.2301,6.2121,6.1493,6.1044,6.0835,6.0805,6.0655,6.0266,6.0236,5.9279,5.7184,5.791,5.8118,5.7635,5.8088,5.836,5.836,5.9561,6.0578,6.1454,6.0958,6.0989,2.3695,2.7131,3.0954,3.2733,3.5678,3.8352,3.9233,4.0383,4.1542,4.276,4.4079,4.4756,4.3809,4.391,4.4215,4.4547,4.5568,4.6616,4.7361,4.8105,4.8578,4.8578,4.8578,4.8443,4.8139,4.8139,4.824,4.8545,4.8308,4.824,4.8545,4.8578,4.8578,4.8578,4.8849,4.9018,4.9018,4.9729,5.0304,5.0777,5.1522,5.1932,5.2033,5.2602,5.2277,5.1229,4.9773,4.88,4.8126,4.7538,4.7309,4.7309,4.7309,4.7309,4.7339,4.7608,4.8207,4.9,4.9464,5.0182,5.0853,5.1439,5.1887,5.2306,5.2845,5.3563,5.4311,5.485,5.5568,5.6338,5.6825,5.7543,5.8201,5.8441,5.871,5.9279,6.0595,6.0894,6.1194,6.2271,6.248,6.26,6.3019,6.3079,6.3079,6.3079,6.3079,6.3079,6.3079,6.272,6.248,6.248,6.2121,6.1882,6.1882,6.1882,6.1792,6.1523,6.1493,6.0655,5.877,5.9099,5.9129,5.871,5.9099,5.9308,5.9308,6.0472,6.1528,6.2393,6.196,6.1867,2.4169,2.7723,3.1596,3.4066,3.754,4.035,4.0485,4.2685,4.479,4.5128,4.5534,4.5737,4.5534,4.4485,4.3842,4.4513,4.5196,4.594,4.6616,4.7327,4.7804,4.7804,4.7804,4.7564,4.6853,4.6786,4.709,4.7767,4.7192,4.709,4.7736,4.7804,4.7804,4.7804,4.8511,4.8917,4.8917,4.9627,5.0002,5.0006,5.0649,5.0526,4.971,5.1128,5.1238,5.0126,4.8157,4.7309,4.7309,4.7309,4.7309,4.7309,4.7309,4.7309,4.7369,4.8027,4.8327,4.8566,4.9747,5.0255,5.0554,5.1798,5.2276,5.2606,5.3832,5.4311,5.464,5.5837,5.6308,5.6645,5.7872,5.8261,5.8471,5.9219,5.9727,6.0446,6.1792,6.2091,6.2301,6.2959,6.3079,6.3079,6.3079,6.3079,6.3079,6.3079,6.3079,6.3079,6.3079,6.3079,6.3079,6.3079,6.3079,6.3079,6.3079,6.3079,6.281,6.2211,6.2181,6.1912,6.1313,6.1164,6.1104,6.1104,6.1104,6.1104,6.1104,6.1164,6.18,6.2924,6.2924,6.2584,2.4661,2.7368,3.0567,3.517,3.9097,4.2117,4.3362,4.4587,4.4654,4.188,4.4113,4.6007,4.4248,4.4592,4.506,4.4682,4.5196,4.5771,4.5906,4.6583,4.7022,4.7022,4.7022,4.6955,4.6819,4.6786,4.6853,4.7022,4.6887,4.6853,4.7022,4.7022,4.7022,4.7022,4.7767,4.8142,4.8142,4.8883,4.9145,0.0,4.9161,4.905,4.8723,5.0317,5.0343,4.9054,4.7849,4.7309,4.7309,4.7309,4.7309,4.7309,4.7309,4.7309,4.7369,4.8027,4.8626,4.9164,4.9972,5.0853,5.1828,5.2097,5.2905,5.3832,5.4132,5.494,5.5807,5.6107,5.6915,5.7902,5.868,5.9279,5.9967,6.1164,6.0745,6.0446,6.1792,6.2091,6.2301,6.2959,6.3079,6.3079,6.3079,6.3079,6.3079,6.3079,6.3079,6.3079,6.3079,6.3079,6.3079,6.3079,6.3079,6.3079,6.3079,6.3079,6.3019,6.2869,6.2869,6.281,6.266,6.1672,6.1104,6.1104,6.1104,6.1104,6.1104,6.1642,6.2051,6.2272,6.2272,6.2212,2.4695,2.7774,3.1481,3.7415,4.0358,4.2083,4.3261,4.4079,4.3944,4.161,4.3876,4.5805,4.4248,4.4621,4.5026,4.4682,4.4925,4.5297,4.5669,4.6041,4.6278,4.6278,4.6278,4.6109,4.5771,4.5766,4.5872,4.6244,4.6278,4.6278,4.6278,4.6616,4.6469,4.5678,4.6684,4.7252,4.7283,4.7536,4.7803,4.8165,4.7727,4.7352,4.7176,4.8366,4.845,4.7585,4.7056,4.701,4.7309,4.7309,4.7309,4.7309,4.7309,4.7489,4.7848,4.8506,4.9164,4.9883,5.084,5.1618,5.2306,5.2965,5.3653,5.4281,5.4581,5.5388,5.6278,5.6526,5.7573,5.874,5.9398,6.0086,6.0835,6.1852,6.1553,6.1343,6.2361,6.257,6.266,6.3019,6.3079,6.3079,6.3079,6.3079,6.3079,6.3079,6.3079,6.3079,6.3079,6.3079,6.3079,6.3079,6.3079,6.3079,6.3079,6.3079,6.3079,6.3079,6.3079,6.3079,6.3079,6.2421,6.2061,6.2061,6.2061,6.2061,6.2061,6.2391,6.257,6.257,6.257,6.2391,2.4071,2.8146,3.2848,3.8903,4.073,4.1204,4.1948,4.2692,4.3064,4.2422,4.4012,4.5263,4.4519,4.4513,4.4615,4.4615,4.4615,4.479,4.5432,4.5399,4.5297,4.5297,4.5196,4.4925,4.4418,4.4384,4.4688,4.5466,4.5635,4.5635,4.5534,4.621,4.5857,4.4273,4.5596,4.6256,4.6159,4.6173,4.6488,4.7104,4.6138,4.5551,4.5311,4.5973,4.6234,4.6142,4.6142,4.6531,4.713,4.713,4.7219,4.7309,4.7309,4.7698,4.8356,4.906,4.9673,5.0375,5.1618,5.2187,5.2546,5.3683,5.4251,5.464,5.5179,5.5897,5.6645,5.7274,5.8321,5.9458,6.0236,6.0864,6.1433,6.2121,6.2271,6.2421,6.2959,6.3079,6.3079,6.3079,6.3079,6.3079,6.3079,6.3079,6.3079,6.3079,6.3079,6.3079,6.3079,6.3079,6.3079,6.3079,6.3079,6.3079,6.3079,6.3079,6.3079,6.3079,6.3079,6.3079,6.3079,6.3079,6.3079,6.3079,6.3079,6.3079,6.3079,6.3079,6.3079,6.3079,6.3079,6.278,2.2076,2.7334,3.3004,3.6524,3.8836,4.0434,4.117,4.1914,4.2422,4.232,4.3599,4.4485,4.3707,4.4113,4.4615,4.4615,4.4615,4.4649,4.475,4.4147,4.3713,4.3713,4.3132,4.2963,4.3538,4.3572,4.391,4.4716,4.5331,4.5432,4.4784,4.5432,4.5119,4.3517,4.4807,4.5179,4.4455,4.5603,4.5818,4.5153,4.4167,4.3645,4.3608,4.3737,4.4378,4.5424,4.5424,4.5813,4.6399,4.6399,4.68,4.7309,4.7309,4.7698,4.8356,4.906,4.9673,5.0315,5.1079,5.2097,5.3084,5.3264,5.4491,5.5927,5.6068,5.6885,5.7992,5.865,5.9368,6.0236,6.1493,6.1882,6.2121,6.278,6.2959,6.2959,6.3049,6.3079,6.3079,6.3079,6.3079,6.3079,6.3079,6.3079,6.3079,6.3079,6.3079,6.3079,6.3079,6.3079,6.3079,6.3079,6.3079,6.3079,6.3079,6.3079,6.3079,6.3079,6.3079,6.3079,6.3079,6.3079,6.3079,6.3079,6.3079,6.3079,6.3079,6.3079,6.3079,6.3079,6.3079,6.3019,2.3294,2.7232,3.1278,3.4663,3.7212,3.9048,3.9817,4.0865,4.1576,4.1136,4.2279,4.32,4.2861,4.3403,4.3775,4.3396,4.3639,4.3775,4.3369,4.2997,4.2794,4.2794,4.2489,4.2591,4.3308,4.3375,4.3741,4.4547,4.5263,4.5365,4.4649,4.5297,4.4745,4.2647,4.3556,4.3842,4.3375,4.3842,4.4035,4.3966,4.3527,4.329,4.329,4.329,4.3798,4.4766,4.5125,4.5693,4.6309,4.6711,4.704,4.7309,4.7309,4.7938,4.891,4.9209,4.9912,5.0883,5.1977,5.2695,5.3354,5.4491,5.5499,5.6226,5.6585,5.7603,5.874,5.9009,6.0116,6.1343,6.1942,6.2361,6.272,6.3019,6.3079,6.3079,6.3079,6.3079,6.3079,6.3079,6.3079,6.3199,6.3528,6.3588,6.3588,6.3588,6.3588,6.3468,6.3109,6.3079,6.3079,6.3079,6.3079,6.3228,6.3558,6.3258,6.3228,6.3558,6.3258,6.3079,6.3079,6.3408,6.3588,6.3588,6.3258,6.3079,6.3079,6.3079,6.3079,6.3079,6.3079,6.3079,2.3902,2.6285,2.8705,3.2205,3.481,3.6806,3.8125,3.9445,4.0324,4.0146,4.0993,4.1711,4.1711,4.2489,4.2963,4.2388,4.276,4.2929,4.2388,4.2117,4.2016,4.2016,4.1847,4.2016,4.2794,4.3031,4.347,4.4215,4.5162,4.5365,4.4649,4.5231,4.4489,4.2078,4.2582,4.2673,4.2202,4.2342,4.265,4.309,4.323,4.329,4.329,4.329,4.3559,4.4067,4.4766,4.5424,4.6112,4.677,4.7249,4.7549,4.7549,4.8356,4.9523,4.9523,5.0242,5.1379,5.2546,5.3054,5.3443,5.5119,5.6017,5.6526,5.7154,5.8291,5.9428,5.9757,6.0954,6.2121,6.2301,6.272,6.3079,6.3079,6.3079,6.3079,6.3079,6.3079,6.3079,6.3079,6.3199,6.3408,6.3707,6.4036,6.4216,6.4036,6.4156,6.4096,6.3617,6.3558,6.3558,6.3558,6.3558,6.3767,6.4216,6.3827,6.3767,6.4246,6.3827,6.3558,6.3558,6.4006,6.4246,6.4246,6.3797,6.3498,6.3318,6.3139,6.3079,6.3079,6.3079,6.3079,2.2009,2.3579,2.5455,2.8536,3.0939,3.3343,3.6254,3.7516,3.8464,3.9842,4.018,4.0214,4.0214,4.1399,4.232,4.2286,4.232,4.232,4.2286,4.1711,4.1271,4.1271,4.0629,4.0519,4.1238,4.1948,4.2658,4.3409,4.4857,4.5365,4.4649,4.5133,4.4361,4.2078,4.2479,4.1996,4.0531,4.1752,4.241,4.244,4.303,4.329,4.329,4.329,4.3319,4.3379,4.4077,4.4736,4.5394,4.6082,4.71,4.8237,4.8237,4.9045,5.0136,5.0136,5.0584,5.1319,5.2007,5.2665,5.3294,5.4072,5.5568,5.7184,5.7872,5.8979,6.0296,6.1583,6.2002,6.2241,6.2869,6.3049,6.3079,6.3079,6.3079,6.3079,6.3079,6.3079,6.3079,6.3079,6.3558,6.3767,6.3228,6.4156,6.4755,6.4096,6.4545,6.4964,6.4934,6.4934,6.4934,6.4934,6.4934,6.4934,6.4964,6.4934,6.4934,6.4964,6.4934,6.4934,6.4934,6.4964,6.4964,6.4964,6.4934,6.4605,6.3947,6.3378,6.3079,6.3079,6.3079,6.3079,2.2144,2.3376,2.488,2.642,2.8518,3.0601,3.2138,3.4167,3.5994,3.7009,3.8362,3.9537,4.0011,4.0899,4.1441,4.0959,4.1271,4.1441,4.0959,4.0654,4.0493,4.0493,4.0282,4.0383,4.1136,4.188,4.2591,4.3341,4.4384,4.4625,4.3802,4.3968,4.3165,4.1229,4.1327,4.1102,4.0397,4.1752,4.241,4.241,4.303,4.329,4.329,4.329,4.329,4.3349,4.4466,4.5065,4.5394,4.6501,4.7219,4.7698,4.8117,4.8835,4.9673,5.0046,5.0614,5.1379,5.2456,5.2995,5.3503,5.5448,5.6526,5.7393,5.8919,6.0027,6.0924,6.1852,6.2391,6.278,6.3019,6.3079,6.3079,6.3079,6.3079,6.3199,6.3588,6.3348,6.3199,6.3588,6.3857,6.4186,6.4844,6.5353,6.5562,6.5323,6.5503,6.5503,6.5084,6.5024,6.5024,6.5024,6.5024,6.5203,6.5622,6.5263,6.5203,6.5622,6.5263,6.5024,6.5024,6.5832,6.6281,6.6281,6.6281,6.5742,6.4665,6.4006,6.3677,6.3647,6.3258,6.3079,2.2598,2.3376,2.4372,2.5372,2.6725,2.818,2.9431,3.163,3.3728,3.4979,3.684,3.8488,3.9233,3.9749,4.0087,4.0113,4.0493,4.0663,4.018,4.0113,4.0113,4.0113,4.0113,4.0282,4.0764,4.129,4.1835,4.2546,4.3084,0.0,4.2862,4.2779,4.2105,4.0646,4.0151,3.996,4.0068,4.0935,4.1632,4.2081,4.2701,4.312,4.329,4.329,4.3409,4.3678,4.4825,4.5304,4.5394,4.6741,4.7578,4.7997,4.8446,4.9164,4.9972,5.0421,5.0943,5.1708,5.2785,5.3473,5.4162,5.6137,5.7094,5.7782,5.9548,6.0565,6.1313,6.2181,6.275,6.3079,6.3079,6.3079,6.3079,6.3079,6.3228,6.3498,6.3917,6.3677,6.3588,6.4216,6.4515,6.4874,6.5562,6.6041,6.6251,6.6041,6.6191,6.6191,6.5742,6.5682,6.5682,6.5682,6.5682,6.5862,6.6311,6.5951,6.5862,6.6311,6.5922,6.5772,6.6011,6.6849,6.7418,6.7657,6.7448,6.6879,6.6011,6.4904,6.4216,6.3977,6.3588,6.3258,0.0,0.0,0.0,2.5236,2.5575,2.615,2.84,3.0025,3.1698,3.3931,3.5611,3.6931,3.7686,3.7855,3.8328,3.9774,4.0045,4.0079,4.0079,4.0079,4.0113,4.0113,4.0087,4.0087,4.0113,4.0094,4.0325,4.0959,4.1001,4.1277,4.1885,4.1721,4.125,4.0404,3.908,3.8721,3.9373,3.9373,4.0068,4.1384,4.2081,4.2701,4.329,4.329,4.3648,4.4347,4.5005,4.5304,4.5424,4.677,4.8057,4.9269,4.9299,5.0062,5.1199,5.1229,5.1648,5.2306,5.2995,5.4102,5.5299,5.6068,5.7094,5.8411,5.9727,6.0595,6.1403,6.272,6.3079,6.3079,6.3079,6.3079,6.3079,6.3109,6.3558,6.4006,6.4036,6.4066,6.4246,6.4934,6.5562,6.5802,6.5203,6.6131,6.6759,6.6131,6.658,6.6999,6.6999,6.6999,6.7029,6.7029,6.7029,6.7029,6.7029,6.6999,6.6999,6.7029,6.7029,6.7328,6.7956,6.8016,6.8345,6.9004,6.8375,6.8016,6.7986,6.6011,6.4695,6.4036,6.3977,6.3706,2.4305,0.0,0.0,0.0,0.0,0.0,2.6285,2.7266,2.8721,3.1529,3.2903,3.4121,3.5904,3.6705,3.7235,3.7642,3.8623,3.9276,3.9276,3.9774,4.0113,4.0113,3.9584,3.9447,4.0028,3.9572,3.9556,0.0,4.0739,4.0801,4.0346,4.0143,3.9932,3.9679,3.8841,3.8721,3.9373,3.9373,4.0068,4.1384,4.2081,4.2701,4.329,4.329,4.3648,4.4347,4.5005,4.5574,4.6112,4.695,4.7788,4.8596,4.912,4.9763,5.0584,5.1588,5.2037,5.2426,5.4072,5.488,5.5448,5.7064,5.8141,5.9069,6.0416,6.1283,6.2002,6.2839,6.3079,6.3079,6.3079,6.3079,6.3199,6.3647,6.3887,6.4276,6.5233,6.5443,6.5503,6.5712,6.5892,6.6101,6.64,6.6759,6.6939,6.6759,6.6879,6.6999,6.6999,6.7418,6.7687,6.7687,6.7687,6.7687,6.7687,6.7268,6.7208,6.7657,6.7687,6.8016,6.8704,6.9183,6.9512,6.9722,6.9512,6.9183,6.8704,6.67,6.5383,6.4725,6.3767,6.3743,0.0,0.0,0.0,2.5455,0.0,0.0,2.5507,2.5947,2.6996,2.9702,3.0345,3.1123,3.3355,3.3626,3.3749,3.4358,3.569,3.7212,3.8768,3.9368,3.9615,3.9603,3.9183,3.8962,3.9102,3.8402,3.8227,3.902,3.9345,3.9546,3.9558,3.9455,3.9373,3.9373,3.8751,3.8721,3.9373,3.914,3.9798,4.1422,4.1811,4.2432,4.329,4.3589,4.4067,4.4766,4.5424,4.6112,4.68,4.7429,4.8087,4.879,4.9179,4.9823,5.0734,5.1828,5.2366,5.2815,5.4281,5.5299,5.6166,5.7334,5.853,5.9727,6.0775,6.1583,6.2241,6.2899,6.3079,6.3079,6.3079,6.3079,6.3169,6.3528,6.4036,6.4635,6.5413,6.6041,6.643,6.643,6.643,6.655,6.6939,6.7208,6.7298,6.7029,6.7478,6.7717,6.7448,6.7986,6.8405,6.8405,6.8136,6.8076,6.8375,6.7777,6.7687,6.8345,6.8405,6.8704,6.9393,6.9782,7.0111,7.035,7.0111,6.9512,6.8555,6.7388,6.6191,6.4994,6.4246,6.4021,0.0,0.0,0.0,0.0,2.6319,0.0,2.5981,2.5845,2.6353,2.857,2.8281,2.8331,3.0446,2.989,2.9517,3.0751,3.2341,3.4641,3.8125,3.8768,3.8824,3.8692,3.8662,3.8394,3.7751,3.6963,3.6786,3.7436,3.7397,3.7883,3.923,3.932,3.9313,3.9373,3.8751,3.8721,3.9373,3.8811,3.9469,4.1422,4.1482,4.2132,4.3319,4.3977,4.4676,4.5334,4.6022,4.6681,4.7369,4.8027,4.8686,4.9329,4.9389,5.0182,5.1409,5.2067,5.2725,5.3414,5.4251,5.5658,5.7124,5.7363,5.868,6.0326,6.1014,6.1672,6.2331,6.2899,6.3079,6.3079,6.3079,6.3079,6.3109,6.3258,6.4186,6.5054,6.5203,6.6161,6.6999,6.6999,6.6999,6.6999,6.6999,6.7537,6.7777,6.7178,6.8196,6.8764,6.8166,6.8675,6.9123,6.9093,6.8555,6.8435,6.9064,6.8495,6.8375,6.9064,6.9123,6.9393,7.0051,7.0081,7.035,7.0889,7.029,6.9363,6.8076,6.7926,6.6939,6.5144,6.4994,6.4454,0.0,0.0,0.0,0.0,2.7486,0.0,2.818,2.7368,2.6962,2.8637,2.7893,2.7232,2.8263,2.9244,2.9803,2.9484,3.1664,3.4066,3.5971,3.7347,3.7883,3.729,3.7151,3.7066,3.6982,3.6199,3.6035,3.6755,3.673,3.7225,3.8512,3.8601,3.8841,3.9409,3.8751,3.8721,3.9373,3.929,3.9948,4.1384,4.1961,4.2581,4.3319,4.3977,4.4676,4.5334,4.6022,4.6681,4.7369,4.8027,4.8686,4.9359,4.9853,5.084,5.2097,5.2755,5.3414,5.4251,5.5957,5.6765,5.7363,5.8979,6.0146,6.1044,6.1702,6.2361,6.2899,6.3049,6.3079,6.3079,6.3079,6.3079,6.3348,6.4395,6.4844,6.5323,6.637,6.6819,6.6999,6.6999,6.6999,6.6999,6.6999,6.7537,6.7989,6.7807,6.8495,6.8944,6.8824,6.9363,6.9782,6.9752,6.9662,6.9632,6.9782,6.9183,6.9093,6.9752,6.9782,7.0081,7.0709,7.0709,7.0769,7.0889,7.029,6.9602,6.8794,6.7717,6.67,6.5802,6.5263,6.5462,0.0,0.0,0.0,2.8112,2.8094,0.0,0.0,2.7825,2.7131,2.8671,2.7182,2.5947,2.7063,2.7266,2.7435,2.7791,2.9397,3.1238,3.3152,3.569,3.7211,3.6777,3.6432,3.6182,3.6161,3.5431,3.5443,3.6464,3.6532,3.7045,3.8332,3.8392,3.8721,3.9409,3.908,3.923,3.9888,3.9918,4.0576,4.1901,4.2231,4.288,4.3798,4.4496,4.5155,4.5843,4.6531,4.7189,4.7848,4.8506,4.9164,4.9823,5.0435,5.1319,5.2306,5.3324,5.4132,5.488,5.6196,5.7274,5.8261,5.9279,6.0505,6.1672,6.2002,6.254,6.3079,6.3079,6.3079,6.3079,6.3079,6.3318,6.3707,6.4366,6.5024,6.5712,6.637,6.6759,6.7089,6.7418,6.7478,6.7478,6.7478,6.8046,6.8495,6.8495,6.9333,6.9842,6.9542,7.0051,7.044,7.041,7.0141,7.0111,7.041,6.9842,6.9752,7.041,7.044,7.059,7.0889,7.0889,7.0889,7.0889,7.059,7.0141,6.9482,6.8495,6.7298,6.6011,6.6011,6.6041,0.0,0.0,0.0,0.0,0.0,2.8398,0.0,0.0,0.0,2.857,2.6843,2.5422,2.6319,2.5625,2.5286,2.6319,2.7503,2.8872,3.0717,3.3964,3.6021,3.5719,3.5299,3.499,3.4936,3.4787,3.5162,3.6207,3.6417,3.6985,3.8153,3.8332,3.8721,3.9409,3.9559,3.9858,4.0397,4.0666,4.1362,4.241,4.265,4.3299,4.4347,4.5125,4.5813,4.6309,4.701,4.7668,4.8327,4.903,4.9643,5.0255,5.1109,5.1798,5.2546,5.3892,5.482,5.5508,5.6286,5.7663,5.9159,5.9398,6.0745,6.2271,6.2271,6.266,6.3079,6.3079,6.3079,6.3109,6.3228,6.3617,6.4066,6.4336,6.5323,6.6221,6.637,6.6909,6.7537,6.8076,6.8166,6.8166,6.8166,6.8734,6.9183,6.9183,7.0171,7.0709,7.0231,7.059,7.0889,7.0889,7.044,7.035,7.0859,7.044,7.038,7.0859,7.0889,7.0889,7.0889,7.0889,7.0889,7.0889,7.0889,7.059,6.9991,6.9333,6.8106,6.64,6.7064,6.6854,0.0,0.0,0.0,0.0,2.9905,0.0,2.9973,0.0,2.9397,2.8196,0.0,2.708,2.5947,0.0,0.0,2.5812,2.8027,2.9939,3.0209,3.2273,3.335,3.2224,3.2447,3.2734,3.2823,3.4354,3.5459,3.5609,3.6148,3.6776,3.7494,3.8063,3.8721,3.9409,3.9978,4.0337,4.0397,4.1602,4.2261,4.241,4.3539,4.4167,4.4347,4.5633,4.6219,4.6309,4.701,4.7668,4.8327,4.903,4.9643,5.0315,5.1588,5.2486,5.3234,5.4581,5.5508,5.6226,5.7483,5.8441,5.9308,6.0505,6.1822,6.2959,6.2959,6.3019,6.3079,6.3079,6.3079,6.3199,6.3767,6.3947,6.4306,6.5503,6.634,6.7029,6.7627,6.8286,6.8794,6.8884,6.8884,6.8884,6.8884,6.9423,6.9871,6.9871,7.047,7.0889,7.0799,7.0859,7.0889,7.0889,7.0829,7.0829,7.0889,7.0829,7.0829,7.0889,7.0889,7.0889,7.0889,7.0889,7.0889,7.0889,7.0889,7.059,6.9991,6.9333,6.8585,6.7779,6.857,6.8849,0.0,0.0,0.0,0.0,0.0,0.0,3.0852,0.0,2.992,0.0,0.0,0.0,0.0,0.0,0.0,0.0,2.8619,2.96,3.004,3.0548,3.1146,3.1972,0.0,0.0,3.2465,3.2886,3.3514,3.4292,3.4951,3.5609,3.6267,3.7614,3.8871,3.9948,4.0247,4.0756,4.1572,4.2141,4.259,4.294,4.3868,4.4496,4.4915,4.5873,4.6488,4.692,4.7578,4.8237,4.894,4.9553,5.0451,5.1468,5.2396,5.2935,5.3384,5.5119,5.6166,5.6885,5.8231,5.9368,6.0475,6.1822,6.263,6.3079,6.3079,6.3079,6.3079,6.3079,6.3318,6.3677,6.3917,6.4575,6.5293,6.5892,6.6819,6.7627,6.7897,6.8525,6.9123,6.9482,6.9572,6.9692,7.0051,7.0051,7.0111,7.047,7.0739,7.0889,7.0889,7.0889,7.0889,7.0889,7.0889,7.0889,7.0889,7.0889,7.0889,7.0889,7.1278,7.1308,7.0919,7.1278,7.1308,7.0919,7.0889,7.0769,7.05,6.9871,6.9423,6.9157,6.9177,6.9631,3.1609,0.0,0.0,0.0,0.0,0.0,0.0,0.0,0.0,0.0,0.0,0.0,0.0,0.0,0.0,0.0,0.0,2.9499,0.0,2.9803,3.0093,3.1484,0.0,0.0,0.0,3.1686,3.1899,3.2886,3.3724,3.4592,3.5459,3.7165,3.8811,4.0337,4.0576,4.1205,4.2381,4.256,4.288,4.329,4.4197,4.4825,4.5334,4.6202,4.686,4.7339,4.7997,4.87,4.9389,5.0152,5.1169,5.2276,5.3144,5.3563,5.3952,5.5748,5.6825,5.7573,5.8919,6.0266,6.1553,6.272,6.3079,6.3079,6.3079,6.3079,6.3079,6.3079,6.3528,6.4036,6.4246,6.5144,6.6071,6.6221,6.7298,6.8256,6.8256,6.8914,6.9662,7.0141,7.0231,7.038,7.0829,7.053,7.038,7.0829,7.1068,7.1158,7.1158,7.1158,7.1158,7.1158,7.1009,7.0889,7.0889,7.0889,7.0889,7.0889,7.1517,7.1577,7.0919,7.1547,7.1577,7.0919,7.0889,7.0889,7.0889,7.029,7.0217,7.057,7.023,7.0652,0.0,0.0,0.0,3.4092,0.0,0.0,0.0,0.0,3.0954,0.0,0.0,0.0,0.0,0.0,0.0,0.0,0.0,0.0,0.0,0.0,3.0723,2.9627,0.0,0.0,0.0,3.1124,3.1511,3.157,3.2796,3.4113,3.5429,3.6746,3.8362,4.0337,4.1025,4.1722,4.2381,4.3,4.326,4.3319,4.4646,4.5274,4.5334,4.6681,4.7279,4.7339,4.7997,4.87,4.9419,5.0661,5.1588,5.2336,5.3653,5.4551,5.5269,5.6585,5.7483,5.8291,5.9608,6.0924,6.2181,6.2869,6.3079,6.3079,6.3079,6.3079,6.3079,6.3079,6.3528,6.4156,6.4814,6.5503,6.6161,6.6819,6.7986,6.8974,6.8974,6.9961,7.0859,7.0859,7.0859,7.0889,7.0889,7.0889,7.0889,7.0889,7.1457,7.1846,7.1846,7.1846,7.1846,7.1846,7.1278,7.0889,7.0889,7.0889,7.0889,7.0889,7.1517,7.1577,7.0919,7.1547,7.1577,7.0919,7.0889,7.0889,7.0889,7.029,7.0726,7.2026,7.2236,7.2301,0.0,0.0,3.4581,3.509,0.0,0.0,0.0,0.0,0.0,0.0,0.0,0.0,0.0,0.0,0.0,0.0,0.0,0.0,0.0,0.0,2.9717,2.888,2.8841,2.9144,0.0,0.0,2.9295,3.0193,3.145,3.2736,3.4113,3.6656,3.899,4.0995,4.1722,4.2342,4.3,4.3658,4.3947,4.3988,4.5334,4.5963,4.5992,4.689,4.7309,4.7369,4.8446,4.912,4.9449,5.1139,5.2247,5.2995,5.4341,5.5508,5.6496,5.6944,5.7513,5.8381,6.0146,6.1642,6.278,6.3019,6.3079,6.3079,6.3079,6.3378,6.3677,6.3677,6.4485,6.5383,6.5622,6.6161,6.6729,6.6939,6.8016,6.9004,6.9004,6.9991,7.0889,7.0889,7.0889,7.0889,7.0889,7.1278,7.1398,7.0979,7.1457,7.1876,7.1876,7.1876,7.1876,7.1876,7.1308,7.0889,7.0889,7.0889,7.0889,7.0889,7.1517,7.1577,7.0919,7.1547,7.1577,7.0919,7.0889,7.0889,7.0889,7.1739,7.1869,7.1365,7.3561,7.431,3.4697,3.5076,0.0,3.5812,3.4709,0.0,3.3461,0.0,3.1825,0.0,0.0,0.0,0.0,0.0,0.0,0.0,0.0,0.0,0.0,2.9892,0.0,2.8559,2.8295,2.8368,2.8839,2.8094,2.7944,2.8813,3.0103,3.1719,3.3754,0.0,3.8931,4.1692,4.2171,4.2791,4.3648,4.4067,4.4436,4.4676,4.5741,4.6279,4.6309,4.701,4.7429,4.7728,4.8805,4.9449,4.9763,5.1738,5.2785,5.3324,5.491,5.6316,5.7453,5.7453,5.8201,5.9398,6.0924,6.2181,6.3079,6.3079,6.3079,6.3079,6.3079,6.3498,6.4006,6.4006,6.4964,6.6011,6.6011,6.649,6.7059,6.7298,6.8196,6.9064,6.9303,7.0171,7.0889,7.0889,7.0889,7.0979,7.1218,7.1607,7.1667,7.1009,7.1876,7.2535,7.2295,7.2265,7.2265,7.2265,7.1427,7.0889,7.0889,7.0889,7.0889,7.0889,7.1517,7.1577,7.0919,7.1547,7.1906,7.1966,7.1248,7.1248,7.1966,7.2824,7.2302,7.0659,7.4068,7.4996]}]]